Date StartTime U_cm/s V_cm/s W_cm/s Ustd_cm/s Vstd_cm/s Wstd_cm/s Uvar_(cm/s)^2 Vvar_(cm/s)^2 Wvar_(cm/s)^2 KE_(m/s)^2 TurbulentKE_(m/s)^2 HorizWindSpeed_cm/s FrictionSpeec_cm/s DragCoef SpeedOfSound_m/s SonicTemperature_C Pressure_mb 
05/31/2013  00:00:00     -153.326      132.768      -34.544       56.767       61.115       35.540     3222.472     3735.016     1263.065        2.527        0.411      202.820       34.427        0.029      340.911       15.255      862.821
05/31/2013  00:01:00     -165.036      132.098      -40.432       49.549       75.185       39.062     2455.056     5652.739     1525.868        2.798        0.482      211.393       42.625        0.041      340.885       15.211      862.797
05/31/2013  00:02:00     -175.842       87.017      -22.797       80.243      107.248       49.634     6438.924    11502.147     2463.581        2.971        1.020      196.195       55.854        0.081      340.875       15.194      862.779
05/31/2013  00:03:00     -160.632      120.848      -28.419       78.454       61.689       43.299     6155.087     3805.487     1874.783        2.652        0.592      201.015       41.468        0.043      340.833       15.123      862.783
05/31/2013  00:04:00     -128.302       87.299      -16.111       55.355       68.002       35.064     3064.178     4624.254     1229.477        1.663        0.446      155.185       29.594        0.036      340.796       15.063      862.780
05/31/2013  00:05:00     -131.673       91.368      -17.308       42.999       76.343       29.406     1848.954     5828.267      864.712        1.726        0.427      160.268       34.142        0.045      340.778       15.032      862.765
05/31/2013  00:06:00     -152.435       -3.614       -9.633       63.068       52.428       29.734     3977.573     2748.733      884.121        1.548        0.381      152.478       28.694        0.035      340.803       15.074      862.774
05/31/2013  00:07:00     -130.984        2.926      -14.087       65.340       35.373       36.987     4269.374     1251.279     1368.005        1.213        0.344      131.017       37.930        0.084      340.735       14.960      862.783
05/31/2013  00:08:00     -144.888       73.012      -40.274       58.770       60.853       40.942     3453.858     3703.140     1676.284        1.839        0.442      162.244       15.143        0.009      340.727       14.946      862.776
05/31/2013  00:09:00     -100.701       44.090       -6.202       53.670       55.669       40.695     2880.507     3099.020     1656.067        0.988        0.382      109.930       38.955        0.126      340.657       14.828      862.791
05/31/2013  00:10:00     -151.303       58.721      -29.095       53.213       81.570       31.131     2831.582     6653.621      969.141        1.882        0.523      162.298       25.046        0.024      340.646       14.809      862.791
05/31/2013  00:11:00      -82.017       73.672       -1.091       58.245       84.495       41.974     3392.427     7139.330     1761.794        1.222        0.615      110.247       23.905        0.047      340.531       14.615      862.789
05/31/2013  00:12:00     -107.768       49.453       -0.776       53.644       56.423       31.828     2877.629     3183.584     1012.997        1.057        0.354      118.573       17.023        0.021      340.536       14.625      862.804
05/31/2013  00:13:00     -111.021       73.548      -16.756       47.406       44.638       30.534     2247.354     1992.588      932.321        1.159        0.259      133.173       17.809        0.018      340.501       14.565      862.806
05/31/2013  00:14:00     -100.018       87.836      -14.796       53.968       57.925       35.910     2912.561     3355.272     1289.516        1.275        0.378      133.112       28.067        0.044      340.523       14.601      862.809
05/31/2013  00:15:00     -134.344       92.185      -16.903       88.335       52.265       44.260     7803.067     2731.622     1958.917        1.966        0.625      162.930       43.142        0.070      340.541       14.631      862.819
05/31/2013  00:16:00     -131.393      157.936      -21.857       65.999       59.314       46.532     4355.843     3518.149     2165.227        2.636        0.502      205.445       40.557        0.039      340.568       14.675      862.821
05/31/2013  00:17:00     -143.658      133.170      -34.987       53.100       69.011       32.844     2819.592     4762.453     1078.726        2.413        0.433      195.887       30.726        0.025      340.627       14.777      862.827
05/31/2013  00:18:00     -140.478       94.767      -33.710       48.045       34.815       27.195     2308.287     1212.072      739.592        1.705        0.213      169.454       22.065        0.017      340.604       14.738      862.837
05/31/2013  00:19:00     -154.606      131.916      -37.358       56.818       79.001       36.327     3228.308     6241.171     1319.627        2.674        0.539      203.236       41.243        0.041      340.578       14.692      862.841
05/31/2013  00:20:00     -154.730      107.798      -21.037       58.902       67.026       34.118     3469.464     4492.473     1164.011        2.256        0.456      188.578       23.024        0.015      340.531       14.614      862.838
05/31/2013  00:21:00     -102.678      138.239      -15.768       39.388       56.473       32.447     1551.411     3189.207     1052.815        1.785        0.290      172.200       21.128        0.015      340.484       14.536      862.849
05/31/2013  00:22:00     -114.724       51.392      -12.027       37.906       37.596       29.285     1436.840     1413.451      857.584        0.983        0.185      125.709       18.830        0.022      340.549       14.648      862.843
05/31/2013  00:23:00      -92.052       72.876      -15.299       56.260       57.122       28.525     3165.217     3262.925      813.651        1.063        0.362      117.408       24.617        0.044      340.550       14.647      862.851
05/31/2013  00:24:00     -147.080      169.452      -35.393       61.623       62.199       38.926     3797.372     3868.707     1515.213        3.039        0.459      224.381       32.150        0.021      340.552       14.648      862.869
05/31/2013  00:25:00     -163.328      121.111      -28.805       63.662       57.632       37.977     4052.894     3321.422     1442.232        2.549        0.441      203.332       38.971        0.037      340.493       14.551      862.857
05/31/2013  00:26:00     -186.597       90.324      -20.010       58.357       50.318       31.170     3405.504     2531.913      971.590        2.514        0.345      207.309       20.460        0.010      340.470       14.509      862.846
05/31/2013  00:27:00     -185.557       56.937      -15.764       66.128       42.744       39.451     4372.965     1827.039     1556.385        2.284        0.388      194.096       34.986        0.032      340.490       14.545      862.831
05/31/2013  00:28:00     -149.181       80.243      -20.213       48.414       38.462       27.635     2343.919     1479.307      763.718        1.684        0.229      169.393       23.138        0.019      340.483       14.533      862.816
05/31/2013  00:29:00     -156.944       98.243      -34.167       55.973       45.332       33.908     3132.990     2055.029     1149.777        2.089        0.317      185.157       32.573        0.031      340.472       14.515      862.806
05/31/2013  00:30:00     -137.464       67.186      -25.930       41.909       33.335       31.216     1756.398     1111.215      974.415        1.396        0.192      153.005       26.125        0.029      340.495       14.554      862.799
05/31/2013  00:31:00     -124.332       21.168      -10.474       33.367       42.814       18.480     1113.340     1833.046      341.517        0.965        0.164      126.121       10.817        0.007      340.522       14.601      862.791
05/31/2013  00:32:00     -117.118       35.769      -20.270       31.390       32.790       18.986      985.340     1075.193      360.484        0.891        0.121      122.459       12.494        0.010      340.509       14.578      862.793
05/31/2013  00:33:00     -140.355      -15.071       -8.312       41.837       46.380       33.932     1750.366     2151.102     1151.397        1.252        0.253      141.162       11.724        0.007      340.538       14.628      862.785
05/31/2013  00:34:00     -198.018       19.609      -29.201       76.685       61.882       36.917     5880.566     3829.420     1362.894        2.576        0.554      198.987       32.791        0.027      340.506       14.570      862.771
05/31/2013  00:35:00     -155.627      -18.075      -21.135       46.379       48.935       27.275     2151.053     2394.612      743.916        1.514        0.264      156.673       11.988        0.006      340.514       14.586      862.763
05/31/2013  00:36:00     -126.835      -43.525       -1.185       53.308       53.694       31.029     2841.749     2883.035      962.778        1.233        0.334      134.095       21.746        0.026      340.518       14.594      862.758
05/31/2013  00:37:00     -180.026      -52.504      -20.970       44.581       48.505       29.949     1987.436     2352.724      896.955        2.042        0.262      187.526        9.809        0.003      340.469       14.509      862.750
05/31/2013  00:38:00     -155.784      -70.620      -18.737       52.386       53.338       31.975     2744.336     2844.985     1022.431        1.811        0.331      171.044       13.366        0.006      340.446       14.470      862.766
05/31/2013  00:39:00     -194.137       19.351      -17.245       85.099       87.057       41.898     7241.843     7578.869     1755.448        2.747        0.829      195.099       47.560        0.059      340.394       14.381      862.787
05/31/2013  00:40:00     -185.441       69.589      -34.178       76.152       68.509       48.016     5799.190     4693.548     2305.567        2.660        0.640      198.068       33.596        0.029      340.380       14.359      862.791
05/31/2013  00:41:00     -162.763       91.556      -31.146       88.416       91.102       46.961     7817.428     8299.658     2205.376        2.708        0.916      186.747       31.543        0.029      340.438       14.455      862.796
05/31/2013  00:42:00     -124.849       99.683      -10.589       70.755       61.236       41.272     5006.276     3749.880     1703.387        1.805        0.523      159.762       32.363        0.041      340.445       14.469      862.814
05/31/2013  00:43:00      -98.367      -18.861      -22.616       81.496       68.267       48.454     6641.572     4660.436     2347.763        1.209        0.682      100.159       44.526        0.198      340.418       14.424      862.826
05/31/2013  00:44:00      -87.989       36.631      -15.840       72.997       93.792       47.522     5328.584     8796.865     2258.365        1.286        0.819       95.310       55.472        0.339      340.458       14.491      862.851
05/31/2013  00:45:00     -115.438       -2.678      -20.210       45.152       74.302       31.643     2038.665     5520.754     1001.272        1.115        0.428      115.469       24.222        0.044      340.411       14.412      862.878
05/31/2013  00:46:00     -144.076      -61.932      -13.565       61.193       38.163       34.738     3744.622     1456.417     1206.733        1.559        0.320      156.823       23.312        0.022      340.210       14.072      862.898
05/31/2013  00:47:00     -164.370      -40.270       -9.752       52.246       39.047       24.262     2729.619     1524.636      588.665        1.679        0.242      169.231       17.432        0.011      340.080       13.852      862.911
05/31/2013  00:48:00     -125.414       -8.806       -7.869       51.949       41.853       23.392     2698.731     1751.642      547.165        1.043        0.250      125.723       22.531        0.032      340.113       13.908      862.929
05/31/2013  00:49:00     -124.081       33.864      -20.171       42.514       54.018       26.277     1807.475     2917.919      690.486        1.118        0.271      128.619       20.305        0.025      340.313       14.245      862.929
05/31/2013  00:50:00     -110.704      -20.638      -16.186       36.836       33.230       22.010     1356.914     1104.253      484.436        0.794        0.147      112.611       15.364        0.019      340.290       14.209      862.912
05/31/2013  00:51:00     -125.702      -37.042      -17.610       36.751       47.353       23.535     1350.633     2242.274      553.904        1.081        0.207      131.046       19.678        0.023      340.251       14.142      862.908
05/31/2013  00:52:00     -104.036       14.022      -18.360       42.243       43.681       24.247     1784.442     1908.069      587.928        0.782        0.214      104.977       20.958        0.040      340.301       14.228      862.911
05/31/2013  00:53:00     -136.085      -26.095      -13.699       31.482       29.705       20.228      991.102      882.391      409.190        1.083        0.114      138.564       14.769        0.011      340.286       14.202      862.898
05/31/2013  00:54:00     -117.051       -7.912       -9.320       29.156       59.402       27.572      850.071     3528.621      760.232        0.949        0.257      117.318       23.803        0.041      340.276       14.185      862.899
05/31/2013  00:55:00      -88.354        4.196      -13.442       27.621       43.261       26.006      762.924     1871.539      676.303        0.566        0.166       88.453       20.996        0.056      340.287       14.202      862.904
05/31/2013  00:56:00      -90.524       -8.787      -13.132       25.632       25.592       15.864      656.982      654.939      251.661        0.500        0.078       90.950        6.671        0.005      340.308       14.241      862.904
05/31/2013  00:57:00     -125.886      -10.583       -9.308       35.131       40.001       25.112     1234.162     1600.095      630.627        0.975        0.173      126.330       17.167        0.018      340.185       14.032      862.902
05/31/2013  00:58:00     -164.159      -19.303      -22.426       40.715       39.292       23.293     1657.717     1543.879      542.552        1.578        0.187      165.290       18.283        0.012      340.071       13.838      862.886
05/31/2013  00:59:00     -108.338      -66.262       -6.238       53.253       41.679       26.904     2835.926     1737.127      723.832        1.073        0.265      126.995       24.493        0.037      340.110       13.904      862.895
05/31/2013  01:00:00     -126.610       17.937      -20.407       52.815       58.225       27.523     2789.415     3390.111      757.492        1.185        0.347      127.874       28.253        0.049      340.231       14.108      862.894
05/31/2013  01:01:00      -94.230       34.459       -6.995       49.638       63.757       22.749     2463.912     4064.947      517.533        0.858        0.352      100.333       18.660        0.035      340.201       14.057      862.896
05/31/2013  01:02:00     -169.166       51.428      -28.643       76.695       52.701       34.864     5882.089     2777.385     1215.477        2.098        0.494      176.810       39.742        0.051      340.325       14.266      862.891
05/31/2013  01:03:00      -91.655       26.034        0.510       63.722       84.018       39.778     4060.459     7059.047     1582.267        1.089        0.635       95.280       31.545        0.110      340.255       14.149      862.900
05/31/2013  01:04:00      -75.313       71.390       -7.063       47.511       82.844       37.207     2257.331     6863.061     1384.378        1.066        0.525      103.772       39.129        0.142      340.345       14.299      862.918
05/31/2013  01:05:00     -113.429       70.398      -10.454       64.034       87.694       43.395     4100.324     7690.161     1883.123        1.580        0.684      133.500       45.629        0.117      340.461       14.497      862.933
05/31/2013  01:06:00     -204.250       25.418      -27.150       64.685       79.449       33.642     4184.113     6312.207     1131.809        2.736        0.581      205.826       23.881        0.013      340.553       14.650      862.952
05/31/2013  01:07:00      -87.373        2.820      -21.817       32.141       34.546       18.542     1033.053     1193.409      343.809        0.534        0.129       87.418       15.876        0.033      340.395       14.386      862.988
05/31/2013  01:08:00      -97.043       44.828       -8.440       57.543       73.571       33.350     3311.250     5412.711     1112.197        1.067        0.492      106.897       31.492        0.087      340.337       14.289      863.006
05/31/2013  01:09:00      -82.638       -7.710      -10.174       44.765       30.269       20.074     2003.884      916.192      402.970        0.516        0.166       82.997       24.201        0.085      340.299       14.223      863.036
05/31/2013  01:10:00      -97.378      -58.948       -9.968       65.079       64.999       30.561     4235.266     4224.830      933.946        1.122        0.470      113.831       31.350        0.076      340.222       14.093      863.040
05/31/2013  01:11:00      -91.626      -22.526        3.093       79.505       58.353       32.965     6321.034     3405.020     1086.679        0.986        0.541       94.354       30.785        0.106      340.137       13.948      863.036
05/31/2013  01:12:00     -142.434      -39.701       -3.624       48.557       47.560       31.023     2357.763     2261.989      962.422        1.373        0.279      147.863       26.919        0.033      340.083       13.858      863.041
05/31/2013  01:13:00      -97.379      -39.184       -2.321       37.534       31.211       24.007     1408.789      974.114      576.355        0.699        0.148      104.967       17.399        0.027      340.084       13.861      863.058
05/31/2013  01:14:00      -32.253       -8.143       -7.972       33.015       19.363       11.181     1090.023      374.932      125.010        0.138        0.079       33.265       10.940        0.108      340.038       13.783      863.051
05/31/2013  01:15:00      -82.597      -26.657       -5.777       43.172       33.914       15.580     1863.779     1150.158      242.739        0.541        0.163       86.792        6.960        0.006      340.000       13.717      863.039
05/31/2013  01:16:00      -66.634      -28.963       -9.260       31.646       29.164       17.358     1001.484      850.557      301.301        0.376        0.108       72.656       13.600        0.035      340.093       13.876      863.040
05/31/2013  01:17:00      -71.832      -24.445       -8.621       41.728       36.389       18.294     1741.256     1324.174      334.681        0.462        0.170       75.877       18.697        0.061      340.051       13.804      863.032
05/31/2013  01:18:00      -89.885        1.096      -10.785       39.613       53.176       21.855     1569.177     2827.706      477.631        0.653        0.244       89.891       19.847        0.049      340.106       13.897      863.027
05/31/2013  01:19:00     -105.789       56.671      -18.776       32.424       45.541       33.872     1051.329     2073.977     1147.282        0.951        0.214      120.012       31.871        0.071      340.057       13.815      863.033
05/31/2013  01:20:00     -125.623      117.466      -30.173       62.156       77.559       38.159     3863.357     6015.323     1456.076        2.091        0.567      171.986       54.014        0.099      340.133       13.941      863.037
05/31/2013  01:21:00     -129.773      147.528      -26.021       99.942       71.069       45.677     9988.416     5050.794     2086.367        2.820        0.856      196.483       60.793        0.096      340.164       13.994      863.021
05/31/2013  01:22:00      -92.510       71.023      -10.227       55.837       54.050       28.534     3117.772     2921.385      814.193        1.028        0.343      116.629       23.620        0.041      340.117       13.916      863.007
05/31/2013  01:23:00     -144.065       96.424      -21.375       93.445       73.017       50.348     8731.974     5331.418     2534.913        2.355        0.830      173.356       57.154        0.109      340.235       14.113      863.003
05/31/2013  01:24:00     -167.527       66.012      -14.201       76.870       63.665       43.557     5908.984     4053.207     1897.195        2.224        0.593      180.064       41.335        0.053      340.295       14.215      863.016
05/31/2013  01:25:00      -91.490       21.456      -10.185       56.385       46.757       39.135     3179.303     2186.176     1531.526        0.791        0.345       93.972       27.765        0.087      340.234       14.114      863.036
05/31/2013  01:26:00     -141.056       70.697       -6.333       68.656       46.883       39.991     4713.635     2198.046     1599.306        1.672        0.426      157.781       26.546        0.028      340.291       14.209      863.047
05/31/2013  01:27:00      -95.602       54.999       -9.380       73.721       66.056       30.498     5434.806     4363.354      930.127        1.149        0.536      110.293       25.808        0.055      340.269       14.171      863.054
05/31/2013  01:28:00      -48.661       31.526       -5.803       45.256       60.407       26.947     2048.099     3649.040      726.136        0.491        0.321       57.981       19.798        0.117      340.272       14.178      863.057
05/31/2013  01:29:00      -60.763       77.463      -11.029       54.951       61.726       37.682     3019.567     3810.081     1419.942        0.903        0.412       98.451       35.720        0.132      340.278       14.188      863.074
05/31/2013  01:30:00     -130.640       59.848      -18.065       95.702       60.207       40.205     9158.790     3624.839     1616.426        1.769        0.720      143.696       53.533        0.139      340.296       14.216      863.077
05/31/2013  01:31:00     -111.177       69.643      -22.932       79.052       91.694       41.886     6249.220     8407.818     1754.422        1.707        0.821      131.189       49.217        0.141      340.340       14.292      863.091
05/31/2013  01:32:00      -73.787       53.143       -4.867       84.824       59.100       43.343     7195.070     3492.796     1878.611        1.043        0.628       90.933       54.114        0.354      340.284       14.198      863.099
05/31/2013  01:33:00      -72.127       15.558       -8.356       35.806       48.231       31.394     1282.094     2326.235      985.580        0.505        0.230       73.786       16.599        0.051      340.317       14.253      863.113
05/31/2013  01:34:00      -87.119       67.697      -19.142       54.521       64.577       36.709     2972.491     4170.248     1347.559        1.051        0.425      110.329       38.855        0.124      340.256       14.150      863.132
05/31/2013  01:35:00     -101.532        9.509       -3.100       56.269       48.710       35.206     3166.249     2372.699     1239.479        0.859        0.339      101.977       32.489        0.102      340.319       14.255      863.146
05/31/2013  01:36:00      -70.982       97.362      -13.498       49.855       61.815       36.574     2485.483     3821.105     1337.671        1.117        0.382      120.490       34.768        0.083      340.236       14.117      863.157
05/31/2013  01:37:00      -97.892       59.947       -8.505       44.189       49.428       27.249     1952.702     2443.098      742.514        0.919        0.257      114.789       26.631        0.054      340.241       14.125      863.166
05/31/2013  01:38:00     -115.274       76.571      -19.555       53.348       54.886       29.476     2845.973     3012.513      868.843        1.313        0.336      138.388       30.671        0.049      340.293       14.213      863.176
05/31/2013  01:39:00      -63.547      100.668      -11.388       32.841       47.003       21.535     1078.516     2209.292      463.735        0.903        0.188      119.048       17.873        0.023      340.166       13.998      863.170
05/31/2013  01:40:00      -64.727      -14.567       -6.992       52.249       48.413       26.136     2729.928     2343.817      683.073        0.510        0.288       66.346       24.822        0.140      340.207       14.067      863.164
05/31/2013  01:41:00      -61.954       -4.523       -4.034       36.969       30.074       17.294     1366.678      904.432      299.081        0.322        0.129       62.119       14.610        0.055      340.208       14.069      863.152
05/31/2013  01:42:00      -87.073      -44.916       -7.286       27.650       33.147       21.425      764.537     1098.750      459.039        0.599        0.116       97.975       17.897        0.033      340.179       14.020      863.141
05/31/2013  01:43:00      -85.486      -56.241       -4.904       32.814       26.129       20.328     1076.773      682.701      413.213        0.633        0.109      102.328       17.468        0.029      339.984       13.691      863.139
05/31/2013  01:44:00      -72.363      -55.824       -3.449       62.809       47.240       30.292     3944.947     2231.617      917.632        0.773        0.355       91.394       29.727        0.106      339.872       13.504      863.138
05/31/2013  01:45:00      -56.488      -53.311        0.561       92.045       50.164       34.970     8472.332     2516.437     1222.870        0.912        0.611       77.673       40.280        0.269      339.860       13.483      863.141
05/31/2013  01:46:00      -77.458      -53.656        5.346       77.324       44.119       40.500     5978.993     1946.467     1640.244        0.923        0.478       94.227       44.892        0.227      339.779       13.346      863.146
05/31/2013  01:47:00      -51.255      -55.385        9.389       71.880       57.510       35.521     5166.761     3307.449     1261.730        0.776        0.487       75.462       40.097        0.282      339.827       13.428      863.146
05/31/2013  01:48:00     -146.536      -72.791       -2.383       57.273       43.395       30.112     3280.185     1883.111      906.744        1.642        0.304      163.619       26.853        0.027      339.817       13.409      863.138
05/31/2013  01:49:00     -116.608      -31.388        1.501       59.619       44.191       26.237     3554.408     1952.884      688.372        1.039        0.310      120.759       27.195        0.051      339.819       13.413      863.134
05/31/2013  01:50:00     -161.733     -101.293        1.171       54.016       47.232       30.812     2917.683     2230.886      949.369        2.126        0.305      190.835       21.409        0.013      339.830       13.430      863.130
05/31/2013  01:51:00     -153.881      -49.898        5.125       51.144       47.763       27.124     2615.707     2281.334      735.711        1.591        0.282      161.769       25.366        0.025      339.823       13.419      863.128
05/31/2013  01:52:00      -68.101      -67.898        5.902       61.852       43.406       30.927     3825.692     1884.100      956.497        0.797        0.333       96.165       35.045        0.133      339.786       13.357      863.126
05/31/2013  01:53:00     -107.835      -64.227       -2.857       52.403       46.501       32.363     2746.097     2162.311     1047.393        1.086        0.298      125.513       28.460        0.051      339.757       13.310      863.141
05/31/2013  01:54:00      -80.002      -59.021        3.239       50.581       29.357       21.305     2558.400      861.853      453.883        0.688        0.194       99.417       23.881        0.058      339.731       13.266      863.163
05/31/2013  01:55:00      -53.033      -51.772        2.200       39.927       27.367       16.895     1594.173      748.927      285.437        0.406        0.131       74.114       16.431        0.049      339.780       13.349      863.195
05/31/2013  01:56:00      -61.882      -35.014        0.879       48.811       32.035       22.397     2382.477     1026.260      501.604        0.448        0.196       71.101       25.813        0.132      339.758       13.312      863.212
05/31/2013  01:57:00      -46.347      -48.933       -0.903       43.119       35.291       22.891     1859.283     1245.435      524.017        0.409        0.181       67.398       22.330        0.110      339.745       13.290      863.228
05/31/2013  01:58:00      -69.784      -63.460       -1.425       34.155       28.105       19.075     1166.547      789.895      363.861        0.561        0.116       94.324       18.105        0.037      339.760       13.315      863.228
05/31/2013  01:59:00      -74.395      -78.644       11.097       73.917       38.942       42.687     5463.675     1516.483     1822.156        1.032        0.440      108.256       47.831        0.195      339.675       13.171      863.239
05/31/2013  02:00:00     -112.252     -111.571      -10.369       48.709       42.722       25.375     2372.536     1825.135      643.899        1.500        0.242      158.268       22.949        0.021      339.702       13.216      863.260
05/31/2013  02:01:00     -159.571     -133.062       -6.483       48.656       61.111       37.607     2367.376     3734.596     1414.307        2.536        0.376      207.770       31.235        0.023      339.723       13.248      863.259
05/31/2013  02:02:00     -187.089      -96.002      -16.185       74.809       68.497       38.493     5596.402     4691.785     1481.747        2.812        0.588      210.282       35.147        0.028      339.790       13.362      863.269
05/31/2013  02:03:00     -201.184      -49.539       -2.750       89.399       59.281       38.277     7992.170     3514.271     1465.112        2.795        0.649      207.194       38.391        0.034      339.893       13.537      863.273
05/31/2013  02:04:00     -203.633      -23.674      -23.718       79.917       51.033       37.804     6386.678     2604.319     1429.106        2.650        0.521      205.004       31.139        0.023      340.083       13.856      863.255
05/31/2013  02:05:00     -175.540      -53.744       -6.029       60.507       42.186       27.445     3661.139     1779.696      753.206        1.997        0.310      183.583       27.813        0.023      339.965       13.658      863.245
05/31/2013  02:06:00     -118.587      -34.165        2.436       41.569       42.277       26.335     1728.017     1787.361      693.526        0.972        0.210      123.410       24.319        0.039      339.850       13.466      863.235
05/31/2013  02:07:00     -136.519      -62.974       -1.270       47.661       34.921       22.016     2271.583     1219.505      484.684        1.329        0.199      150.344       22.992        0.023      339.991       13.703      863.225
05/31/2013  02:08:00     -148.239      -88.008       -2.654       42.723       43.685       27.097     1825.232     1908.375      734.240        1.710        0.223      172.396       22.519        0.017      339.971       13.671      863.214
05/31/2013  02:09:00      -87.164      -79.083        1.942       57.247       42.261       24.036     3277.236     1786.010      577.744        0.975        0.282      117.693       22.029        0.035      339.921       13.585      863.199
05/31/2013  02:10:00     -156.844     -113.722       -9.442       59.047       50.605       26.165     3486.602     2560.878      684.602        2.218        0.337      193.734       27.970        0.021      339.927       13.594      863.203
05/31/2013  02:11:00      -96.144      -73.555        4.565      112.896       87.923       36.739    12745.512     7730.417     1349.720        1.825        1.091      121.054       42.055        0.121      339.923       13.586      863.188
05/31/2013  02:12:00     -101.960      -57.451       -2.109       53.471       50.868       19.792     2859.187     2587.581      391.719        0.977        0.292      117.032       19.022        0.026      339.943       13.623      863.182
05/31/2013  02:13:00     -119.147      -10.992       -0.153       71.888       48.129       30.451     5167.945     2316.418      927.270        1.136        0.421      119.653       40.328        0.114      339.777       13.343      863.185
05/31/2013  02:14:00     -141.684      -19.800      -11.647       41.566       65.244       23.797     1727.751     4256.793      566.282        1.358        0.328      143.061       16.569        0.013      339.805       13.390      863.198
05/31/2013  02:15:00     -124.980      -67.478      -12.174       50.302       37.665       22.687     2530.275     1418.687      514.695        1.239        0.223      142.033       11.335        0.006      339.781       13.348      863.198
05/31/2013  02:16:00     -168.650      -42.279       -2.611       41.462       40.123       24.440     1719.070     1609.825      597.295        1.708        0.196      173.868       21.554        0.015      339.767       13.326      863.201
05/31/2013  02:17:00     -173.938      -50.013        1.666       69.092       42.516       32.910     4773.703     1807.587     1083.068        2.021        0.383      180.985       36.519        0.041      340.009       13.731      863.191
05/31/2013  02:18:00     -111.083      -43.668       -0.584       54.169       41.065       32.714     2934.273     1686.303     1070.189        0.997        0.285      119.358       22.076        0.034      339.918       13.581      863.207
05/31/2013  02:19:00      -66.644      -36.172        5.135       68.174       44.401       29.456     4647.663     1971.452      867.642        0.663        0.374       75.828       26.339        0.121      339.970       13.669      863.227
05/31/2013  02:20:00      -57.538      -46.612        5.666       54.525       47.441       25.364     2972.935     2250.663      643.324        0.569        0.293       74.049       31.321        0.179      339.988       13.699      863.244
05/31/2013  02:21:00      -69.335      -41.602        4.853       78.599       90.178       38.021     6177.821     8132.139     1445.599        1.116        0.788       80.859       36.115        0.199      340.155       13.980      863.243
05/31/2013  02:22:00      -22.227      -30.226       10.707       37.364       36.902       24.778     1396.046     1361.744      613.927        0.245        0.169       37.519        8.005        0.046      339.955       13.643      863.243
05/31/2013  02:23:00      -64.319      -21.626       -1.023       25.971       24.337       18.382      674.508      592.266      337.888        0.310        0.080       67.858       17.453        0.066      340.039       13.785      863.255
05/31/2013  02:24:00       26.047       20.856       22.081       19.594       27.746       23.349      383.908      769.824      545.187        0.165        0.085       33.368       20.371        0.373      339.729       13.263      863.290
05/31/2013  02:25:00       49.070       33.249       -1.230       37.290       32.337       20.695     1390.516     1045.680      428.300        0.319        0.143       59.273        8.140        0.019      339.459       12.806      863.316
05/31/2013  02:26:00      143.306       78.821       12.069       33.974       32.838       25.577     1154.247     1078.332      654.205        1.489        0.144      163.552       15.043        0.008      339.269       12.486      863.327
05/31/2013  02:27:00      125.767       78.582       27.859       49.557       36.620       34.548     2455.928     1341.015     1193.564        1.388        0.250      148.299       27.849        0.035      339.275       12.496      863.331
05/31/2013  02:28:00      101.859       73.957        5.400       25.746       19.874       19.649      662.879      394.959      386.077        0.866        0.072      125.877       11.370        0.008      339.095       12.195      863.337
05/31/2013  02:29:00      102.523       73.109       21.154       31.943       27.855       24.316     1020.358      775.925      591.292        0.935        0.119      125.920       18.648        0.022      338.995       12.025      863.345
05/31/2013  02:30:00      119.766       51.902        2.377       50.932       39.032       29.684     2594.044     1523.466      881.131        1.102        0.250      130.528       19.026        0.021      339.188       12.349      863.356
05/31/2013  02:31:00       94.986       48.637       28.212       45.262       41.343       41.166     2048.604     1709.276     1694.640        0.882        0.273      106.714       28.729        0.072      339.225       12.412      863.357
05/31/2013  02:32:00       83.582       50.620       26.070       37.715       30.253       22.319     1422.419      915.221      498.146        0.653        0.142       97.716       15.740        0.026      339.289       12.521      863.378
05/31/2013  02:33:00       49.423       66.507       -3.555       43.287       30.961       19.395     1873.753      958.573      376.163        0.504        0.160       82.861       20.956        0.064      339.217       12.398      863.383
05/31/2013  02:34:00       58.265       36.855        7.385       31.556       18.510       20.082      995.809      342.613      403.268        0.327        0.087       68.943       14.934        0.047      339.175       12.329      863.390
05/31/2013  02:35:00       65.806       36.485       17.051       21.614       20.214       16.745      467.146      408.624      280.395        0.355        0.058       75.244       13.155        0.031      339.224       12.409      863.391
05/31/2013  02:36:00       55.555        1.820       10.316       16.064       10.765       10.730      258.065      115.895      115.136        0.184        0.024       55.585        4.928        0.008      339.257       12.465      863.388
05/31/2013  02:37:00       58.530       -1.072        2.541       13.395       15.162       12.060      179.427      229.900      145.447        0.199        0.028       58.540        8.953        0.023      339.419       12.739      863.401
05/31/2013  02:38:00       41.031      -27.155        5.491       26.092       20.638       20.246      680.815      425.926      409.913        0.198        0.076       49.204       17.759        0.130      339.516       12.904      863.404
05/31/2013  02:39:00       50.635      -26.625        6.002       27.276       25.037       20.566      743.958      626.872      422.941        0.255        0.090       57.208       20.570        0.129      339.484       12.849      863.407
05/31/2013  02:40:00       44.577      -24.122       20.053       35.477       28.569       19.534     1258.644      816.211      381.571        0.271        0.123       50.685       21.506        0.180      339.556       12.968      863.407
05/31/2013  02:41:00       29.889      -59.230        6.862       31.230       36.577       17.017      975.327     1337.901      289.592        0.353        0.130       66.344       19.914        0.090      339.684       13.186      863.424
05/31/2013  02:42:00       51.784      -87.137       -6.630       26.216       28.090       24.326      687.278      789.059      591.751        0.619        0.103      101.363       18.393        0.033      339.868       13.496      863.425
05/31/2013  02:43:00       34.063      -21.061       29.609       38.715       68.483       38.651     1498.883     4689.978     1493.920        0.508        0.384       40.048       48.462        1.464      339.730       13.266      863.426
05/31/2013  02:44:00      -12.288       30.261       45.750       14.918       20.805       18.956      222.548      432.837      359.326        0.209        0.051       32.661       15.022        0.212      339.575       13.001      863.462
05/31/2013  02:45:00      -11.637      -26.292       14.894        8.444       21.806       12.522       71.303      475.490      156.803        0.088        0.035       28.752       10.600        0.136      339.565       12.986      863.471
05/31/2013  02:46:00        1.230      -90.177       -4.685       18.880       22.754       16.542      356.439      517.735      273.651        0.465        0.057       90.185        8.571        0.009      339.577       13.004      863.446
05/31/2013  02:47:00       71.355      -98.887      -12.333       37.940       29.122       22.747     1439.456      848.069      517.428        0.891        0.140      121.943       20.316        0.028      339.808       13.396      863.424
05/31/2013  02:48:00        9.122      -27.184        5.247       31.728       32.773       18.996     1006.639     1074.040      360.843        0.165        0.122       28.674       11.432        0.159      339.643       13.117      863.431
05/31/2013  02:49:00      -39.916       28.834       -4.319       21.383       18.870       14.796      457.234      356.087      218.928        0.174        0.052       49.241       10.920        0.049      339.399       12.706      863.441
05/31/2013  02:50:00      -43.677       40.607      -14.080       10.305       10.932        6.985      106.197      119.507       48.790        0.201        0.014       59.637        5.641        0.009      339.464       12.814      863.443
05/31/2013  02:51:00      -31.686        9.306       -3.100        5.540        7.570        5.525       30.689       57.304       30.527        0.061        0.006       33.024        4.400        0.018      339.593       13.034      863.439
05/31/2013  02:52:00      -27.481        3.171       -2.486        5.190        4.492        3.671       26.937       20.174       13.477        0.042        0.003       27.664        1.526        0.003      339.530       12.926      863.437
05/31/2013  02:53:00       -9.390        2.873        4.244        5.881        3.301        4.806       34.587       10.895       23.095        0.009        0.003        9.819        2.458        0.063      339.432       12.762      863.446
05/31/2013  02:54:00        3.125        2.508        2.921        5.215        3.439        5.303       27.201       11.828       28.117        0.005        0.003        4.007        3.248        0.657      339.355       12.631      863.463
05/31/2013  02:55:00        1.579       -1.740        1.296        3.153        2.722        4.207        9.940        7.412       17.700        0.002        0.002        2.349        1.947        0.687      339.362       12.642      863.477
05/31/2013  02:56:00        0.916       -3.486        0.672        3.679        2.926        3.373       13.535        8.561       11.378        0.002        0.002        3.604        1.744        0.234      339.402       12.710      863.491
05/31/2013  02:57:00        1.051        7.678        6.859        4.867        6.788        3.790       23.683       46.080       14.362        0.010        0.004        7.749        3.310        0.182      339.365       12.650      863.513
05/31/2013  02:58:00       -7.732       -2.340        1.398        7.110       10.341        5.123       50.554      106.936       26.248        0.013        0.009        8.078        5.504        0.464      339.386       12.684      863.518
05/31/2013  02:59:00      -18.005      -11.866        3.708       15.255        8.147        8.446      232.702       66.372       71.331        0.042        0.019       21.563        6.390        0.088      339.353       12.628      863.516
05/31/2013  03:00:00      -46.530        6.991       -5.769        9.233       10.059        5.486       85.242      101.189       30.091        0.123        0.011       47.052        3.127        0.004      339.268       12.485      863.510
05/31/2013  03:01:00      -56.613       39.660      -10.142        7.871       15.047        5.190       61.956      226.397       26.932        0.260        0.016       69.123        5.722        0.007      339.185       12.343      863.512
05/31/2013  03:02:00      -54.935       13.204       -6.910       16.737       21.341        9.981      280.142      455.423       99.627        0.204        0.042       56.500        7.197        0.016      339.158       12.298      863.524
05/31/2013  03:03:00      -64.947       -0.314       -0.723       26.987       20.916       13.308      728.287      437.476      177.096        0.278        0.067       64.948       14.603        0.051      339.080       12.168      863.534
05/31/2013  03:04:00     -138.985       -6.817       -8.500       29.596       19.429       15.077      875.922      377.481      227.304        1.046        0.074      139.152       13.072        0.009      339.134       12.259      863.536
05/31/2013  03:05:00     -140.671      -16.322       -7.512       37.797       21.004       20.227     1428.611      441.175      409.145        1.119        0.114      141.615       22.021        0.024      339.146       12.279      863.531
05/31/2013  03:06:00     -107.961       -8.159      -10.474       34.779       17.375       10.806     1209.611      301.895      116.770        0.673        0.081      108.269       10.680        0.010      339.115       12.226      863.521
05/31/2013  03:07:00      -12.636      -38.133        9.862       31.541       25.834       13.717      994.809      667.421      188.168        0.178        0.093       40.172       11.031        0.075      339.124       12.244      863.496
05/31/2013  03:08:00      -58.818      -22.708        2.943       55.225       23.395       15.762     3049.833      547.336      248.443        0.391        0.192       63.049       15.113        0.057      339.147       12.280      863.498
05/31/2013  03:09:00     -144.333      -74.173      -10.745       33.105       23.238       17.919     1095.962      540.007      321.079        1.420        0.098      162.277       14.344        0.008      339.084       12.176      863.509
05/31/2013  03:10:00      -85.887      -67.350       -3.091       40.913       31.084       21.201     1673.887      966.217      449.493        0.751        0.154      109.145       19.820        0.033      339.042       12.103      863.516
05/31/2013  03:11:00      -68.513      -77.024       -2.135       33.259       33.198       17.394     1106.139     1102.088      302.546        0.657        0.126      103.086       15.532        0.023      339.061       12.136      863.517
05/31/2013  03:12:00      -24.372      -79.858        1.370       36.477       33.500       22.866     1330.575     1122.219      522.835        0.497        0.149       83.494       16.152        0.037      339.095       12.194      863.504
05/31/2013  03:13:00     -138.222      -49.342      -10.788       42.821       28.966       18.242     1833.624      839.056      332.760        1.233        0.150      146.765       14.947        0.010      339.026       12.077      863.510
05/31/2013  03:14:00      -91.610      -65.934       -0.780       48.053       40.938       20.413     2309.073     1675.904      416.671        0.857        0.220      112.870       17.702        0.025      338.910       11.884      863.524
05/31/2013  03:15:00      -41.778      -81.662        9.199       54.634       39.520       26.817     2984.870     1561.831      719.176        0.688        0.263       91.729       30.254        0.109      338.835       11.757      863.529
05/31/2013  03:16:00      -22.203     -102.909        0.195       28.517       45.643       32.745      813.202     2083.240     1072.232        0.753        0.198      105.276       20.427        0.038      338.850       11.782      863.533
05/31/2013  03:17:00      -57.515      -35.887       10.931       62.093       44.847       26.457     3855.499     2011.260      699.984        0.564        0.328       67.793       22.624        0.111      338.708       11.543      863.545
05/31/2013  03:18:00      -55.455      -41.449       17.003       77.404       45.460       33.602     5991.372     2066.653     1129.110        0.713        0.459       69.234       41.485        0.359      338.639       11.427      863.565
05/31/2013  03:19:00     -101.472      -63.543       -5.559       53.451       36.601       26.677     2857.036     1339.614      711.658        0.964        0.245      119.726       23.239        0.038      338.546       11.270      863.573
05/31/2013  03:20:00      -97.882      -83.629       -5.640       26.757       20.487       17.765      715.946      419.699      315.596        0.903        0.073      128.743        9.638        0.006      338.634       11.417      863.573
05/31/2013  03:21:00      -51.025      -73.128        4.180       38.461       30.227       21.457     1479.284      913.694      460.420        0.541        0.143       89.170       21.929        0.060      338.661       11.464      863.572
05/31/2013  03:22:00      -37.233      -66.051        0.023       46.123       21.947       24.079     2127.359      481.657      579.784        0.447        0.159       75.822       23.788        0.098      338.771       11.650      863.585
05/31/2013  03:23:00      -61.394      -66.564       -3.651       25.611       23.226       14.595      655.917      539.433      213.000        0.481        0.070       90.554       11.027        0.015      338.727       11.575      863.582
05/31/2013  03:24:00      -66.564      -22.270       -3.748       13.463       19.382        9.359      181.250      375.665       87.590        0.279        0.032       70.191        4.702        0.004      338.720       11.563      863.583
05/31/2013  03:25:00      -45.999      -23.529       -1.519       21.209       13.166       13.580      449.809      173.354      184.428        0.174        0.040       51.667       10.691        0.043      338.702       11.534      863.584
05/31/2013  03:26:00      -26.921      -19.060      -14.345       24.828        9.917        7.802      616.432       98.351       60.874        0.103        0.039       32.985        6.186        0.035      338.679       11.495      863.586
05/31/2013  03:27:00      -36.414       -0.537       -0.770       11.581       10.010       10.337      134.123      100.194      106.847        0.083        0.017       36.418        4.718        0.017      338.701       11.531      863.588
05/31/2013  03:28:00      -40.851      -10.108       -2.999       10.283       11.185        7.609      105.730      125.104       57.902        0.103        0.014       42.083        4.117        0.010      338.666       11.471      863.580
05/31/2013  03:29:00      -28.853      -15.650       -7.471       15.593       11.453        5.989      243.142      131.163       35.872        0.077        0.021       32.824        5.475        0.028      338.645       11.436      863.584
05/31/2013  03:30:00      -25.953      -32.721      -10.539       27.258       22.612       14.995      742.975      511.289      224.861        0.167        0.074       41.764       12.059        0.083      338.748       11.609      863.592
05/31/2013  03:31:00       -3.218      -16.580       13.009       26.270       22.520       18.115      690.102      507.129      328.170        0.099        0.076       16.889       15.972        0.894      338.670       11.479      863.590
05/31/2013  03:32:00      -85.327      -88.386        5.030       54.869       49.834       33.339     3010.635     2483.411     1111.499        1.086        0.330      122.853       30.509        0.062      338.533       11.248      863.578
05/31/2013  03:33:00      -89.106      -73.977        3.510       42.421       30.997       25.545     1799.544      960.824      652.572        0.842        0.171      115.812       26.133        0.051      338.528       11.242      863.573
05/31/2013  03:34:00      -70.576      -31.579       -5.772       24.272       12.881        7.530      589.148      165.920       56.702        0.341        0.041       77.319        9.054        0.014      338.630       11.412      863.565
05/31/2013  03:35:00      -36.888      -17.782       -2.080       11.856        6.745        7.467      140.573       45.500       55.762        0.096        0.012       40.950        6.326        0.024      338.634       11.420      863.551
05/31/2013  03:36:00      -47.138      -31.634        0.964       37.328       23.601       16.426     1393.354      556.998      269.807        0.272        0.111       56.768       15.420        0.074      338.645       11.437      863.546
05/31/2013  03:37:00      -97.198      -56.136       -1.490       26.565       25.918       20.764      705.680      671.743      431.143        0.720        0.090      112.243       15.187        0.018      338.503       11.199      863.551
05/31/2013  03:38:00      -95.399      -38.835       -8.574       21.918       20.572       13.074      480.412      423.187      170.921        0.588        0.054      103.001       10.987        0.011      338.496       11.188      863.548
05/31/2013  03:39:00      -11.467      -29.321        6.230       24.342       19.287       12.596      592.530      371.990      158.658        0.108        0.056       31.483       11.309        0.129      338.461       11.127      863.541
05/31/2013  03:40:00      -22.201      -20.519        8.418       37.240       16.107       12.190     1386.840      259.435      148.585        0.139        0.090       30.231       16.359        0.293      338.511       11.211      863.545
05/31/2013  03:41:00      -97.350      -39.447      -10.292       11.531        7.935        6.627      132.957       62.965       43.916        0.569        0.012      105.038        3.957        0.001      338.504       11.202      863.559
05/31/2013  03:42:00      -70.359      -18.057      -10.659       24.240       13.891        8.839      587.587      192.969       78.134        0.312        0.043       72.639        6.790        0.009      338.497       11.190      863.561
05/31/2013  03:43:00      -61.023      -11.291       -8.680       11.951       11.940        8.881      142.823      142.561       78.878        0.215        0.018       62.059        4.828        0.006      338.484       11.167      863.557
05/31/2013  03:44:00     -110.151      -41.666      -10.854       24.781       30.679       12.160      614.092      941.178      147.874        0.784        0.085      117.768        9.810        0.007      338.470       11.143      863.566
05/31/2013  03:45:00     -127.245      -65.442       -8.291       41.453       35.105       23.056     1718.369     1232.330      531.594        1.201        0.174      143.087       12.627        0.008      338.313       10.879      863.561
05/31/2013  03:46:00     -108.974       -9.470       -5.453       44.207       25.572       17.227     1954.268      653.910      296.767        0.745        0.145      109.384       14.699        0.018      338.309       10.873      863.565
05/31/2013  03:47:00      -95.031        0.322       -9.152       34.931       23.725       21.813     1220.148      562.867      475.787        0.569        0.113       95.031       22.194        0.055      338.149       10.603      863.562
05/31/2013  03:48:00     -108.753        7.840      -12.258       33.057       29.762       21.006     1092.792      885.748      441.269        0.723        0.121      109.036        7.176        0.004      338.212       10.711      863.553
05/31/2013  03:49:00      -83.114        7.506       -8.896       28.975       34.998       18.002      839.563     1224.888      324.078        0.472        0.119       83.452       15.019        0.032      338.168       10.638      863.553
05/31/2013  03:50:00      -26.494       -7.514      -10.691       24.672       19.450       11.814      608.708      378.301      139.569        0.100        0.056       27.539       12.369        0.202      338.172       10.643      863.552
05/31/2013  03:51:00      -23.929      -40.175       -4.496       34.171       17.106       12.552     1167.689      292.631      157.563        0.191        0.081       46.761        8.047        0.030      338.326       10.901      863.548
05/31/2013  03:52:00      -75.703      -44.399        1.748       71.568       36.500       24.891     5121.977     1332.271      619.570        0.739        0.354       87.762       33.671        0.147      338.135       10.582      863.555
05/31/2013  03:53:00     -121.916      -57.088        3.124       32.779       33.736       19.920     1074.456     1138.095      396.809        1.037        0.130      134.620       22.873        0.029      338.032       10.408      863.547
05/31/2013  03:54:00      -92.341      -13.090       -2.637       23.133       18.563       15.948      535.113      344.596      254.328        0.492        0.057       93.264       15.564        0.028      338.026       10.398      863.537
05/31/2013  03:55:00     -120.357      -12.676       -8.258       45.993       23.112       19.232     2115.385      534.181      369.883        0.887        0.151      121.023       24.015        0.039      338.111       10.542      863.537
05/31/2013  03:56:00     -118.500      -10.836       -3.514       40.840       31.797       23.572     1667.946     1011.062      555.617        0.870        0.162      118.994       22.676        0.036      337.985       10.329      863.551
05/31/2013  03:57:00      -50.211      -44.318       -3.384       18.633       16.794        9.849      347.189      282.031       97.012        0.261        0.036       66.972        4.176        0.004      338.037       10.416      863.557
05/31/2013  03:58:00      -86.098      -44.502      -11.599       34.625       13.868       10.599     1198.899      192.330      112.347        0.552        0.075       96.919       10.552        0.012      338.114       10.546      863.553
05/31/2013  03:59:00     -134.186      -59.662       -7.754       34.374       22.362       24.347     1181.577      500.039      592.758        1.195        0.114      146.852       22.688        0.024      338.038       10.417      863.556
05/31/2013  04:00:00      -94.357      -45.226       -2.066       33.296       35.369       17.490     1108.622     1250.965      305.891        0.681        0.133      104.636       16.711        0.026      337.998       10.352      863.577
05/31/2013  04:01:00      -94.275       -5.723       -8.632       40.917       29.812       18.634     1674.205      888.784      347.243        0.595        0.146       94.449       17.553        0.035      337.991       10.339      863.600
05/31/2013  04:02:00      -76.128      -17.631      -12.676       36.602       18.223       14.330     1339.710      332.077      205.349        0.407        0.094       78.143       16.217        0.043      338.095       10.513      863.598
05/31/2013  04:03:00      -41.153        5.059       -7.232       13.270       23.257       11.924      176.099      540.884      142.176        0.132        0.043       41.463        6.075        0.021      338.067       10.466      863.607
05/31/2013  04:04:00      -18.283      -23.344       -9.069       19.037       14.963       14.237      362.400      223.895      202.695        0.088        0.039       29.652        7.322        0.061      338.164       10.629      863.621
05/31/2013  04:05:00      -35.451      -49.077      -10.182       25.245       19.956       14.559      637.327      398.228      211.979        0.251        0.062       60.542       15.042        0.062      338.217       10.719      863.640
05/31/2013  04:06:00      -68.814      -34.787       -4.882       21.279       25.077        9.038      452.795      628.859       81.679        0.357        0.058       77.107        8.520        0.012      338.226       10.734      863.654
05/31/2013  04:07:00      -56.998      -38.463        2.695       33.703       32.098       17.650     1135.893     1030.290      311.525        0.361        0.124       68.762       17.374        0.064      338.164       10.629      863.673
05/31/2013  04:08:00     -101.304      -56.583       -1.996       39.062       23.622       19.141     1525.803      558.015      366.364        0.796        0.123      116.035       19.225        0.027      338.147       10.601      863.706
05/31/2013  04:09:00      -87.230      -44.051       -6.838       28.593       16.471       10.984      817.568      271.305      120.642        0.540        0.060       97.722        9.138        0.009      338.139       10.589      863.725
05/31/2013  04:10:00      -49.411      -40.794        3.492       39.938       25.085       15.168     1595.043      629.235      230.054        0.329        0.123       64.075       15.438        0.058      338.153       10.610      863.731
05/31/2013  04:11:00      -40.287      -89.467       -2.482       32.424       29.923       23.020     1051.316      895.402      529.912        0.605        0.124       98.119       18.835        0.037      338.172       10.642      863.740
05/31/2013  04:12:00      -57.009      -77.544      -12.294       30.914       20.644       16.143      955.673      426.168      260.592        0.553        0.082       96.245        9.163        0.009      338.230       10.739      863.750
05/31/2013  04:13:00      -56.916      -50.958       -9.387       15.554       24.845        9.700      241.919      617.282       94.100        0.344        0.048       76.395        7.770        0.010      338.350       10.942      863.760
05/31/2013  04:14:00      -43.020      -31.659       -5.561       22.725       18.011        9.845      516.403      324.413       96.915        0.191        0.047       53.414       11.545        0.047      338.382       10.995      863.764
05/31/2013  04:15:00      -30.465       -3.199        1.634       19.757        9.968        7.557      390.323       99.355       57.115        0.074        0.027       30.632        2.040        0.004      338.243       10.763      863.786
05/31/2013  04:16:00      -32.592       -8.089       -0.013        8.748        9.878        7.563       76.533       97.570       57.196        0.068        0.012       33.581        4.421        0.017      338.295       10.851      863.804
05/31/2013  04:17:00      -14.436      -27.238        0.942       15.084       18.110        9.986      227.539      327.985       99.729        0.080        0.033       30.827        6.400        0.043      338.224       10.730      863.812
05/31/2013  04:18:00      -19.888      -39.475        6.050       16.877       23.175       13.556      284.829      537.093      183.754        0.150        0.050       44.201        8.358        0.036      338.225       10.732      863.820
05/31/2013  04:19:00       -8.058      -16.631       10.487       17.139       26.565       11.340      293.733      705.705      128.607        0.079        0.056       18.480       12.778        0.478      338.218       10.720      863.832
05/31/2013  04:20:00      -17.543       12.698       -3.767       14.535       18.929        9.724      211.262      358.295       94.554        0.057        0.033       21.656        6.117        0.080      338.178       10.652      863.844
05/31/2013  04:21:00       -9.306      -19.472        0.588       16.247       16.325        7.668      263.952      266.507       58.802        0.053        0.029       21.582        7.935        0.135      338.189       10.671      863.840
05/31/2013  04:22:00      -76.491      -38.824       -2.219       28.983       18.644       14.475      840.005      347.614      209.527        0.438        0.070       85.780        7.022        0.007      338.176       10.651      863.837
05/31/2013  04:23:00      -83.256      -49.148        5.944       54.693       42.668       29.422     2991.339     1820.568      865.638        0.753        0.284       96.680       28.628        0.088      338.065       10.463      863.853
05/31/2013  04:24:00     -100.758      -54.171        2.009       52.007       33.661       26.470     2704.780     1133.048      700.658        0.881        0.227      114.397       25.404        0.049      338.031       10.405      863.873
05/31/2013  04:25:00     -109.037     -112.806       -9.290       46.051       47.886       29.269     2120.711     2293.023      856.687        1.498        0.264      156.889       27.227        0.030      337.991       10.340      863.885
05/31/2013  04:26:00     -100.259     -101.868      -10.492       36.078       32.600       22.553     1301.648     1062.738      508.631        1.171        0.144      142.930       16.554        0.013      337.970       10.304      863.901
05/31/2013  04:27:00      -84.982      -91.816       -7.985       32.096       40.536       19.778     1030.183     1643.150      391.173        0.939        0.153      125.108       12.674        0.010      337.987       10.332      863.905
05/31/2013  04:28:00     -121.764      -63.382       -1.833       47.894       31.455       26.129     2293.882      989.405      682.721        1.141        0.198      137.273       20.214        0.022      337.888       10.167      863.909
05/31/2013  04:29:00     -101.417      -50.240       -8.950       32.274       35.537       16.088     1041.579     1262.859      258.832        0.773        0.128      113.179       11.056        0.010      337.879       10.151      863.927
05/31/2013  04:30:00     -102.807      -45.645      -12.209       26.003       23.878       17.179      676.172      570.182      295.102        0.717        0.077      112.484        7.702        0.005      337.852       10.106      863.944
05/31/2013  04:31:00      -41.233      -58.101        7.536       45.103       27.117       26.801     2034.244      735.311      718.279        0.431        0.174       71.245       26.362        0.137      337.908       10.200      863.953
05/31/2013  04:32:00      -84.490      -52.623       -1.402       62.695       38.070       25.980     3930.673     1449.346      674.942        0.798        0.303       99.537       25.221        0.064      337.805       10.026      863.959
05/31/2013  04:33:00     -107.759      -84.387      -10.341       42.947       31.314       26.549     1844.430      980.552      704.838        1.118        0.176      136.869       22.669        0.027      337.797       10.014      863.972
05/31/2013  04:34:00     -119.357     -100.672      -10.066       32.219       32.487       21.399     1038.048     1055.409      457.915        1.352        0.128      156.144       16.225        0.011      337.749        9.934      863.983
05/31/2013  04:35:00     -113.353      -87.281      -13.347       23.540       23.563       19.177      554.109      555.212      367.771        1.106        0.074      143.063       14.762        0.011      337.775        9.978      864.005
05/31/2013  04:36:00     -113.201      -47.095       -9.177       30.828       30.139       20.461      950.382      908.343      418.651        0.870        0.114      122.606        5.763        0.002      337.733        9.907      864.020
05/31/2013  04:37:00      -52.199      -40.038        6.834       45.583       28.384       22.309     2077.808      805.641      497.694        0.388        0.169       65.785       19.445        0.087      337.693        9.841      864.033
05/31/2013  04:38:00      -81.458      -46.267       -0.181       48.316       40.352       28.926     2334.482     1628.275      836.739        0.679        0.240       93.680       22.111        0.056      337.611        9.701      864.043
05/31/2013  04:39:00      -89.865      -64.406       -1.068       64.394       34.077       33.450     4146.538     1161.235     1118.903        0.932        0.321      110.562       24.536        0.049      337.543        9.588      864.048
05/31/2013  04:40:00      -80.469      -58.519        5.764       60.320       41.736       23.497     3638.522     1741.862      552.131        0.793        0.297       99.497       23.742        0.057      337.513        9.538      864.068
05/31/2013  04:41:00     -131.021      -84.239        7.871       61.226       56.529       36.137     3748.607     3195.502     1305.847        1.629        0.412      155.765       41.592        0.071      337.448        9.428      864.083
05/31/2013  04:42:00     -144.044      -92.186      -15.227       40.035       34.683       26.316     1602.782     1202.892      692.512        1.649        0.175      171.017       21.572        0.016      337.489        9.498      864.085
05/31/2013  04:43:00     -140.984      -73.998        0.382       50.096       43.203       31.615     2509.625     1866.472      999.532        1.536        0.269      159.223       29.603        0.035      337.461        9.450      864.097
05/31/2013  04:44:00     -145.859      -79.831       -1.837       36.303       32.586       22.417     1317.932     1061.828      502.539        1.527        0.144      166.277       16.667        0.010      337.447        9.428      864.128
05/31/2013  04:45:00      -89.530      -75.262       -0.421       49.921       34.186       29.026     2492.107     1168.673      842.532        0.909        0.225      116.961       31.720        0.074      337.492        9.503      864.141
05/31/2013  04:46:00      -91.757      -51.333       -4.738       30.688       23.163       20.556      941.739      536.522      422.547        0.649        0.095      105.140       17.835        0.029      337.568        9.629      864.152
05/31/2013  04:47:00      -62.993      -40.661      -13.054       33.672       14.727       15.060     1133.783      216.877      226.793        0.368        0.079       74.976        7.369        0.010      337.637        9.744      864.158
05/31/2013  04:48:00     -100.061      -36.897       -4.475       21.427       29.575       13.671      459.118      874.663      186.905        0.646        0.076      106.647        8.654        0.007      337.596        9.678      864.164
05/31/2013  04:49:00      -85.639      -52.341        1.599       28.938       25.565       15.300      837.433      653.550      234.082        0.590        0.086      100.368       14.116        0.020      337.596        9.676      864.177
05/31/2013  04:50:00      -89.303      -39.054       -0.297       39.237       18.013       18.427     1539.508      324.473      339.569        0.585        0.110       97.469        6.123        0.004      337.599        9.682      864.197
05/31/2013  04:51:00      -98.545      -38.452       -6.949       19.006       23.084       14.594      361.239      532.884      212.994        0.617        0.055      105.782        6.337        0.004      337.596        9.676      864.211
05/31/2013  04:52:00      -85.546      -18.540       -4.178       20.983       19.472       12.364      440.296      379.152      152.870        0.433        0.049       87.533        9.480        0.012      337.543        9.587      864.229
05/31/2013  04:53:00      -88.479      -20.245       -2.891       24.589       17.794       15.643      604.609      316.612      244.695        0.471        0.058       90.766       14.857        0.027      337.498        9.514      864.246
05/31/2013  04:54:00      -77.493      -46.497        1.050       38.196       21.675       17.525     1458.932      469.793      307.126        0.520        0.112       90.372       17.028        0.036      337.541        9.584      864.248
05/31/2013  04:55:00      -20.046      -17.389       12.130       35.151       19.196       18.562     1235.579      368.477      344.551        0.140        0.097       26.537       20.271        0.583      337.468        9.461      864.250
05/31/2013  04:56:00      -81.201      -38.008       -2.080       30.971       18.124       13.220      959.210      328.490      174.778        0.475        0.073       89.656       14.045        0.025      337.490        9.498      864.264
05/31/2013  04:57:00      -62.529      -36.099        0.126       29.899       16.663       17.307      893.977      277.665      299.524        0.334        0.074       72.201       15.241        0.045      337.473        9.471      864.264
05/31/2013  04:58:00      -24.672      -21.952       13.873       32.229       22.521       16.697     1038.700      507.210      278.779        0.155        0.091       33.025       17.079        0.267      337.519        9.548      864.258
05/31/2013  04:59:00      -36.157      -37.068       -4.245       25.670       31.928       13.161      658.967     1019.403      173.215        0.228        0.093       51.782       13.314        0.066      337.585        9.658      864.256
05/31/2013  05:00:00      -82.122      -67.681       -7.177       25.970       23.681       19.745      674.457      560.767      389.863        0.650        0.081      106.418       12.830        0.015      337.661        9.786      864.262
05/31/2013  05:01:00      -40.845      -45.285        8.962       39.593       22.628       21.871     1567.582      512.017      478.352        0.318        0.128       60.984       21.348        0.123      337.612        9.703      864.260
05/31/2013  05:02:00      -45.090      -49.543        7.296       49.171       38.718       17.988     2417.826     1499.056      323.560        0.439        0.212       66.990       16.079        0.058      337.595        9.677      864.274
05/31/2013  05:03:00      -96.818      -68.419       -1.497       40.394       25.915       21.293     1631.715      671.568      453.371        0.841        0.138      118.554       22.679        0.037      337.553        9.604      864.294
05/31/2013  05:04:00      -35.449      -32.017       14.312       45.593       21.220       18.512     2078.763      450.285      342.687        0.268        0.144       47.767       26.186        0.301      337.492        9.502      864.299
05/31/2013  05:05:00      -63.658      -56.715        0.968       30.093       23.198       17.344      905.592      538.133      300.810        0.451        0.087       85.258       15.225        0.032      337.608        9.696      864.298
05/31/2013  05:06:00      -54.731      -51.567        1.719       37.051       24.656       17.779     1372.767      607.921      316.091        0.398        0.115       75.198       11.583        0.024      337.577        9.645      864.314
05/31/2013  05:07:00      -38.995      -32.154        6.333       38.035       24.727       21.222     1446.691      611.417      450.381        0.255        0.125       50.542       19.984        0.156      337.496        9.508      864.312
05/31/2013  05:08:00        5.507      -29.206       12.975       30.923       28.150       18.323      956.241      792.445      335.746        0.157        0.104       29.721       15.787        0.282      337.600        9.684      864.321
05/31/2013  05:09:00      -17.868      -34.995       12.304       36.116       26.124       18.813     1304.369      682.483      353.947        0.202        0.117       39.293       20.177        0.264      337.558        9.614      864.332
05/31/2013  05:10:00      -75.344      -68.517        3.258       39.153       39.584       21.796     1532.980     1566.894      475.051        0.698        0.179      101.839       18.300        0.032      337.491        9.501      864.348
05/31/2013  05:11:00      -43.275      -63.606       -6.440       35.249       43.962       29.628     1242.503     1932.701      877.798        0.501        0.203       76.931       17.608        0.052      337.531        9.569      864.364
05/31/2013  05:12:00      -45.283      -45.144        6.282       46.183       39.412       28.632     2132.848     1553.267      819.801        0.432        0.225       63.941       21.810        0.116      337.464        9.455      864.389
05/31/2013  05:13:00     -129.805      -97.456       -8.189       52.221       46.682       26.515     2727.062     2179.201      703.030        1.601        0.280      162.317       20.118        0.015      337.363        9.286      864.396
05/31/2013  05:14:00     -121.790     -124.704        1.286       55.678       54.232       33.203     3100.004     2941.065     1102.457        1.876        0.357      174.309       35.189        0.041      337.292        9.168      864.402
05/31/2013  05:15:00      -65.410     -103.558        1.992       61.453       43.413       28.058     3776.481     1884.725      787.257        1.073        0.322      122.485       20.961        0.029      337.305        9.189      864.400
05/31/2013  05:16:00      -38.929      -78.428       -9.877       44.416       47.576       30.144     1972.788     2263.479      908.674        0.645        0.257       87.558       25.134        0.082      337.331        9.234      864.391
05/31/2013  05:17:00      -69.273      -53.269        4.898       37.732       41.058       23.839     1423.726     1685.722      568.283        0.567        0.184       87.386       14.266        0.027      337.327        9.225      864.393
05/31/2013  05:18:00      -20.617      -35.748      -15.448       38.976       32.276       20.125     1519.136     1041.736      405.026        0.245        0.148       41.267       15.816        0.147      337.330        9.232      864.393
05/31/2013  05:19:00      -35.476      -10.485       -1.412       38.665       24.099       16.773     1494.969      580.766      281.339        0.186        0.118       36.993       16.181        0.191      337.363        9.286      864.391
05/31/2013  05:20:00      -67.683      -32.787        6.937       59.202       30.890       17.180     3504.877      954.178      295.137        0.523        0.238       75.206       11.904        0.025      337.364        9.287      864.388
05/31/2013  05:21:00     -103.483      -74.370        4.776       47.734       47.412       29.260     2278.559     2247.855      856.153        1.082        0.269      127.435       22.785        0.032      337.268        9.128      864.388
05/31/2013  05:22:00     -115.086      -89.166        1.410       56.216       44.171       25.983     3160.233     1951.075      675.126        1.349        0.289      145.586       27.001        0.034      337.272        9.133      864.410
05/31/2013  05:23:00      -59.821      -38.630        9.769       52.152       34.083       26.396     2719.796     1161.659      696.733        0.487        0.229       71.210       25.284        0.126      337.241        9.083      864.401
05/31/2013  05:24:00      -84.673      -54.855       -0.819       33.622       26.275       20.902     1130.443      690.380      436.911        0.622        0.113      100.889       16.801        0.028      337.313        9.202      864.392
05/31/2013  05:25:00      -67.136      -68.523        7.443       65.468       37.548       26.263     4286.067     1409.822      689.733        0.782        0.319       95.931       34.717        0.131      337.382        9.315      864.402
05/31/2013  05:26:00     -112.119      -96.792       -0.441       43.575       40.095       26.282     1898.804     1607.644      690.728        1.307        0.210      148.119       26.992        0.033      337.286        9.157      864.433
05/31/2013  05:27:00     -125.371      -70.386       -4.187       31.001       32.617       21.914      961.039     1063.836      480.239        1.160        0.125      143.778       17.326        0.015      337.312        9.202      864.450
05/31/2013  05:28:00     -105.755      -76.498       -3.032       41.234       23.525       19.356     1700.278      553.421      374.667        0.984        0.131      130.522       20.114        0.024      337.397        9.344      864.466
05/31/2013  05:29:00      -97.643      -92.180        3.950       63.576       42.092       30.127     4041.881     1771.732      907.652        1.238        0.336      134.280       30.024        0.050      337.296        9.173      864.482
05/31/2013  05:30:00     -128.803     -117.756       -1.643       58.835       36.606       32.194     3461.530     1339.982     1036.449        1.815        0.292      174.519       26.512        0.023      337.246        9.089      864.509
05/31/2013  05:31:00      -97.746      -68.402        5.440       67.092       46.340       38.884     4501.293     2147.400     1511.951        1.121        0.408      119.303       40.838        0.117      337.185        8.989      864.520
05/31/2013  05:32:00      -14.828      -65.199       18.268       64.577       49.252       35.232     4170.153     2425.807     1241.327        0.632        0.392       66.864       37.621        0.317      337.191        8.999      864.522
05/31/2013  05:33:00        7.856      -28.963       27.921       26.481       30.276       26.334      701.240      916.606      693.467        0.200        0.116       30.009       18.057        0.362      337.224        9.055      864.531
05/31/2013  05:34:00      -70.833      -30.540       11.243       70.265       54.617       40.801     4937.216     2982.963     1664.711        0.783        0.479       77.136       36.326        0.222      337.171        8.964      864.542
05/31/2013  05:35:00     -106.860      -75.603       10.457       64.490       67.275       38.748     4158.983     4525.875     1501.445        1.371        0.509      130.900       36.507        0.078      337.130        8.895      864.544
05/31/2013  05:36:00     -142.984      -98.413       -3.210       49.052       54.048       32.390     2406.069     2921.167     1049.108        1.826        0.319      173.578       22.609        0.017      337.047        8.755      864.555
05/31/2013  05:37:00     -119.746      -89.114        3.473       51.864       45.617       33.356     2689.890     2080.914     1112.621        1.409        0.294      149.266       29.886        0.040      337.086        8.820      864.574
05/31/2013  05:38:00     -105.593      -97.326        3.932       41.689       43.820       27.240     1737.973     1920.202      742.023        1.252        0.220      143.605       22.638        0.025      337.150        8.931      864.578
05/31/2013  05:39:00     -121.679      -80.708        7.369       57.363       35.302       33.132     3290.550     1246.236     1097.703        1.350        0.282      146.012       35.306        0.058      337.130        8.896      864.585
05/31/2013  05:40:00      -45.850      -40.036        5.448       46.405       37.777       22.692     2153.452     1427.115      514.913        0.391        0.205       60.870       17.344        0.081      337.119        8.878      864.595
05/31/2013  05:41:00     -106.047      -55.528        5.260       57.579       43.487       31.095     3315.361     1891.092      966.897        1.026        0.309      119.705       29.758        0.062      337.114        8.870      864.619
05/31/2013  05:42:00     -140.352      -92.825        1.668       67.428       52.771       33.242     4546.572     2784.786     1105.034        1.838        0.422      168.272       39.335        0.055      337.056        8.770      864.643
05/31/2013  05:43:00     -117.334      -84.494       -5.310       60.777       51.571       29.287     3693.825     2659.549      857.742        1.407        0.361      144.591       33.689        0.054      337.019        8.709      864.675
05/31/2013  05:44:00     -113.336      -53.520      -10.138       22.410       18.405       15.747      502.186      338.744      247.974        0.845        0.054      125.337       10.777        0.007      337.059        8.776      864.688
05/31/2013  05:45:00      -26.242      -24.994       10.816       49.085       21.065       21.101     2409.360      443.734      445.232        0.236        0.165       36.241       25.155        0.482      337.113        8.867      864.685
05/31/2013  05:46:00     -124.605      -42.068       -7.205       35.002       36.256       21.022     1225.141     1314.502      441.930        1.016        0.149      131.515       21.538        0.027      337.014        8.702      864.688
05/31/2013  05:47:00     -116.846      -30.559       -8.551       25.986       24.275       17.676      675.277      589.267      312.453        0.812        0.079      120.776       15.148        0.016      337.019        8.708      864.691
05/31/2013  05:48:00     -136.276      -32.377       -5.129       36.796       31.395       19.700     1353.932      985.676      388.078        1.119        0.136      140.070       18.060        0.017      336.956        8.605      864.696
05/31/2013  05:49:00     -104.653      -21.228       -3.288       39.421       31.230       21.625     1554.025      975.330      467.656        0.720        0.150      106.784       19.808        0.034      336.923        8.549      864.707
05/31/2013  05:50:00      -98.536        9.040       -0.875       43.936       33.095       28.775     1930.333     1095.266      827.976        0.682        0.193       98.950       24.774        0.063      336.823        8.383      864.714
05/31/2013  05:51:00     -136.994        5.174       -6.937       50.258       27.091       23.182     2525.891      733.947      537.402        1.132        0.190      137.092       24.844        0.033      336.776        8.307      864.716
05/31/2013  05:52:00     -112.157      -54.218        0.028       29.209       33.775       20.348      853.157     1140.746      414.034        0.896        0.120      124.574       16.167        0.017      336.880        8.479      864.705
05/31/2013  05:53:00      -81.209      -47.297        0.239       53.672       41.165       29.045     2880.664     1694.540      843.620        0.712        0.271       93.978       27.957        0.088      336.864        8.453      864.694
05/31/2013  05:54:00     -129.887      -49.823      -10.251       40.498       39.026       15.962     1640.054     1523.030      254.777        1.144        0.171      139.115       15.502        0.012      336.880        8.479      864.693
05/31/2013  05:55:00     -128.588      -56.057      -10.159       36.204       38.419       22.587     1310.714     1476.032      510.174        1.154        0.165      140.276       17.832        0.016      336.834        8.401      864.699
05/31/2013  05:56:00      -95.029      -97.384        1.671       49.484       40.773       29.851     2448.660     1662.426      891.070        1.176        0.250      136.067       26.248        0.037      336.855        8.436      864.710
05/31/2013  05:57:00     -140.579      -78.876      -14.724       40.928       35.392       30.297     1675.088     1252.606      917.903        1.502        0.192      161.195       22.594        0.020      336.858        8.443      864.721
05/31/2013  05:58:00      -97.851      -63.982        0.214       57.074       46.001       25.828     3257.427     2116.099      667.068        0.985        0.302      116.912       24.302        0.043      336.873        8.467      864.738
05/31/2013  05:59:00      -68.080      -31.661       -2.105       67.155       36.284       29.780     4509.838     1316.505      886.820        0.618        0.336       75.082       24.716        0.108      336.931        8.564      864.751
05/31/2013  06:00:00      -50.298      -17.490        0.175       48.212       32.704       26.564     2324.416     1069.548      705.655        0.347        0.205       53.252       22.643        0.181      336.906        8.521      864.754
05/31/2013  06:01:00      -39.175      -30.371        8.750       54.561       35.735       28.431     2976.892     1276.988      808.331        0.380        0.253       49.568       26.243        0.280      336.949        8.593      864.769
05/31/2013  06:02:00      -61.063      -42.915       -5.935       67.535       51.097       25.001     4560.974     2610.931      625.066        0.670        0.390       74.634       34.083        0.209      336.950        8.595      864.786
05/31/2013  06:03:00      -54.062      -43.782       -3.146       52.977       25.379       24.757     2806.559      644.095      612.924        0.446        0.203       69.568       25.452        0.134      337.017        8.706      864.812
05/31/2013  06:04:00      -60.511      -47.396        5.589       58.265       38.060       23.904     3394.798     1448.563      571.383        0.568        0.271       76.863       24.518        0.102      337.063        8.784      864.839
05/31/2013  06:05:00     -111.494      -27.519        2.776       48.050       27.212       21.718     2308.836      740.473      471.690        0.836        0.176      114.840       27.499        0.057      336.919        8.544      864.852
05/31/2013  06:06:00      -64.427      -47.757       -0.800       39.660       35.210       15.683     1572.906     1239.719      245.960        0.474        0.153       80.197       13.760        0.029      337.006        8.686      864.856
05/31/2013  06:07:00      -89.708      -78.935       -1.222       29.292       21.392       15.933      858.046      457.630      253.873        0.792        0.078      119.492       14.499        0.015      337.077        8.807      864.856
05/31/2013  06:08:00      -62.606      -46.959        1.385       34.297       35.551       24.337     1176.272     1263.893      592.302        0.458        0.152       78.260       23.121        0.087      337.074        8.801      864.866
05/31/2013  06:09:00      -81.418      -68.438       -1.389       30.227       30.125       16.420      913.674      907.512      269.624        0.670        0.105      106.361       11.500        0.012      337.077        8.805      864.888
05/31/2013  06:10:00      -84.082      -46.418        0.724       27.112       23.011       16.467      735.082      529.489      271.150        0.538        0.077       96.044       16.161        0.028      337.201        9.014      864.910
05/31/2013  06:11:00      -65.063      -45.678        0.387       42.991       29.222       26.206     1848.204      853.933      686.774        0.485        0.169       79.496       27.299        0.118      337.170        8.965      864.920
05/31/2013  06:12:00      -78.279      -60.689       -0.177       29.877       36.459       18.071      892.628     1329.243      326.558        0.618        0.127       99.049       17.285        0.030      337.117        8.875      864.929
05/31/2013  06:13:00      -75.627      -45.550       -1.970       43.433       23.887       17.997     1886.382      570.599      323.908        0.529        0.139       88.285       21.761        0.061      337.194        9.003      864.944
05/31/2013  06:14:00      -78.017      -73.807       -5.405       33.610       23.303       16.421     1129.605      543.049      269.661        0.675        0.097      107.397       13.400        0.016      337.214        9.037      864.952
05/31/2013  06:15:00      -74.659      -75.337       -1.869       29.332       20.386       17.188      860.386      415.591      295.441        0.641        0.079      106.064       17.011        0.026      337.233        9.068      864.951
05/31/2013  06:16:00      -76.496      -88.268       -6.887       27.373       18.267       22.660      749.255      333.690      513.493        0.764        0.080      116.803       18.816        0.026      337.228        9.060      864.956
05/31/2013  06:17:00      -69.765      -89.322      -15.208       29.535       23.232       20.072      872.333      539.710      402.872        0.745        0.091      113.338       16.962        0.022      337.224        9.055      864.967
05/31/2013  06:18:00      -92.350      -88.671      -11.956       34.780       37.386       25.793     1209.618     1397.740      665.280        0.990        0.164      128.027        8.815        0.005      337.196        9.006      864.957
05/31/2013  06:19:00     -111.427     -121.264      -11.541       35.924       25.429       24.381     1290.510      646.614      594.436        1.489        0.127      164.685       17.763        0.012      337.242        9.084      864.963
05/31/2013  06:20:00     -112.466     -112.805       -3.849       58.511       46.501       27.361     3423.572     2162.299      748.632        1.586        0.317      159.291       23.708        0.022      337.258        9.109      864.962
05/31/2013  06:21:00     -144.155     -112.187       -5.639       44.599       33.196       26.300     1989.070     1101.966      691.690        1.859        0.189      182.666       21.905        0.014      337.267        9.125      864.957
05/31/2013  06:22:00     -104.488      -82.915      -10.693       40.199       47.995       23.439     1615.986     2303.533      549.400        1.119        0.223      133.389       17.875        0.018      337.284        9.154      864.964
05/31/2013  06:23:00     -122.088     -105.993      -12.304       30.011       46.274       22.464      900.668     2141.252      504.630        1.492        0.177      161.679       14.151        0.008      337.303        9.187      864.976
05/31/2013  06:24:00     -111.879      -91.057       -6.581       52.777       47.489       27.183     2785.411     2255.181      738.915        1.331        0.289      144.251       28.244        0.038      337.301        9.182      864.974
05/31/2013  06:25:00     -129.337     -107.512       -4.693       59.914       39.367       35.522     3589.666     1549.753     1261.833        1.735        0.320      168.187       27.840        0.027      337.299        9.178      864.987
05/31/2013  06:26:00      -79.352      -85.870        2.721       52.143       45.578       29.668     2718.868     2077.373      880.186        0.968        0.284      116.920       29.382        0.063      337.387        9.325      864.999
05/31/2013  06:27:00     -129.535      -85.018       -8.281       39.639       32.716       24.116     1571.234     1070.326      581.577        1.365        0.161      154.944       25.315        0.027      337.424        9.388      865.002
05/31/2013  06:28:00     -109.999      -72.326       -2.761       50.846       38.507       29.893     2585.282     1482.761      893.620        1.115        0.248      131.647       24.578        0.035      337.444        9.423      865.012
05/31/2013  06:29:00     -124.897      -76.825       -6.875       42.193       33.457       22.758     1780.254     1119.394      517.906        1.248        0.171      146.634       18.166        0.015      337.415        9.374      865.012
05/31/2013  06:30:00      -81.835      -48.307        1.016       31.003       29.174       17.525      961.168      851.102      307.126        0.558        0.106       95.030       16.002        0.028      337.492        9.503      865.020
05/31/2013  06:31:00      -78.436      -60.142        2.207       50.565       27.733       21.120     2556.816      769.141      446.041        0.677        0.189       98.840       19.094        0.037      337.473        9.470      865.037
05/31/2013  06:32:00      -53.384      -48.054        5.526       48.547       26.218       18.664     2356.859      687.370      348.329        0.429        0.170       71.826       19.187        0.071      337.504        9.524      865.061
05/31/2013  06:33:00      -47.497      -59.814        2.708       42.612       45.601       29.444     1815.777     2079.429      866.973        0.530        0.238       76.379       26.336        0.119      337.522        9.553      865.087
05/31/2013  06:34:00      -79.975      -84.908       -9.113       31.432       34.319       21.807      987.963     1177.790      475.558        0.816        0.132      116.642       19.089        0.027      337.450        9.432      865.088
05/31/2013  06:35:00      -83.023     -102.762       -4.379       42.735       43.216       32.670     1826.268     1867.651     1067.353        1.112        0.238      132.109       30.356        0.053      337.481        9.483      865.094
05/31/2013  06:36:00      -75.985      -86.694       -1.250       44.921       31.178       27.194     2017.881      972.037      739.500        0.851        0.186      115.281       30.895        0.072      337.485        9.490      865.097
05/31/2013  06:37:00     -124.944     -110.708      -16.132       34.132       29.015       14.548     1165.000      841.856      211.650        1.517        0.111      166.934       12.162        0.005      337.434        9.404      865.098
05/31/2013  06:38:00     -105.510     -120.543      -11.641       46.441       37.834       27.414     2156.789     1431.431      751.509        1.507        0.217      160.196       18.568        0.013      337.476        9.476      865.112
05/31/2013  06:39:00     -106.832      -83.226       -2.324       40.206       50.627       24.589     1616.504     2563.074      604.615        1.156        0.239      135.424       28.098        0.043      337.477        9.478      865.122
05/31/2013  06:40:00     -119.657     -115.110       -5.695       42.275       48.107       24.173     1787.137     2314.250      584.344        1.614        0.234      166.036       25.668        0.024      337.522        9.551      865.127
05/31/2013  06:41:00     -138.443     -115.605      -10.934       49.450       47.748       26.956     2445.287     2279.886      726.628        1.905        0.273      180.363       30.611        0.029      337.446        9.424      865.124
05/31/2013  06:42:00     -131.274     -104.189       -9.826       42.162       36.528       25.830     1777.610     1334.274      667.208        1.598        0.189      167.595       25.770        0.024      337.498        9.513      865.126
05/31/2013  06:43:00     -135.546     -109.878       -7.971       29.777       46.342       24.315      886.645     2147.603      591.237        1.707        0.181      174.488       23.790        0.019      337.543        9.587      865.123
05/31/2013  06:44:00     -129.757     -135.408       -9.921       57.139       43.777       28.336     3264.873     1916.438      802.913        2.063        0.299      187.543       19.867        0.011      337.545        9.588      865.119
05/31/2013  06:45:00      -97.124      -80.470       -0.864       35.950       47.415       26.566     1292.408     2248.145      705.744        1.008        0.212      126.129       23.741        0.035      337.608        9.697      865.122
05/31/2013  06:46:00      -81.620      -80.507       -3.745       42.495       41.168       22.495     1805.830     1694.830      506.005        0.858        0.200      114.644       20.833        0.033      337.655        9.776      865.131
05/31/2013  06:47:00      -95.903      -97.997      -10.782       43.337       37.343       20.322     1878.099     1394.511      412.999        1.130        0.184      137.116       18.648        0.018      337.623        9.721      865.135
05/31/2013  06:48:00     -106.177     -105.276       -2.803       46.709       41.409       26.999     2181.766     1714.721      728.963        1.349        0.231      149.521       27.964        0.035      337.634        9.741      865.152
05/31/2013  06:49:00      -92.793      -89.159        2.122       51.069       42.790       24.400     2608.035     1830.979      595.342        1.080        0.252      128.685       22.231        0.030      337.678        9.814      865.164
05/31/2013  06:50:00      -87.947      -84.862       -3.945       45.199       38.132       29.764     2042.943     1454.026      885.879        0.967        0.219      122.214       20.098        0.027      337.646        9.762      865.184
05/31/2013  06:51:00      -99.952      -94.693       -4.070       50.273       32.200       35.656     2527.418     1036.850     1271.362        1.190        0.242      137.685       29.753        0.047      337.675        9.811      865.196
05/31/2013  06:52:00     -130.436     -108.380      -11.671       40.456       34.992       28.115     1636.682     1224.408      790.474        1.627        0.183      169.587       17.285        0.010      337.679        9.815      865.228
05/31/2013  06:53:00     -105.951     -106.251       -9.207       25.341       27.654       24.114      642.189      764.753      581.473        1.229        0.099      150.050       12.688        0.007      337.708        9.866      865.232
05/31/2013  06:54:00     -131.472     -122.168      -16.524       28.599       29.899       18.496      817.876      893.946      342.107        1.727        0.103      179.471       13.708        0.006      337.722        9.889      865.257
05/31/2013  06:55:00      -83.475      -81.915       -0.653       39.515       35.639       29.248     1561.451     1270.130      855.454        0.868        0.184      116.954       29.412        0.063      337.769        9.967      865.265
05/31/2013  06:56:00      -58.227      -93.453       -5.854       37.047       34.032       18.465     1372.477     1158.193      340.974        0.751        0.144      110.109       16.824        0.023      337.805       10.028      865.279
05/31/2013  06:57:00      -31.849      -46.998        6.947       27.302       26.292       20.227      745.392      691.293      409.151        0.256        0.092       56.773       13.851        0.060      337.936       10.247      865.283
05/31/2013  06:58:00      -55.316      -89.423       -4.814       29.022       36.575       18.593      842.274     1337.756      345.711        0.680        0.126      105.149       19.824        0.036      337.924       10.227      865.290
05/31/2013  06:59:00      -25.537      -74.861       -0.002       24.041       31.347       17.554      577.994      982.612      308.133        0.406        0.093       79.097       14.390        0.033      337.950       10.271      865.299
05/31/2013  07:00:00      -13.939      -40.684       14.604       24.344       24.290       23.683      592.641      590.020      560.879        0.190        0.087       43.006       18.837        0.192      338.159       10.622      865.298
05/31/2013  07:01:00      -42.182      -66.729        2.958       36.354       37.760       18.636     1321.602     1425.803      347.303        0.467        0.155       78.943       18.083        0.052      338.086       10.499      865.311
05/31/2013  07:02:00      -37.502      -54.115        1.498       32.200       25.070       22.289     1036.860      628.496      496.817        0.325        0.108       65.839       20.515        0.097      338.183       10.661      865.313
05/31/2013  07:03:00      -65.410      -76.868       -3.151       45.467       16.906       28.006     2067.228      285.797      784.327        0.667        0.157      100.931       27.728        0.075      338.088       10.502      865.328
05/31/2013  07:04:00      -30.429      -71.292        3.382       22.472       25.125       23.194      505.001      631.253      537.940        0.385        0.084       77.514       23.601        0.093      338.058       10.453      865.331
05/31/2013  07:05:00      -25.293      -86.273        0.518       12.932       13.566       10.533      167.230      184.044      110.953        0.427        0.023       89.904        4.575        0.003      338.084       10.495      865.343
05/31/2013  07:06:00      -41.164      -68.616       -1.685       20.085       14.942       12.053      403.408      223.265      145.286        0.359        0.039       80.016        9.463        0.014      338.133       10.577      865.348
05/31/2013  07:07:00      -44.538      -30.563        1.773       30.435       16.957       11.276      926.305      287.548      127.153        0.213        0.067       54.016       13.076        0.059      338.212       10.710      865.352
05/31/2013  07:08:00      -26.144      -39.423       -1.943       14.347       16.948       12.022      205.840      287.238      144.534        0.144        0.032       47.304        9.039        0.037      338.250       10.774      865.344
05/31/2013  07:09:00      -36.918      -42.733        1.318       12.440       18.814        9.141      154.760      353.961       83.564        0.189        0.030       56.472        6.531        0.013      338.246       10.768      865.342
05/31/2013  07:10:00       -9.510      -20.549        1.189       11.377       23.104       16.138      129.439      533.803      260.445        0.072        0.046       22.643       14.338        0.401      338.705       11.538      865.350
05/31/2013  07:11:00       -8.737       -9.720       19.985       16.326       15.261       12.436      266.532      232.900      154.655        0.061        0.033       13.070        7.191        0.303      338.998       12.031      865.351
05/31/2013  07:12:00      -10.036      -11.598        4.539        8.441        8.977       12.812       71.255       80.587      164.149        0.029        0.016       15.337        6.100        0.158      338.673       11.486      865.367
05/31/2013  07:13:00      -17.048        6.992        2.351        9.692       12.274       16.194       93.935      150.655      262.233        0.043        0.025       18.426        6.352        0.119      338.872       11.820      865.369
05/31/2013  07:14:00      -18.766        4.526       -2.824        8.916        8.824       10.185       79.495       77.859      103.742        0.032        0.013       19.304        5.516        0.082      338.762       11.635      865.372
05/31/2013  07:15:00      -22.961       -0.444       -3.837        7.578        8.590        9.389       57.429       73.781       88.145        0.038        0.011       22.965        7.183        0.098      338.641       11.431      865.368
05/31/2013  07:16:00      -13.211       -3.058       -3.592        6.902        5.398        5.428       47.635       29.138       29.465        0.015        0.005       13.560        4.328        0.102      338.757       11.627      865.360
05/31/2013  07:17:00      -21.211       -0.809        3.041        7.876        5.447        5.964       62.030       29.672       35.564        0.029        0.006       21.226        1.934        0.008      338.726       11.574      865.361
05/31/2013  07:18:00      -13.103      -10.497        5.793       11.858       11.211       15.283      140.614      125.682      233.571        0.041        0.025       16.790        6.159        0.135      339.189       12.353      865.362
05/31/2013  07:19:00      -25.646      -17.279        1.143        8.987       10.007        8.610       80.770      100.132       74.126        0.061        0.013       30.924        5.582        0.033      338.739       11.596      865.372
05/31/2013  07:20:00      -18.455      -22.740        5.470        6.263        5.230        7.569       39.229       27.349       57.286        0.051        0.006       29.287        3.907        0.018      338.681       11.497      865.392
05/31/2013  07:21:00      -26.043       -9.453        8.446       20.248       12.584       15.994      409.993      158.354      255.822        0.083        0.041       27.705       15.960        0.332      339.133       12.258      865.415
05/31/2013  07:22:00        1.419       18.716       24.133       15.293       22.294       14.109      233.874      497.032      199.059        0.093        0.046       18.770       11.719        0.390      339.705       13.221      865.430
05/31/2013  07:23:00       43.244       35.397       25.327       24.174       18.892       17.973      584.369      356.925      323.030        0.251        0.063       55.884       13.060        0.055      339.195       12.362      865.442
05/31/2013  07:24:00       24.791       29.176       24.713       18.934       14.701       15.607      358.507      216.131      243.578        0.145        0.041       38.287        9.015        0.055      339.093       12.189      865.450
05/31/2013  07:25:00        9.758       38.939        4.104       22.214       15.314       12.153      493.458      234.507      147.694        0.125        0.044       40.143        2.823        0.005      338.960       11.965      865.451
05/31/2013  07:26:00       -4.713       -2.867       18.669       12.744       15.270        9.607      162.421      233.176       92.292        0.043        0.024        5.516        6.778        1.510      339.685       13.188      865.456
05/31/2013  07:27:00        7.449       13.456       27.995       24.076       17.333       20.430      579.644      300.440      417.386        0.116        0.065       15.380       13.435        0.763      339.850       13.466      865.464
05/31/2013  07:28:00        8.918       30.762       38.073       18.848       16.184       13.905      355.244      261.931      193.345        0.164        0.041       32.029       11.861        0.137      339.578       13.008      865.470
05/31/2013  07:29:00        0.638       25.035       23.975        8.587       20.745       18.583       73.734      430.373      345.324        0.103        0.042       25.043       15.137        0.365      339.566       12.988      865.479
05/31/2013  07:30:00        4.125        9.910       15.954        8.382       12.846       13.464       70.258      165.021      181.274        0.039        0.021       10.734       11.517        1.151      339.713       13.237      865.480
05/31/2013  07:31:00       -4.359        8.028       43.725       10.298       16.727       13.174      106.055      279.787      173.549        0.128        0.028        9.135        6.453        0.499      340.471       14.515      865.474
05/31/2013  07:32:00       -8.034       -5.960       25.422        6.947       14.105       16.777       48.262      198.958      281.455        0.064        0.026       10.004       10.029        1.005      340.431       14.450      865.468
05/31/2013  07:33:00      -17.458       -2.484       13.263       14.230       13.799       15.345      202.486      190.413      235.461        0.056        0.031       17.634        9.075        0.265      339.789       13.365      865.465
05/31/2013  07:34:00      -24.182       -5.404       -0.820       13.699        8.641       10.311      187.669       74.665      106.307        0.049        0.018       24.778        9.436        0.145      339.380       12.674      865.455
05/31/2013  07:35:00      -36.735      -15.721        0.855        8.854        8.938        6.813       78.388       79.885       46.413        0.090        0.010       39.957        3.046        0.006      339.179       12.335      865.447
05/31/2013  07:36:00      -41.040      -12.152       -3.152       11.327        7.503        6.286      128.305       56.298       39.519        0.103        0.011       42.801        4.616        0.012      339.173       12.326      865.446
05/31/2013  07:37:00      -32.739       -1.730        8.356       18.978       15.610       15.483      360.155      243.674      239.714        0.099        0.042       32.785       14.467        0.195      339.628       13.092      865.455
05/31/2013  07:38:00      -34.896        3.347        6.002       23.979       14.996       13.631      575.012      224.875      185.800        0.113        0.049       35.056        9.597        0.075      339.667       13.158      865.461
05/31/2013  07:39:00      -42.271      -42.384        2.751       20.889       29.088       18.245      436.352      846.128      332.868        0.260        0.081       59.860       14.291        0.057      339.329       12.587      865.470
05/31/2013  07:40:00      -27.846      -24.424        7.658       25.015       21.519       18.036      625.755      463.053      325.280        0.142        0.071       37.039       18.933        0.261      339.650       13.129      865.474
05/31/2013  07:41:00      -52.340      -39.297        7.430       23.614       30.952       12.684      557.626      958.029      160.892        0.301        0.084       65.450       10.748        0.027      339.287       12.516      865.486
05/31/2013  07:42:00      -30.460      -43.553        7.327       20.850       23.099       14.846      434.713      533.582      220.392        0.203        0.059       53.148       17.261        0.105      339.450       12.792      865.487
05/31/2013  07:43:00      -55.398      -67.783       -2.707       19.752       15.512       15.168      390.140      240.624      230.057        0.427        0.043       87.542       11.447        0.017      339.204       12.380      865.493
05/31/2013  07:44:00      -48.287      -49.091        4.205       36.611       20.384       17.749     1340.366      415.511      315.014        0.341        0.104       68.860       21.460        0.097      339.377       12.668      865.489
05/31/2013  07:45:00      -74.039      -40.962       -5.217       18.843       15.663       11.857      355.058      245.325      140.591        0.396        0.037       84.615        3.240        0.001      339.301       12.541      865.496
05/31/2013  07:46:00      -46.939      -47.229        3.423       26.189       19.435       16.059      685.843      377.728      257.905        0.288        0.066       66.587       16.245        0.060      339.407       12.718      865.500
05/31/2013  07:47:00      -24.285      -48.298        2.430       20.327       13.915       12.338      413.194      193.620      152.234        0.184        0.038       54.060        8.659        0.026      339.363       12.644      865.513
05/31/2013  07:48:00      -53.808      -35.684       -1.589       21.182       13.026       10.666      448.698      169.679      113.756        0.245        0.037       64.565        6.236        0.009      339.410       12.724      865.522
05/31/2013  07:49:00      -45.245      -54.689       -7.881       13.921       15.142        8.652      193.781      229.269       74.864        0.280        0.025       70.979        6.292        0.008      339.346       12.615      865.540
05/31/2013  07:50:00      -23.350      -43.228       -6.101       15.697       17.271       11.680      246.409      298.302      136.422        0.157        0.034       49.131        4.797        0.010      339.404       12.711      865.544
05/31/2013  07:51:00      -20.381      -32.577       -6.488       12.711       12.968       13.963      161.572      168.161      194.973        0.102        0.026       38.427        8.887        0.053      339.462       12.811      865.548
05/31/2013  07:52:00      -44.535      -19.062       -3.590       20.723       28.748       22.548      429.427      826.461      508.395        0.206        0.088       48.443       15.498        0.102      339.531       12.928      865.546
05/31/2013  07:53:00      -61.920       13.489       -4.604       24.652       16.998       10.552      607.699      288.933      111.354        0.252        0.050       63.372        5.933        0.009      339.605       13.055      865.543
05/31/2013  07:54:00      -36.785       10.789      -10.243       16.407       22.507       14.213      269.175      506.572      202.010        0.128        0.049       38.335       10.827        0.080      339.494       12.865      865.541
05/31/2013  07:55:00      -18.757      -32.948       -3.270       15.448       16.513       12.875      238.634      272.686      165.764        0.106        0.034       37.913        8.012        0.045      339.540       12.944      865.548
05/31/2013  07:56:00      -55.262      -17.470       -3.376       17.170       15.746       14.274      294.793      247.941      203.743        0.206        0.037       57.958       11.181        0.037      339.514       12.897      865.545
05/31/2013  07:57:00      -53.285       -3.372        0.616       14.406       13.241       12.422      207.527      175.326      154.314        0.169        0.027       53.392        9.297        0.030      339.517       12.903      865.536
05/31/2013  07:58:00      -38.811      -10.274        3.683       13.982        8.531        8.089      195.483       72.786       65.439        0.098        0.017       40.148        4.949        0.015      339.689       13.194      865.540
05/31/2013  07:59:00       12.655       12.421       38.295       23.622       22.534       14.836      558.008      507.774      220.115        0.153        0.064       17.733       11.997        0.458      341.012       15.431      865.536
05/31/2013  08:00:00       64.321       25.734       13.332       48.853       39.998       29.371     2386.583     1599.805      862.635        0.491        0.242       69.278       28.071        0.164      340.138       13.953      865.548
05/31/2013  08:01:00       27.286       43.483       32.548       28.408       32.563       20.780      806.990     1060.371      431.829        0.300        0.115       51.335       15.072        0.086      340.276       14.185      865.559
05/31/2013  08:02:00       93.422       63.215        7.685       31.622       25.541       34.395      999.924      652.325     1182.989        0.781        0.142      112.800       20.511        0.033      340.000       13.719      865.569
05/31/2013  08:03:00       74.586       74.745       -5.480       33.882       46.641       33.379     1148.003     2175.416     1114.148        0.781        0.222      105.593       20.634        0.038      340.015       13.745      865.584
05/31/2013  08:04:00       59.983       75.892        6.548       44.469       40.506       57.749     1977.516     1640.760     3334.967        0.818        0.348       96.734       44.235        0.209      340.207       14.069      865.590
05/31/2013  08:05:00      -12.898       43.139       45.422       25.991       31.244       29.044      675.536      976.174      843.537        0.329        0.125       45.026       17.739        0.155      340.414       14.419      865.597
05/31/2013  08:06:00       23.157       43.722       17.558       28.364       38.744       30.864      804.543     1501.111      952.593        0.301        0.163       49.476       30.287        0.375      340.300       14.226      865.613
05/31/2013  08:07:00       -0.464      110.795       -3.353       21.271       37.765       28.038      452.458     1426.215      786.111        0.748        0.133      110.796       23.701        0.046      340.334       14.285      865.624
05/31/2013  08:08:00       -9.536       30.918       14.774       16.011       32.325       21.826      256.361     1044.904      476.392        0.152        0.089       32.355       19.410        0.360      340.780       15.038      865.630
05/31/2013  08:09:00       -2.839        5.905       21.689       18.951       13.747       15.481      359.125      188.990      239.668        0.065        0.039        6.552        8.128        1.539      340.661       14.837      865.629
05/31/2013  08:10:00       43.530       25.880       31.432       46.263       32.930       26.922     2140.242     1084.418      724.791        0.375        0.197       50.642       14.129        0.078      340.672       14.855      865.625
05/31/2013  08:11:00       72.842       73.422       13.412       49.479       50.768       33.051     2448.216     2577.347     1092.386        0.850        0.306      103.425       30.252        0.086      340.220       14.091      865.620
05/31/2013  08:12:00       49.361       43.753       43.258       33.562       41.010       25.172     1126.379     1681.780      633.654        0.483        0.172       65.961       10.360        0.025      340.585       14.708      865.621
05/31/2013  08:13:00       38.594       23.342       53.785       44.213       49.997       33.641     1954.827     2499.706     1131.715        0.526        0.279       45.104       35.732        0.628      340.695       14.894      865.629
05/31/2013  08:14:00       35.576      -36.760       12.212       25.363       46.614       29.225      643.265     2172.868      854.093        0.322        0.184       51.156       19.461        0.145      340.298       14.222      865.635
05/31/2013  08:15:00       35.137      -10.718       36.554       31.649       45.448       24.763     1001.638     2065.547      613.186        0.318        0.184       36.735       28.329        0.595      340.645       14.809      865.639
05/31/2013  08:16:00       32.452       51.108       44.326       25.936       34.265       29.433      672.679     1174.069      866.330        0.417        0.136       60.541       22.674        0.140      340.380       14.360      865.656
05/31/2013  08:17:00       81.958       86.867       52.317       43.043       32.492       44.089     1852.706     1055.718     1943.805        1.093        0.243      119.428       37.134        0.097      340.319       14.257      865.667
05/31/2013  08:18:00       71.322       63.399       19.114       51.128       29.704       41.519     2614.080      882.340     1723.817        0.735        0.261       95.426       35.240        0.136      340.517       14.592      865.682
05/31/2013  08:19:00       66.979       68.707       -5.910       28.062       39.388       20.797      787.494     1551.394      432.495        0.601        0.139       95.952       15.133        0.025      340.287       14.203      865.692
05/31/2013  08:20:00      102.074       84.920       48.877       39.825       32.648       50.192     1585.993     1065.900     2519.206        1.259        0.259      132.780       30.106        0.051      340.422       14.431      865.694
05/31/2013  08:21:00       46.389       59.636       58.275       54.140       48.045       51.404     2931.103     2308.313     2642.362        0.849        0.394       75.554       38.830        0.264      340.605       14.742      865.694
05/31/2013  08:22:00        5.059       16.718       27.949       26.391       29.596       44.075      696.510      875.946     1942.650        0.230        0.176       17.467       29.927        2.936      341.165       15.691      865.698
05/31/2013  08:23:00        7.999      -13.389       33.938       26.440       54.523       25.366      699.067     2972.756      643.454        0.285        0.216       15.597       24.465        2.460      340.885       15.215      865.692
05/31/2013  08:24:00       55.127       53.907       31.762       41.893       28.001       44.888     1754.985      784.032     2014.970        0.575        0.228       77.103       17.004        0.049      340.528       14.610      865.682
05/31/2013  08:25:00        1.744       -0.384       23.105       24.715       55.048       22.024      610.856     3030.271      485.044        0.233        0.206        1.785       12.715       50.715      340.930       15.291      865.687
05/31/2013  08:26:00       37.897       25.650       59.651       45.306       56.484       41.778     2052.665     3190.452     1745.436        0.632        0.349       45.762       39.892        0.760      340.891       15.224      865.692
05/31/2013  08:27:00       78.559       56.550       52.898       66.090       48.662       42.375     4367.836     2367.981     1795.677        1.035        0.427       96.796       43.472        0.202      340.846       15.149      865.687
05/31/2013  08:28:00      108.039       67.685       32.127       65.165       45.440       46.793     4246.454     2064.802     2189.565        1.289        0.425      127.490       29.261        0.053      341.113       15.600      865.697
05/31/2013  08:29:00      115.341       85.213       20.972       53.082       48.321       53.304     2817.701     2334.887     2841.297        1.450        0.400      143.404        8.816        0.004      340.770       15.020      865.716
05/31/2013  08:30:00       81.923       46.813       19.320       52.572       39.813       36.048     2763.840     1585.101     1299.461        0.746        0.282       94.355       22.194        0.055      340.893       15.227      865.724
05/31/2013  08:31:00      119.683       73.229       20.357       70.302       48.320       39.898     4942.438     2334.856     1591.887        1.448        0.443      140.309       30.647        0.048      340.755       14.993      865.734
05/31/2013  08:32:00       28.561       58.626       57.607       56.193       54.927       35.070     3157.630     3017.023     1229.892        0.749        0.370       65.213       24.944        0.146      341.170       15.696      865.742
05/31/2013  08:33:00       42.758       24.500       45.216       40.763       40.991       45.782     1661.589     1680.247     2095.975        0.495        0.272       49.280       34.255        0.483      341.216       15.774      865.761
05/31/2013  08:34:00       58.730       42.349       43.580       48.211       40.870       30.869     2324.294     1670.346      952.908        0.604        0.247       72.406       27.762        0.147      340.966       15.353      865.756
05/31/2013  08:35:00       66.582       22.012       55.671       41.381       60.791       40.877     1712.399     3695.590     1670.928        0.755        0.354       70.126       24.281        0.120      340.958       15.340      865.754
05/31/2013  08:36:00       57.186       89.928       84.909       66.202       76.567       52.806     4382.647     5862.566     2788.478        1.580        0.652      106.570       49.238        0.213      341.040       15.474      865.744
05/31/2013  08:37:00      122.181      112.054       85.776       58.772       46.742       47.586     3454.165     2184.773     2264.389        2.137        0.395      165.784       37.661        0.052      340.591       14.717      865.747
05/31/2013  08:38:00      121.966       94.789       37.028       59.458       39.461       48.554     3535.304     1557.156     2357.481        1.634        0.372      154.469       20.178        0.017      340.941       15.309      865.743
05/31/2013  08:39:00      137.652       99.868        8.819       62.753       46.293       41.541     3937.952     2143.015     1725.674        1.840        0.390      170.063       22.052        0.017      340.889       15.220      865.741
05/31/2013  08:40:00       24.051       70.681       13.299       48.680       70.100       30.135     2369.758     4913.953      908.105        0.697        0.410       74.660       33.092        0.196      341.313       15.941      865.750
05/31/2013  08:41:00       48.287      123.924       -4.514       51.206       64.309       53.262     2622.081     4135.608     2836.841        1.365        0.480      132.999       40.324        0.092      341.018       15.440      865.749
05/31/2013  08:42:00       61.624       51.892        9.893       47.076       34.335       28.833     2216.158     1178.885      831.350        0.541        0.211       80.563       19.691        0.060      341.104       15.586      865.748
05/31/2013  08:43:00       28.801       24.216       35.586       37.831       48.247       22.016     1431.204     2327.766      484.690        0.346        0.212       37.629       11.919        0.100      341.707       16.607      865.748
05/31/2013  08:44:00       71.721       50.202       66.929       78.931       89.866       60.843     6230.043     8075.923     3701.896        1.507        0.900       87.545       64.729        0.547      341.195       15.739      865.746
05/31/2013  08:45:00       93.960       92.923       92.577       74.559       67.675       46.191     5558.975     4579.953     2133.584        1.915        0.614      132.148       41.581        0.099      340.919       15.270      865.754
05/31/2013  08:46:00       94.272      110.991       91.023       73.507       50.639       50.758     5403.302     2564.311     2576.414        2.002        0.527      145.623       41.085        0.080      340.971       15.360      865.760
05/31/2013  08:47:00      156.534      101.939       32.687       52.103       40.512       40.261     2714.677     1641.243     1620.954        2.097        0.299      186.801       22.433        0.014      340.787       15.047      865.773
05/31/2013  08:48:00      125.808       74.067       54.672       57.590       53.547       37.766     3316.596     2867.312     1426.262        1.596        0.381      145.992       32.054        0.048      340.958       15.338      865.779
05/31/2013  08:49:00       94.545       86.760      124.906       93.828       89.137       57.683     8803.686     7945.353     3327.343        2.607        1.004      128.320       64.121        0.250      341.025       15.451      865.766
05/31/2013  08:50:00      148.129       61.486      122.775       81.074       59.289       59.985     6572.976     3515.153     3598.260        2.724        0.684      160.383       48.473        0.091      340.954       15.327      865.762
05/31/2013  08:51:00      100.271       21.198       59.561       73.023       42.760       48.623     5332.323     1828.403     2364.159        1.179        0.476      102.487       39.098        0.146      341.006       15.421      865.757
05/31/2013  08:52:00       -8.546       17.347       64.582       20.842       59.130       39.592      434.399     3496.408     1567.549        0.502        0.275       19.338       41.603        4.628      341.637       16.489      865.732
05/31/2013  08:53:00       23.437       59.257       75.416       51.314       49.791       35.631     2633.172     2479.110     1269.553        0.806        0.319       63.724       28.386        0.198      341.506       16.265      865.721
05/31/2013  08:54:00       62.488       71.901       39.565       53.655       48.736       51.868     2878.840     2375.244     2690.283        0.929        0.397       95.261       20.633        0.047      341.322       15.954      865.718
05/31/2013  08:55:00       98.211       50.168       30.401       59.365       75.982       59.664     3524.206     5773.223     3559.836        1.297        0.643      110.282       38.340        0.121      341.519       16.287      865.708
05/31/2013  08:56:00       86.363      119.894      103.994       85.254       61.029       64.940     7268.237     3724.575     4217.179        2.393        0.760      147.760       57.604        0.152      341.258       15.843      865.715
05/31/2013  08:57:00       19.531      107.451      120.002       57.532       49.162       38.325     3309.887     2416.874     1468.814        1.676        0.360      109.212       31.564        0.084      341.287       15.895      865.716
05/31/2013  08:58:00       81.350       50.992       25.030       71.894       48.223       50.071     5168.709     2325.465     2507.122        0.992        0.500       96.010       38.501        0.161      341.142       15.650      865.723
05/31/2013  08:59:00      116.122       51.203        8.329       46.237       42.685       33.604     2137.881     1822.036     1129.250        1.063        0.254      126.910       11.672        0.008      341.358       16.016      865.716
05/31/2013  09:00:00       69.028       58.784       16.014       56.647       44.903       36.838     3208.939     2016.278     1357.043        0.753        0.329       90.667       26.838        0.088      341.761       16.699      865.715
05/31/2013  09:01:00       79.725      107.022       -5.633       53.219       56.949       40.674     2832.267     3243.137     1654.343        1.278        0.386      133.453       35.755        0.072      341.502       16.260      865.696
05/31/2013  09:02:00       56.564      101.399      -10.078       52.219       61.761       42.587     2726.777     3814.409     1813.619        1.097        0.418      116.109       35.129        0.092      341.548       16.336      865.690
05/31/2013  09:03:00       53.467       82.853       -6.570       69.278       62.919       44.301     4799.395     3958.783     1962.544        1.024        0.536       98.607       34.078        0.119      341.846       16.842      865.677
05/31/2013  09:04:00       96.251       84.210       18.242       69.776       54.188       47.389     4868.732     2936.321     2245.698        1.337        0.503      127.889       29.657        0.054      341.700       16.595      865.663
05/31/2013  09:05:00       48.928       79.214        7.389       76.390       48.842       37.450     5835.434     2385.544     1402.484        0.917        0.481       93.107       31.112        0.112      341.389       16.067      865.664
05/31/2013  09:06:00       62.871       58.528       15.132       53.815       39.054       36.739     2896.070     1525.193     1349.745        0.669        0.289       85.897       28.978        0.114      341.657       16.522      865.659
05/31/2013  09:07:00       52.007       37.543       11.205       40.156       35.571       36.560     1612.520     1265.279     1336.667        0.423        0.211       64.142       27.077        0.178      341.810       16.781      865.652
05/31/2013  09:08:00       37.295       96.005        0.608       58.681       75.069       29.320     3443.410     5635.351      859.664        1.027        0.497      102.994       32.928        0.102      341.475       16.215      865.642
05/31/2013  09:09:00      -36.275       75.402       12.206       30.113       47.989       34.103      906.819     2302.964     1163.036        0.576        0.219       83.674       27.718        0.110      341.723       16.635      865.640
05/31/2013  09:10:00       33.556       32.831       19.443       55.301       41.986       28.396     3058.161     1762.794      806.333        0.410        0.281       46.945       24.072        0.263      342.109       17.290      865.636
05/31/2013  09:11:00      145.705       95.207       19.530       57.803       48.455       41.346     3341.146     2347.871     1709.473        1.904        0.370      174.053       14.465        0.007      341.645       16.500      865.639
05/31/2013  09:12:00       71.277       85.795       62.214       97.509       50.333       55.545     9507.988     2533.373     3085.294        1.572        0.756      111.541       62.988        0.319      342.128       17.320      865.635
05/31/2013  09:13:00        6.024       68.988       36.413       47.469       55.611       45.316     2253.276     3092.638     2053.538        0.676        0.370       69.250       32.350        0.218      342.242       17.516      865.650
05/31/2013  09:14:00       16.608      167.425      -19.197       32.723       51.469       31.391     1070.801     2649.068      985.420        1.669        0.235      168.246       30.729        0.033      341.474       16.213      865.658
05/31/2013  09:15:00       40.015       41.222       21.077       47.510       36.540       36.761     2257.190     1335.190     1351.353        0.434        0.247       57.450       26.828        0.218      341.977       17.065      865.667
05/31/2013  09:16:00      128.162       98.702       27.145       70.339       57.132       52.605     4947.566     3264.102     2767.249        1.894        0.549      161.764       29.541        0.033      341.843       16.835      865.656
05/31/2013  09:17:00       41.748      100.507       83.167       79.648       76.084       70.595     6343.882     5788.767     4983.655        1.794        0.856      108.833       56.020        0.265      342.113       17.296      865.662
05/31/2013  09:18:00      199.200      125.450       34.454       71.235       52.306       50.519     5074.378     2735.869     2552.192        3.348        0.518      235.411       30.633        0.017      341.653       16.511      865.684
05/31/2013  09:19:00       84.929       60.010       40.762       88.439      102.009       52.279     7821.531    10405.772     2733.112        1.671        1.048      103.991       52.284        0.253      341.731       16.647      865.684
05/31/2013  09:20:00       63.973      -86.575       15.829       65.828       81.976       43.254     4333.305     6720.108     1870.871        1.238        0.646      107.647       48.727        0.205      341.783       16.734      865.670
05/31/2013  09:21:00       52.037       77.357       65.469       75.003       46.036       43.719     5625.381     2119.310     1911.351        1.132        0.483       93.231       31.227        0.112      342.084       17.245      865.670
05/31/2013  09:22:00      142.946       65.524        2.683       72.045       64.045       45.838     5190.503     4101.825     2101.128        1.806        0.570      157.248       33.380        0.045      341.419       16.116      865.667
05/31/2013  09:23:00      122.921       89.038       18.922       78.250       61.273       49.957     6123.003     3754.380     2495.726        1.788        0.619      151.780       13.127        0.007      341.629       16.472      865.650
05/31/2013  09:24:00      154.175      122.275       21.481       99.694       77.237       46.308     9938.993     5965.498     2144.448        2.861        0.902      196.777       37.390        0.036      341.726       16.637      865.640
05/31/2013  09:25:00       40.174       87.971        7.961       68.032       75.397       39.659     4628.421     5684.732     1572.857        1.065        0.594       96.710       39.298        0.165      342.103       17.278      865.627
05/31/2013  09:26:00       54.752      126.994      100.455       67.887       72.434       86.192     4608.666     5246.690     7429.103        2.325        0.864      138.295       60.070        0.189      341.889       16.914      865.616
05/31/2013  09:27:00       43.030       18.703       65.649       39.775       86.521       44.684     1582.033     7485.831     1996.672        0.879        0.553       46.918       46.968        1.002      341.994       17.093      865.607
05/31/2013  09:28:00       23.918       40.074       36.310       39.918       35.991       34.197     1593.472     1295.333     1169.413        0.378        0.203       46.669       25.179        0.291      342.300       17.613      865.609
05/31/2013  09:29:00      152.320       94.181       15.027      123.923       70.042       54.495    15356.977     4905.907     2969.651        2.776        1.162      179.085       47.428        0.070      341.959       17.031      865.602
05/31/2013  09:30:00      187.083      145.858       10.475      133.062       76.812       65.691    17705.403     5900.060     4315.326        4.215        1.396      237.223       41.481        0.031      341.805       16.769      865.588
05/31/2013  09:31:00      115.032       57.078       14.773       89.026       59.093       52.862     7925.586     3491.934     2794.406        1.546        0.711      128.415       37.127        0.084      342.145       17.349      865.583
05/31/2013  09:32:00       73.287       67.977       42.588       88.893       52.304       60.954     7901.923     2735.695     3715.424        1.308        0.718       99.960       52.503        0.276      342.318       17.643      865.583
05/31/2013  09:33:00       33.819       45.712       54.311       57.210       57.932       45.591     3273.000     3356.097     2078.566        0.744        0.435       56.862       27.435        0.233      342.182       17.413      865.580
05/31/2013  09:34:00       29.864       -5.277       47.453       65.749       58.150       39.891     4322.914     3381.392     1591.259        0.623        0.465       30.326       31.439        1.075      342.393       17.772      865.569
05/31/2013  09:35:00       70.393      -51.384       25.355       52.271       73.908       43.822     2732.280     5462.437     1920.336        0.917        0.506       87.152       24.778        0.081      341.970       17.053      865.573
05/31/2013  09:36:00       83.348     -136.340       -7.240       63.971       90.049       63.466     4092.322     8108.885     4027.946        2.091        0.811      159.798       49.707        0.097      341.863       16.869      865.570
05/31/2013  09:37:00       63.653      -86.305       18.111       60.242       70.039       43.408     3629.059     4905.500     1884.297        1.112        0.521      107.239       51.459        0.230      342.063       17.210      865.577
05/31/2013  09:38:00       26.383      -20.784       32.659       44.387       46.864       32.489     1970.220     2196.203     1055.561        0.371        0.261       33.586       32.571        0.940      342.598       18.120      865.573
05/31/2013  09:39:00       77.246     -120.192       -5.030       52.501       68.252       46.765     2756.310     4658.376     2186.986        1.502        0.480      142.874       34.545        0.058      342.037       17.164      865.566
05/31/2013  09:40:00      105.119       11.334       18.320       56.041      128.199       48.957     3140.639    16434.966     2396.746        1.674        1.099      105.728       31.949        0.091      342.207       17.454      865.556
05/31/2013  09:41:00      218.570      121.838       37.322       84.629       55.680       57.605     7162.067     3100.267     3318.324        3.879        0.679      250.234       22.873        0.008      341.940       16.997      865.566
05/31/2013  09:42:00      179.576       97.887       57.738       76.536       59.514       69.724     5857.815     3541.908     4861.423        2.971        0.713      204.522       47.677        0.054      342.074       17.226      865.555
05/31/2013  09:43:00      229.036      111.000       23.535      132.323       95.881       81.606    17509.295     9193.100     6659.490        4.934        1.668      254.516       52.465        0.042      342.015       17.126      865.553
05/31/2013  09:44:00      247.711      135.938       44.328      110.685       83.718       71.070    12251.233     7008.771     5050.927        5.305        1.216      282.560       38.782        0.019      341.965       17.041      865.558
05/31/2013  09:45:00      139.021      129.084      113.963       96.816       77.907       72.840     9373.328     6069.562     5305.644        3.486        1.037      189.709       61.111        0.104      341.895       16.921      865.547
05/31/2013  09:46:00      221.675      114.786       44.854       70.720       70.258       59.497     5001.299     4936.250     3539.855        3.890        0.674      249.631       33.058        0.018      341.819       16.793      865.559
05/31/2013  09:47:00      125.431       83.722       52.357       71.866       50.823       61.780     5164.715     2582.998     3816.729        1.852        0.578      150.806       24.474        0.026      341.908       16.947      865.549
05/31/2013  09:48:00      157.374      113.886       22.275       54.604       50.058       51.273     2981.639     2505.766     2628.884        2.317        0.406      194.259       30.301        0.024      341.987       17.079      865.541
05/31/2013  09:49:00      106.626       87.530       53.568       78.991       78.115       45.471     6239.590     6101.971     2067.614        1.815        0.720      137.951       32.063        0.054      342.161       17.376      865.546
05/31/2013  09:50:00       71.935     -118.020       -8.844       71.052       72.993       40.949     5048.382     5327.939     1676.816        1.562        0.603      138.215       29.792        0.046      342.280       17.579      865.536
05/31/2013  09:51:00      119.682      -56.211       48.560       94.815       83.754       56.608     8989.813     7014.786     3204.420        1.952        0.960      132.225       60.564        0.210      342.365       17.721      865.530
05/31/2013  09:52:00       90.441       80.133       40.067       65.861       57.419       41.137     4337.733     3296.962     1692.283        1.277        0.466      120.834       37.082        0.094      342.425       17.827      865.536
05/31/2013  09:53:00       24.219      105.830      117.814       65.987       69.024       50.784     4354.237     4764.362     2579.026        1.868        0.585      108.566       40.293        0.138      342.704       18.299      865.535
05/31/2013  09:54:00       60.770       55.216       56.578       53.719       67.707       43.123     2885.759     4584.221     1859.607        0.963        0.466       82.108       33.996        0.171      342.316       17.640      865.540
05/31/2013  09:55:00      185.051      108.866       41.692       87.570       77.045       47.102     7668.473     5935.873     2218.584        3.183        0.791      214.699       25.793        0.014      342.396       17.774      865.533
05/31/2013  09:56:00       23.180      114.782       10.105       58.314       80.991       45.118     3400.506     6559.556     2035.673        1.290        0.600      117.099       35.544        0.092      342.785       18.438      865.532
05/31/2013  09:57:00       47.749      109.128        8.134       57.746       66.916       44.857     3334.572     4477.723     2012.123        1.204        0.491      119.117       42.070        0.125      342.600       18.123      865.535
05/31/2013  09:58:00       15.639       78.556       10.709       54.388       52.291       37.272     2958.005     2734.315     1389.202        0.680        0.354       80.097       32.534        0.165      342.508       17.968      865.517
05/31/2013  09:59:00       36.307      101.942       -7.850       49.066       59.056       39.777     2407.435     3487.657     1582.200        0.962        0.374      108.215       33.294        0.095      342.560       18.055      865.495
05/31/2013  10:00:00       81.018       55.643       38.716       77.561       61.210       46.644     6015.722     3746.619     2175.638        1.155        0.597       98.286       31.457        0.102      342.997       18.798      865.484
05/31/2013  10:01:00       82.271      100.928       97.391      102.899       71.223       64.063    10588.244     5072.747     4104.091        2.310        0.988      130.211       56.875        0.191      342.649       18.205      865.478
05/31/2013  10:02:00      166.499      123.085       67.278       94.177       76.925       68.292     8869.392     5917.469     4663.799        3.342        0.973      207.055       59.368        0.082      342.729       18.340      865.483
05/31/2013  10:03:00       82.626       60.131       55.802       95.099       44.535       39.985     9043.913     1983.407     1598.838        1.309        0.631      102.190       29.302        0.082      342.611       18.141      865.482
05/31/2013  10:04:00       97.900       45.115       60.819       91.745       86.967       69.120     8417.149     7563.209     4777.559        1.803        1.038      107.795       48.662        0.204      342.574       18.079      865.471
05/31/2013  10:05:00      150.096       69.391       43.949       79.831       59.951       50.170     6373.009     3594.140     2517.001        2.088        0.624      165.360       36.393        0.048      342.261       17.544      865.468
05/31/2013  10:06:00       82.315       60.824       58.967       85.684       69.522       62.875     7341.775     4833.309     3953.297        1.504        0.806      102.348       59.442        0.337      342.479       17.917      865.463
05/31/2013  10:07:00      121.425      124.881      100.215      117.292      127.196       94.354    13757.307    16178.746     8902.723        3.960        1.942      174.182       68.909        0.157      342.557       18.049      865.446
05/31/2013  10:08:00       54.438       46.319       67.626       79.446       89.933       60.128     6311.590     8088.005     3615.417        1.385        0.901       71.476       55.993        0.614      342.858       18.560      865.473
05/31/2013  10:09:00       39.882      -48.298       41.380       60.134       89.328       52.313     3616.060     7979.574     2736.624        0.998        0.717       62.636       37.135        0.351      342.773       18.418      865.476
05/31/2013  10:10:00       36.120      106.095      114.469       73.051       76.951       73.316     5336.507     5921.446     5375.274        2.115        0.832      112.075       64.275        0.329      342.711       18.311      865.497
05/31/2013  10:11:00      147.611       99.567       53.235      132.579       77.583       67.326    17577.129     6019.103     4532.839        3.133        1.406      178.052       39.887        0.050      342.743       18.365      865.506
05/31/2013  10:12:00      132.994      149.700      138.982      130.045       96.375       77.575    16911.648     9288.152     6017.813        4.581        1.611      200.243       78.058        0.152      342.571       18.071      865.496
05/31/2013  10:13:00       66.808       93.822      106.919       96.072       91.548       66.777     9229.811     8381.090     4459.185        2.338        1.104      115.177       61.130        0.282      342.323       17.652      865.509
05/31/2013  10:14:00       71.666     -134.611        6.481       53.931       71.778       44.205     2908.546     5152.051     1954.092        1.665        0.501      152.499       42.738        0.079      342.528       17.999      865.491
05/31/2013  10:15:00        7.380       12.997       36.435       27.042       33.741       23.402      731.258     1138.474      547.661        0.198        0.121       14.946       21.400        2.050      342.933       18.689      865.489
05/31/2013  10:16:00       56.473      -64.936        8.937       67.666       65.659       34.119     4578.706     4311.080     1164.094        0.877        0.503       86.058       34.006        0.156      342.721       18.328      865.478
05/31/2013  10:17:00       49.012       -5.126       38.802       47.113       52.366       36.173     2219.600     2742.217     1308.498        0.510        0.314       49.279       31.574        0.411      342.677       18.255      865.480
05/31/2013  10:18:00        8.276       14.177       32.391       29.172       34.566       20.268      851.027     1194.780      410.779        0.189        0.123       16.416       11.064        0.454      342.972       18.757      865.483
05/31/2013  10:19:00       10.724       78.543       -1.390       34.588       66.201       33.992     1196.343     4382.606     1155.443        0.651        0.337       79.272       37.265        0.221      342.865       18.574      865.475
05/31/2013  10:20:00       34.370       57.523       15.140       60.836       60.823       37.791     3700.968     3699.421     1428.165        0.677        0.441       67.009       27.953        0.174      343.301       19.318      865.470
05/31/2013  10:21:00      222.677      130.558       47.242      102.279       62.518       73.077    10460.995     3908.551     5340.202        4.428        0.985      258.129       33.374        0.017      342.614       18.143      865.451
05/31/2013  10:22:00      232.251      151.741       23.469       94.720       83.168       72.640     8971.810     6916.913     5276.517        4.934        1.058      277.427       44.301        0.025      342.690       18.273      865.450
05/31/2013  10:23:00      156.572      130.048       -5.201       71.517       55.886       44.663     5114.706     3123.198     1994.802        2.584        0.512      203.537       33.854        0.028      342.749       18.374      865.460
05/31/2013  10:24:00       91.154       61.781       16.911       37.440       29.170       34.529     1401.778      850.871     1192.247        0.793        0.172      110.118       15.570        0.020      342.958       18.731      865.456
05/31/2013  10:25:00      203.947     -212.964      -37.639      164.545      181.847       75.990    27075.190    33068.461     5774.428        7.713        3.296      294.869      107.757        0.134      342.785       18.436      865.457
05/31/2013  10:26:00      168.401     -206.885      -33.140      120.139      122.845       89.149    14433.454    15091.011     7947.561        5.486        1.874      266.759       88.444        0.110      342.759       18.392      865.457
05/31/2013  10:27:00       44.831      -86.472       31.898       95.414       91.771       87.399     9103.904     8421.846     7638.597        1.783        1.258       97.402       58.872        0.365      343.143       19.047      865.472
05/31/2013  10:28:00      129.517     -189.757      -31.043       82.442       98.340       56.407     6796.606     9670.729     3181.698        3.669        0.982      229.744       57.091        0.062      342.854       18.552      865.477
05/31/2013  10:29:00       14.370      -55.274       29.660       32.194       78.018       33.391     1036.464     6086.805     1114.984        0.619        0.412       57.111       40.941        0.514      343.306       19.326      865.484
05/31/2013  10:30:00      130.230       10.762       22.442       82.574      136.080       62.386     6818.547    18517.770     3892.074        2.340        1.461      130.674       71.151        0.296      342.815       18.487      865.468
05/31/2013  10:31:00      167.266      -63.323       48.446      124.863       98.325       79.473    15590.759     9667.731     6315.879        3.295        1.579      178.851       65.267        0.133      342.878       18.594      865.452
05/31/2013  10:32:00      137.058     -161.760      -20.476       97.820       92.069       54.322     9568.794     8476.612     2950.864        3.318        1.050      212.017       44.817        0.045      342.706       18.300      865.448
05/31/2013  10:33:00       71.149       20.087       40.582       82.944       84.975       43.309     6879.724     7220.835     1875.634        1.154        0.799       73.930       45.816        0.384      343.120       19.008      865.459
05/31/2013  10:34:00      164.454       77.812       14.157       73.268       69.031       52.883     5368.199     4765.253     2796.638        2.311        0.647      181.934       42.551        0.055      342.692       18.277      865.457
05/31/2013  10:35:00       52.548       -8.175       36.229       54.796      111.869       48.831     3002.622    12514.636     2384.505        1.102        0.895       53.180       50.906        0.916      342.955       18.728      865.448
05/31/2013  10:36:00       52.306       71.171       97.795       86.742       89.833       61.013     7524.183     8069.925     3722.558        1.834        0.966       88.325       49.165        0.310      343.223       19.183      865.447
05/31/2013  10:37:00      156.413      115.221       25.996      102.973       81.555       82.700    10603.503     6651.260     6839.324        3.125        1.205      194.270       46.586        0.058      342.733       18.347      865.465
05/31/2013  10:38:00      126.281       83.806       21.450       61.512       47.922       47.275     3783.672     2296.552     2234.904        1.587        0.416      151.560       25.123        0.027      343.006       18.812      865.460
05/31/2013  10:39:00       40.761       76.865        8.019       53.156       60.488       36.477     2825.564     3658.819     1330.554        0.772        0.391       87.004       31.354        0.130      343.170       19.095      865.446
05/31/2013  10:40:00       42.471      -74.019        7.743       51.795       42.586       37.499     2682.682     1813.546     1406.176        0.662        0.295       85.338       18.036        0.045      342.558       18.054      865.446
05/31/2013  10:41:00       54.211        1.637       30.431       52.541       86.490       54.919     2760.517     7480.461     3016.130        0.856        0.663       54.236       36.496        0.453      343.396       19.477      865.407
05/31/2013  10:42:00      146.109      119.388       46.232      112.893       90.591       89.483    12744.783     8206.777     8007.221        3.334        1.448      188.684       66.212        0.123      343.582       19.792      865.425
05/31/2013  10:43:00      208.173      177.512       70.026      116.953       76.980       77.439    13678.118     5925.991     5996.829        5.267        1.280      273.581       51.640        0.036      342.876       18.591      865.434
05/31/2013  10:44:00      259.748      188.852       21.152       99.449       80.839       73.756     9890.164     6534.961     5439.878        6.272        1.093      321.145       34.168        0.011      343.042       18.871      865.421
05/31/2013  10:45:00      210.584      144.995       42.490      132.275      103.785       81.468    17496.550    10771.274     6637.059        5.103        1.745      255.674       50.110        0.038      343.154       19.063      865.412
05/31/2013  10:46:00      288.729      179.701       43.572      122.253       85.812       75.182    14945.762     7363.634     5652.278        7.275        1.398      340.083       37.747        0.012      343.254       19.233      865.412
05/31/2013  10:47:00      168.571      113.893       22.159      142.781       77.875       66.490    20386.299     6064.503     4420.896        3.637        1.544      203.440       21.763        0.011      343.079       18.936      865.433
05/31/2013  10:48:00      141.665      109.265       11.278      106.744       64.797       50.002    11394.202     4198.621     2500.197        2.511        0.905      178.907       34.414        0.037      342.867       18.576      865.448
05/31/2013  10:49:00      137.747      113.217        9.900       90.408       93.028       57.123     8173.564     8654.161     3262.985        2.599        1.005      178.305       47.812        0.072      343.163       19.080      865.415
05/31/2013  10:50:00       55.468       94.808       11.195      104.421       85.098       65.179    10903.841     7241.735     4248.292        1.729        1.120      109.842       44.807        0.166      343.270       19.263      865.385
05/31/2013  10:51:00       71.876      176.393       -6.447      117.586       56.708       48.674    13826.451     3215.833     2369.127        2.786        0.971      190.475       27.202        0.020      343.156       19.067      865.383
05/31/2013  10:52:00      187.125      124.083       20.835      129.292       77.569       59.853    16716.414     6016.964     3582.325        3.858        1.316      224.527       25.369        0.013      343.309       19.327      865.373
05/31/2013  10:53:00      265.111       98.683       51.322      148.634      104.867       95.293    22091.980    10997.154     9080.830        6.241        2.108      282.882       53.960        0.036      343.211       19.159      865.350
05/31/2013  10:54:00      188.295       98.493       38.114       88.288       86.752       64.039     7794.814     7525.885     4100.995        3.301        0.971      212.499       38.372        0.033      343.484       19.624      865.359
05/31/2013  10:55:00      225.066      123.730       27.792       83.778       63.788       62.342     7018.784     4068.953     3886.554        4.085        0.749      256.834       20.934        0.007      343.341       19.380      865.363
05/31/2013  10:56:00      136.184      129.993      125.406      126.672       76.475       84.296    16045.829     5848.402     7105.851        4.008        1.450      188.266       85.349        0.206      343.181       19.107      865.365
05/31/2013  10:57:00      128.795      111.970      102.970      105.859       89.647       77.355    11206.136     8036.599     5983.747        3.247        1.261      170.662       61.694        0.131      343.044       18.876      865.368
05/31/2013  10:58:00      159.204      156.066      121.357      134.784       84.046       85.165    18166.802     7063.705     7253.024        4.845        1.624      222.940       72.503        0.106      342.954       18.721      865.361
05/31/2013  10:59:00      157.885      121.529       41.311       91.924       66.916       64.214     8450.020     4477.771     4123.440        2.922        0.853      199.241       45.598        0.052      343.311       19.330      865.371
05/31/2013  11:00:00      153.715      121.457       88.076       97.182       80.267       76.253     9444.269     6442.761     5814.592        3.392        1.085      195.909       60.764        0.096      343.350       19.396      865.387
05/31/2013  11:01:00      212.623      106.303       63.763       99.823       72.281       70.243     9964.667     5224.594     4934.040        4.035        1.006      237.716       51.437        0.047      343.119       19.004      865.391
05/31/2013  11:02:00       79.234       55.200       23.440       66.665       49.909       45.597     4444.247     2490.862     2079.079        0.944        0.451       96.566       27.427        0.081      343.205       19.152      865.383
05/31/2013  11:03:00        4.343      -33.932       15.140       39.028       33.929       23.441     1523.174     1151.163      549.493        0.231        0.161       34.209       22.200        0.421      343.243       19.218      865.357
05/31/2013  11:04:00      -12.080      -19.001       17.932       16.919       27.629       20.252      286.263      763.344      410.138        0.114        0.073       22.516       15.164        0.454      343.290       19.298      865.325
05/31/2013  11:05:00        6.748      -24.263       18.045       23.092       54.960       29.104      533.250     3020.650      847.064        0.268        0.220       25.184       31.227        1.538      343.242       19.216      865.316
05/31/2013  11:06:00       31.610       39.222       58.440       61.295       61.304       57.304     3757.101     3758.205     3283.734        0.837        0.540       50.375       53.389        1.123      343.799       20.167      865.321
05/31/2013  11:07:00       78.759       70.721       51.954       58.105       51.676       34.681     3376.178     2670.460     1202.805        1.058        0.362      105.851       29.786        0.079      343.532       19.708      865.304
05/31/2013  11:08:00      180.403       95.070       32.892       96.975       60.813       54.042     9404.123     3698.280     2920.503        2.934        0.801      203.921       25.607        0.016      343.497       19.648      865.320
05/31/2013  11:09:00      252.783       90.814       19.673      149.534      109.638       87.041    22360.510    12020.501     7576.082        5.724        2.098      268.601       49.111        0.033      343.460       19.584      865.318
05/31/2013  11:10:00      167.080      109.533       40.795       99.426       64.138       67.822     9885.619     4113.703     4599.772        3.009        0.930      199.783       41.891        0.044      343.427       19.528      865.352
05/31/2013  11:11:00       85.912      102.370        9.469       76.270       68.135       57.511     5817.072     4642.314     3307.518        1.586        0.688      133.644       37.769        0.080      343.700       19.995      865.343
05/31/2013  11:12:00        9.764      167.307      -23.975       63.835       64.371       35.621     4074.913     4143.601     1268.872        1.907        0.474      167.591       32.066        0.037      343.165       19.082      865.343
05/31/2013  11:13:00      -38.988      116.463       -3.448       34.347       84.784       36.317     1179.730     7188.373     1318.945        1.239        0.484      122.816       44.135        0.129      343.673       19.951      865.338
05/31/2013  11:14:00      -26.100      -26.147        6.440       34.074       29.097       25.724     1161.038      846.663      661.735        0.204        0.133       36.944       15.381        0.173      343.775       20.124      865.335
05/31/2013  11:15:00       -1.477      -50.169        0.470       32.755       25.971       24.825     1072.923      674.483      616.270        0.244        0.118       50.191       15.770        0.099      343.187       19.123      865.333
05/31/2013  11:16:00       97.950       76.220       16.839       65.367       57.732       35.509     4272.902     3333.021     1260.916        1.228        0.443      124.112       14.277        0.013      343.595       19.817      865.349
05/31/2013  11:17:00      155.362      132.732       77.784       72.197       51.047       52.113     5212.468     2605.811     2715.767        2.917        0.527      204.341       31.052        0.023      343.417       19.511      865.372
05/31/2013  11:18:00      201.262      138.702       83.447       86.714       72.547       64.433     7519.324     5263.096     4151.599        4.182        0.847      244.427       48.515        0.039      343.586       19.797      865.355
05/31/2013  11:19:00       74.639       61.678       24.759       79.496       62.910       52.134     6319.606     3957.616     2717.983        1.149        0.650       96.826       26.985        0.078      343.807       20.180      865.357
05/31/2013  11:20:00      176.071      113.552       23.229       96.303       71.499       49.807     9274.203     5112.115     2480.750        3.065        0.843      209.511       40.927        0.038      343.604       19.831      865.339
05/31/2013  11:21:00      105.220       75.521       33.805       69.208       42.369       43.346     4789.787     1795.134     1878.866        1.319        0.423      129.517       35.815        0.076      343.533       19.711      865.339
05/31/2013  11:22:00       99.079       62.473       49.538       68.337       44.728       46.626     4669.953     2000.605     2173.955        1.251        0.442      117.130       27.831        0.056      343.810       20.184      865.320
05/31/2013  11:23:00       39.113      -36.589       14.243       63.926       47.983       40.490     4086.489     2302.372     1639.423        0.555        0.401       53.559       32.407        0.366      343.665       19.938      865.285
05/31/2013  11:24:00      111.496      123.153       21.541       94.220       59.504       52.260     8877.457     3540.686     2731.058        2.160        0.757      166.126       40.236        0.059      343.825       20.208      865.268
05/31/2013  11:25:00       38.678      264.836      -31.090       59.989       80.859       52.752     3598.715     6538.221     2782.765        4.276        0.646      267.646       49.631        0.034      343.516       19.679      865.277
05/31/2013  11:26:00      -10.593      207.537      -37.414       46.811       94.328       40.270     2191.243     8897.762     1621.645        2.864        0.636      207.807       47.934        0.053      343.482       19.624      865.268
05/31/2013  11:27:00       66.918       86.077       19.629       85.316       62.655       41.268     7278.761     3925.606     1703.061        1.259        0.645      109.029       32.249        0.087      343.986       20.485      865.259
05/31/2013  11:28:00       85.273       80.947       55.922       76.223       54.824       52.281     5809.991     3005.657     2733.322        1.425        0.577      117.575       44.991        0.146      344.091       20.664      865.277
05/31/2013  11:29:00      173.800      119.589       11.757       89.480       92.484       63.642     8006.748     8553.278     4050.343        3.262        1.031      210.970       49.173        0.054      343.815       20.190      865.272
05/31/2013  11:30:00       86.795      160.685      -17.108       85.233       79.141       55.051     7264.600     6263.339     3030.631        2.510        0.828      182.628       54.998        0.091      343.824       20.207      865.277
05/31/2013  11:31:00        1.086      113.943       -5.016       46.151       79.985       48.647     2129.915     6397.663     2366.562        1.195        0.545      113.948       50.620        0.197      344.107       20.692      865.260
05/31/2013  11:32:00      -17.199       54.263        3.032       48.771       44.895       33.303     2378.608     2015.534     1109.077        0.438        0.275       56.923       29.330        0.265      344.174       20.805      865.238
05/31/2013  11:33:00       63.066       85.726       13.042       68.288       60.596       50.677     4663.195     3671.925     2568.162        1.120        0.545      106.425       39.293        0.136      344.539       21.429      865.208
05/31/2013  11:34:00      159.001       97.455       41.661      137.630       90.764       63.227    18942.128     8238.115     3997.638        3.384        1.559      186.491       32.504        0.030      344.557       21.457      865.214
05/31/2013  11:35:00      197.626      101.726       19.556      100.866       97.316       68.970    10174.013     9470.438     4756.892        3.709        1.220      222.270       55.340        0.062      344.588       21.510      865.208
05/31/2013  11:36:00      178.065      139.057       99.612      125.321      103.264      109.952    15705.335    10663.517    12089.507        4.971        1.923      225.929       62.936        0.078      344.420       21.223      865.225
05/31/2013  11:37:00      111.752      102.990      110.631      128.244      101.263       86.565    16446.571    10254.201     7493.539        3.476        1.710      151.971       68.098        0.201      344.021       20.543      865.232
05/31/2013  11:38:00      155.050     -203.769       -1.381      112.277      123.678       72.427    12606.136    15296.158     5245.696        4.935        1.657      256.051       66.465        0.067      343.848       20.247      865.247
05/31/2013  11:39:00       74.966     -174.941      -19.297      123.842      133.324       61.820    15336.797    17775.421     3821.716        3.676        1.847      190.327       80.740        0.180      343.977       20.467      865.223
05/31/2013  11:40:00       43.350        9.496       49.963       82.164       62.029       43.406     6750.923     3847.536     1884.042        0.847        0.624       44.378       35.596        0.643      344.316       21.049      865.238
05/31/2013  11:41:00       44.164        0.457       45.997       60.726       55.610       39.239     3687.600     3092.465     1539.698        0.619        0.416       44.166       42.652        0.933      343.863       20.274      865.227
05/31/2013  11:42:00      135.314       79.621       45.955       76.389       83.462       48.343     5835.289     6965.939     2337.003        2.095        0.757      157.002       34.295        0.048      343.689       19.976      865.236
05/31/2013  11:43:00       78.200       83.541       93.573      110.993       84.648       66.252    12319.478     7165.310     4389.373        2.286        1.194      114.430       56.380        0.243      343.941       20.405      865.226
05/31/2013  11:44:00      233.199      140.904      106.536      159.158      125.637       78.114    25331.163    15784.637     6101.793        6.639        2.361      272.462       64.129        0.055      344.056       20.601      865.215
05/31/2013  11:45:00       53.796      -49.287       32.339       80.483       92.607       56.016     6477.486     8576.048     3137.761        1.228        0.910       72.960       57.803        0.628      344.250       20.935      865.225
05/31/2013  11:46:00      139.309      -45.784       13.564       98.468      107.193       62.464     9695.869    11490.406     3901.795        2.338        1.254      146.640       63.639        0.188      343.994       20.497      865.202
05/31/2013  11:47:00      243.254      144.122       82.637      121.542       91.761       82.778    14772.548     8420.123     6852.229        5.840        1.502      282.743       66.705        0.056      344.131       20.728      865.219
05/31/2013  11:48:00      130.033       75.855      114.446       82.943      116.326       76.569     6879.494    13531.822     5862.815        3.101        1.314      150.541       74.597        0.246      343.935       20.396      865.218
05/31/2013  11:49:00      196.757      116.735       44.126      144.730      106.140       89.540    20946.895    11265.799     8017.403        4.725        2.012      228.780       61.074        0.071      343.987       20.484      865.220
05/31/2013  11:50:00      165.322      109.212       53.048       92.911       66.199       62.030     8632.431     4382.293     3847.763        2.946        0.843      198.138       37.104        0.035      344.181       20.815      865.214
05/31/2013  11:51:00      181.185      100.801       35.415       74.301       53.345       55.197     5520.651     2845.695     3046.715        2.783        0.571      207.338       18.360        0.008      344.024       20.548      865.208
05/31/2013  11:52:00       30.861       40.012       71.062       67.650       55.158       45.918     4576.479     3042.446     2108.451        0.866        0.486       50.531       16.316        0.104      344.634       21.591      865.196
05/31/2013  11:53:00       21.737       20.581       67.331       46.034       48.696       30.252     2119.122     2371.303      915.168        0.542        0.270       29.935       25.674        0.736      344.364       21.131      865.175
05/31/2013  11:54:00       44.645       79.308       23.557       50.731       68.960       41.079     2573.643     4755.551     1687.519        0.893        0.451       91.011       22.305        0.060      343.899       20.336      865.160
05/31/2013  11:55:00       -5.330       73.635       18.417       31.736       60.460       37.478     1007.172     3655.413     1404.563        0.593        0.303       73.827       32.654        0.196      344.450       21.277      865.142
05/31/2013  11:56:00      -17.667       51.084       15.108       22.558       32.384       30.804      508.883     1048.748      948.879        0.283        0.125       54.052       16.422        0.092      344.381       21.159      865.100
05/31/2013  11:57:00       -6.307       42.767        9.805       23.534       38.127       24.605      553.832     1453.642      605.419        0.229        0.131       43.230       20.556        0.226      344.481       21.330      865.088
05/31/2013  11:58:00      -13.705      106.635       -3.126       45.187       47.165       33.460     2041.876     2224.565     1119.593        0.848        0.269      107.512       20.228        0.035      344.654       21.627      865.076
05/31/2013  11:59:00       -4.342        4.336       16.644       43.471       44.210       23.770     1889.720     1954.496      565.027        0.236        0.220        6.136       24.271       15.646      344.740       21.775      865.068
05/31/2013  12:00:00       29.352       -4.467       52.512       50.351       69.755       53.676     2535.210     4865.790     2881.076        0.696        0.514       29.690       39.901        1.806      344.880       22.013      865.073
05/31/2013  12:01:00      272.377      143.691       61.644      127.936      111.286       75.000    16367.713    12384.537     5624.947        6.650        1.719      307.955       57.387        0.035      344.328       21.066      865.064
05/31/2013  12:02:00      149.307       91.532       63.055      148.803       81.199       72.539    22142.427     6593.283     5261.979        3.432        1.700      175.131       71.055        0.165      344.544       21.436      865.048
05/31/2013  12:03:00      154.279      154.182        1.554      119.679      105.489       98.923    14323.174    11127.930     9785.847        4.140        1.762      218.115       75.159        0.119      344.259       20.948      865.017
05/31/2013  12:04:00      134.810      102.948       88.927      104.813       96.117       83.312    10985.672     9238.467     6940.887        3.192        1.358      169.623       79.636        0.220      344.473       21.313      865.010
05/31/2013  12:05:00      132.557       40.935      100.667      127.924      144.912      107.097    16364.655    20999.347    11469.863        3.910        2.442      138.733      121.297        0.764      344.512       21.381      865.013
05/31/2013  12:06:00       49.962       41.954      106.834       68.382      144.437       87.709     4676.143    20862.127     7692.847        2.444        1.662       65.240      101.509        2.421      344.410       21.209      865.034
05/31/2013  12:07:00      164.741     -162.289        6.401      130.405      138.926       92.212    17005.470    19300.529     8503.116        4.916        2.240      231.252       92.800        0.161      344.442       21.262      864.997
05/31/2013  12:08:00      103.828       47.786      111.444      122.652      119.191       81.539    15043.453    14206.514     6648.645        3.069        1.795      114.297       82.048        0.515      344.544       21.436      865.002
05/31/2013  12:09:00      167.859      142.681      117.066      143.400      109.618       73.515    20563.690    12016.174     5404.507        5.011        1.899      220.305       38.294        0.030      344.317       21.049      865.037
05/31/2013  12:10:00      264.794      133.949       61.248      143.419      132.490       95.253    20568.887    17553.721     9073.178        6.949        2.360      296.746       73.555        0.061      344.300       21.018      865.027
05/31/2013  12:11:00      168.982      162.511      164.434      156.420      160.247      114.745    24467.234    25678.961    13166.314        7.265        3.166      234.445      114.390        0.238      344.192       20.834      865.007
05/31/2013  12:12:00      231.413      130.295       53.350       87.310       74.724       63.107     7623.105     5583.707     3982.517        4.528        0.859      265.573       50.010        0.035      343.972       20.455      865.014
05/31/2013  12:13:00      226.200      167.174      149.012      145.869      114.668       99.790    21277.767    13148.805     9958.141        7.284        2.219      281.272       83.224        0.088      344.648       21.612      865.024
05/31/2013  12:14:00      125.079      208.934      180.943      104.743      105.978       81.001    10970.993    11231.288     6561.149        6.040        1.438      243.512       71.253        0.086      344.127       20.722      865.054
05/31/2013  12:15:00      -55.839      -48.609       15.082       58.804       66.517       40.797     3457.855     4424.572     1664.411        0.763        0.477       74.032       37.577        0.258      344.732       21.761      865.047
05/31/2013  12:16:00      -28.525      120.925      -20.373       60.930       80.567       31.777     3712.414     6491.036     1009.795        1.353        0.561      124.244       35.113        0.080      344.391       21.176      865.004
05/31/2013  12:17:00       17.586       43.569       32.324       60.145       41.127       38.360     3617.471     1691.413     1471.480        0.502        0.339       46.985       24.530        0.273      344.650       21.620      864.978
05/31/2013  12:18:00       19.138       42.104       18.855       50.514       62.101       34.657     2551.694     3856.534     1201.130        0.505        0.380       46.250       35.390        0.585      344.725       21.749      864.949
05/31/2013  12:19:00       63.478       -0.858       22.313       61.317       47.207       45.189     3759.795     2228.504     2042.081        0.628        0.402       63.484       30.940        0.238      344.370       21.141      864.935
05/31/2013  12:20:00       24.858      -12.280       37.562       74.765       91.102       54.959     5589.822     8299.553     3020.440        0.954        0.845       27.726       26.323        0.901      344.574       21.489      864.900
05/31/2013  12:21:00      103.345       80.967       52.311       72.264       80.043       61.704     5222.138     6406.874     3807.325        1.770        0.772      131.285       53.403        0.165      344.481       21.328      864.920
05/31/2013  12:22:00      103.997       74.818       11.259       79.273       64.966       54.213     6284.159     4220.557     2939.041        1.499        0.672      128.114       43.871        0.117      344.876       22.005      864.905
05/31/2013  12:23:00       83.272       79.884       69.305      110.191      126.049       72.476    12142.039    15888.396     5252.793        2.570        1.664      115.394       43.159        0.140      345.096       22.381      864.873
05/31/2013  12:24:00      266.064      144.724       25.899      106.907       81.704       66.623    11429.145     6675.500     4438.628        5.747        1.127      302.878       38.641        0.016      344.394       21.180      864.885
05/31/2013  12:25:00       86.958      100.337       74.107      108.243       83.499       69.645    11716.600     6972.000     4850.372        2.333        1.177      132.775       57.793        0.189      344.567       21.475      864.866
05/31/2013  12:26:00       54.804       44.955       35.777       63.885       59.244       56.175     4081.251     3509.839     3155.669        0.852        0.537       70.883       38.121        0.289      344.566       21.475      864.864
05/31/2013  12:27:00      121.467      102.323       33.673      100.302       69.007       43.092    10060.456     4761.917     1856.922        2.152        0.834      158.821       27.875        0.031      344.324       21.061      864.830
05/31/2013  12:28:00      119.757       79.165       33.256      103.195       62.267       55.837    10649.292     3877.205     3117.745        1.968        0.882      143.557       37.459        0.068      344.740       21.772      864.796
05/31/2013  12:29:00       80.443       85.537       72.807       96.556       98.211       55.356     9322.965     9645.308     3064.287        2.056        1.102      117.421       51.067        0.189      344.692       21.691      864.824
05/31/2013  12:30:00      116.205     -140.542        1.377       99.957      142.747       75.457     9991.368    20376.705     5693.708        3.465        1.803      182.361       80.994        0.197      344.797       21.869      864.825
05/31/2013  12:31:00       63.569       13.331       72.454      114.140      160.010       94.790    13027.886    25603.134     8985.058        2.853        2.381       64.952       91.383        1.979      345.067       22.331      864.789
05/31/2013  12:32:00      224.820      157.754      125.705      163.980      106.705      107.855    26889.392    11385.928    11632.685        7.056        2.495      274.646       90.054        0.108      344.859       21.974      864.787
05/31/2013  12:33:00       71.978       13.194       40.785      154.026       74.995       68.032    23723.933     5624.184     4628.397        2.049        1.699       73.177       52.971        0.524      345.132       22.444      864.808
05/31/2013  12:34:00      106.557       38.163       98.176       93.166       98.021       86.029     8679.831     9608.169     7400.924        2.406        1.284      113.184       70.530        0.388      344.830       21.926      864.814
05/31/2013  12:35:00      165.346     -156.556       22.301      134.002      171.137       73.163    17956.657    29287.976     5352.879        5.246        2.630      227.704       96.366        0.179      344.705       21.710      864.806
05/31/2013  12:36:00      232.361     -244.105      -29.850       91.732      120.007       49.098     8414.728    14401.785     2410.641        6.984        1.261      337.015       53.768        0.025      344.223       20.887      864.804
05/31/2013  12:37:00       95.884     -185.088        0.021       58.624      126.592       52.258     3436.738    16025.645     2730.931        3.282        1.110      208.449       59.230        0.081      344.298       21.016      864.823
05/31/2013  12:38:00       69.328     -142.779       19.686       55.353       97.582       47.498     3063.975     9522.282     2256.043        2.021        0.742      158.721       48.358        0.093      344.847       21.956      864.791
05/31/2013  12:39:00       34.716      -89.489       22.842       55.958       57.959       48.946     3131.281     3359.292     2395.665        0.931        0.444       95.987       23.590        0.060      345.109       22.405      864.771
05/31/2013  12:40:00      -18.516      -11.004       44.799       48.225       76.179       45.782     2325.692     5803.165     2096.028        0.635        0.511       21.539       43.326        4.046      345.247       22.643      864.750
05/31/2013  12:41:00       92.473      -23.625       51.832       96.196       83.945       63.815     9253.732     7046.694     4072.379        1.608        1.019       95.443       64.231        0.453      344.725       21.747      864.754
05/31/2013  12:42:00      195.100     -272.168      -23.638      133.831      196.600       91.941    17910.811    38651.374     8453.191        8.885        3.251      334.872      101.247        0.091      344.796       21.866      864.732
05/31/2013  12:43:00      154.347     -206.490      -15.423      140.746      195.210       87.404    19809.505    38107.048     7639.375        6.612        3.278      257.801       96.675        0.141      344.903       22.048      864.720
05/31/2013  12:44:00      204.755     -243.241      -30.331      125.111      154.168       84.888    15652.843    23767.783     7205.919        7.431        2.331      317.948       90.294        0.081      344.781       21.839      864.700
05/31/2013  12:45:00      239.983     -292.714      -41.963       80.759       94.123       44.416     6521.968     8859.217     1972.743        8.119        0.868      378.514       38.893        0.011      344.391       21.171      864.716
05/31/2013  12:46:00      248.384     -231.031      -43.695      111.441      130.286       64.744    12419.185    16974.566     4191.743        7.528        1.679      339.220       83.327        0.060      344.460       21.291      864.695
05/31/2013  12:47:00       43.982       -6.389       44.609       67.488      106.231       59.997     4554.610    11285.014     3599.626        1.170        0.972       44.444       70.722        2.532      345.093       22.377      864.683
05/31/2013  12:48:00      108.036       98.739      149.761      135.036      176.213      134.694    18234.701    31051.181    18142.521        5.563        3.371      146.360      135.438        0.856      344.700       21.704      864.683
05/31/2013  12:49:00      151.116      -38.533       29.695       89.321      145.472       69.358     7978.161    21162.042     4810.589        2.957        1.698      155.951       51.687        0.110      344.428       21.238      864.716
05/31/2013  12:50:00      108.659       75.770       41.740       61.450       66.569       45.874     3776.162     4431.397     2104.445        1.480        0.516      132.469       23.184        0.031      344.558       21.462      864.710
05/31/2013  12:51:00       24.096     -138.432        2.374       57.247       66.716       35.174     3277.265     4451.055     1237.199        1.436        0.448      140.514       26.262        0.035      344.919       22.078      864.702
05/31/2013  12:52:00       24.504     -123.928       -9.613       38.153       58.550       33.501     1455.648     3428.049     1122.288        1.103        0.300      126.327       18.021        0.020      344.681       21.672      864.682
05/31/2013  12:53:00       37.667       48.494       47.712       44.623       59.530       43.317     1991.202     3543.819     1876.332        0.673        0.371       61.404       41.386        0.454      344.875       22.004      864.670
05/31/2013  12:54:00      156.939      142.005       85.934      167.805       89.863       73.861    28158.482     8075.337     5455.453        4.693        2.084      211.649       85.702        0.164      344.642       21.603      864.696
05/31/2013  12:55:00      320.750      134.809       83.368      161.242      133.305       93.080    25998.931    17770.191     8663.979        9.021        2.622      347.928       65.223        0.035      344.663       21.637      864.681
05/31/2013  12:56:00      270.878      207.147       91.520      160.948      131.522      122.141    25904.255    17298.150    14918.523        9.138        2.906      341.006      100.517        0.087      344.683       21.673      864.656
05/31/2013  12:57:00      237.192      119.823       39.802      148.048      144.596       89.683    21918.098    20908.045     8043.125        6.153        2.543      265.739       90.951        0.117      344.662       21.636      864.640
05/31/2013  12:58:00      263.279      177.492       42.577       88.897       72.688       70.714     7902.605     5283.540     5000.485        6.041        0.909      317.521       36.176        0.013      344.470       21.309      864.636
05/31/2013  12:59:00      241.494      134.817       44.286      108.966       92.835       74.796    11873.574     8618.389     5594.437        5.227        1.304      276.578       41.942        0.023      344.801       21.874      864.599
05/31/2013  13:00:00      259.349      158.697       27.969      104.480       98.716       75.928    10915.993     9744.907     5765.083        5.982        1.321      304.050       47.530        0.024      344.836       21.934      864.584
05/31/2013  13:01:00      279.501      167.549       38.968      139.326      110.469      102.236    19411.746    12203.320    10452.127        7.488        2.103      325.874       73.566        0.051      344.627       21.577      864.576
05/31/2013  13:02:00      103.716       60.931       73.168      104.130       93.508       62.038    10843.052     8743.803     3848.694        2.163        1.172      120.290       52.803        0.193      345.089       22.370      864.583
05/31/2013  13:03:00      142.256      129.961      113.983       99.927      100.106       83.615     9985.314    10021.219     6991.545        3.855        1.350      192.683       58.644        0.093      344.816       21.898      864.587
05/31/2013  13:04:00       72.832       99.937       90.700       81.810       74.948       65.925     6692.839     5617.274     4346.141        2.008        0.833      123.660       50.431        0.166      344.666       21.646      864.580
05/31/2013  13:05:00      104.992       -1.165       44.134       70.622      109.450       50.082     4987.424    11979.208     2508.219        1.622        0.974      104.998       52.634        0.251      344.831       21.930      864.563
05/31/2013  13:06:00       26.671      -38.482       26.789       49.073       58.598       39.269     2408.143     3433.674     1542.035        0.515        0.369       46.821       39.851        0.724      345.287       22.710      864.538
05/31/2013  13:07:00      103.624       60.423       23.847       75.280       61.573       56.437     5667.081     3791.256     3185.142        1.380        0.632      119.954       27.123        0.051      345.032       22.273      864.524
05/31/2013  13:08:00      182.100      152.363       -2.115      113.425       69.992       70.634    12865.260     4898.912     4989.204        3.956        1.138      237.434       45.939        0.037      345.017       22.244      864.517
05/31/2013  13:09:00      130.782       84.414       14.901      101.932       69.714       44.590    10390.081     4860.022     1988.292        2.084        0.862      155.659       26.000        0.028      345.280       22.695      864.507
05/31/2013  13:10:00       60.083       49.909       33.909       56.528       68.972       58.920     3195.393     4757.171     3471.521        0.934        0.571       78.108       15.272        0.038      345.649       23.329      864.497
05/31/2013  13:11:00      181.624      101.225      113.452      130.229      135.218       80.221    16959.613    18283.917     6435.415        4.889        2.084      207.927       65.385        0.099      345.372       22.854      864.464
05/31/2013  13:12:00      130.616       65.862       60.187      122.563       78.870       60.057    15021.675     6220.477     3606.873        2.493        1.242      146.282       38.251        0.068      345.189       22.540      864.471
05/31/2013  13:13:00       66.462      -62.657       25.112       80.836      100.462       62.381     6534.399    10092.700     3891.349        1.474        1.026       91.341       46.189        0.256      345.389       22.884      864.453
05/31/2013  13:14:00      127.935       86.373       30.410       90.051      100.688       60.349     8109.112    10138.164     3642.003        2.332        1.094      154.362       55.993        0.132      345.464       23.011      864.469
05/31/2013  13:15:00      129.415      118.578        8.798       93.938       71.264       53.487     8824.318     5078.627     2860.883        2.382        0.838      175.525       28.423        0.026      345.053       22.306      864.471
05/31/2013  13:16:00      229.625      138.556       22.974       83.920       82.948       53.671     7042.547     6880.353     2880.546        4.463        0.840      268.189       34.873        0.017      345.025       22.258      864.473
05/31/2013  13:17:00      147.550      132.461       46.867       93.914       95.113       71.846     8819.862     9046.475     5161.845        3.227        1.151      198.285       53.517        0.073      344.806       21.883      864.438
05/31/2013  13:18:00      138.663      105.933      168.175      113.173      146.156      107.934    12808.122    21361.597    11649.797        5.227        2.291      174.497      108.796        0.389      344.833       21.930      864.443
05/31/2013  13:19:00       92.972       66.929      156.656      125.459      170.004      108.830    15740.061    28901.480    11843.947        4.707        2.824      114.557      133.993        1.368      344.987       22.192      864.451
05/31/2013  13:20:00       42.553       25.256       65.763       87.105       96.042       66.943     7587.308     9223.980     4481.348        1.403        1.065       49.484       66.134        1.786      344.809       21.891      864.479
05/31/2013  13:21:00       51.171      -92.760        9.968       80.242       77.068       30.931     6438.826     5939.442      956.739        1.233        0.667      105.938       40.075        0.143      345.127       22.435      864.437
05/31/2013  13:22:00       76.525      -27.815       41.421       66.900      101.810       65.033     4475.562    10365.348     4229.289        1.370        0.954       81.423       70.164        0.743      344.814       21.900      864.415
05/31/2013  13:23:00       65.784       33.062       41.470       53.576       54.082       56.511     2870.427     2924.875     3193.518        0.806        0.449       73.625       38.161        0.269      344.825       21.918      864.420
05/31/2013  13:24:00       86.175       -5.289       12.125       51.738       72.853       38.792     2676.823     5307.613     1504.786        0.854        0.474       86.338       24.659        0.082      344.631       21.587      864.395
05/31/2013  13:25:00       87.071       73.837       70.596       73.321       55.678       41.178     5375.924     3100.071     1695.609        1.409        0.509      114.163       21.587        0.036      345.291       22.717      864.369
05/31/2013  13:26:00       38.594       60.684       12.710       28.572       41.008       31.994      816.375     1681.620     1023.607        0.443        0.176       71.917       22.820        0.101      345.232       22.617      864.378
05/31/2013  13:27:00       70.668       30.133       20.106       63.902       67.383       50.545     4083.503     4540.533     2554.749        0.874        0.559       76.825       28.502        0.138      344.951       22.134      864.377
05/31/2013  13:28:00      106.083      -19.910       25.858       69.751       91.270       58.191     4865.178     8330.253     3386.233        1.445        0.829      107.935       57.352        0.282      344.708       21.718      864.370
05/31/2013  13:29:00        0.633        3.003       11.697       41.252       42.179       27.872     1701.695     1779.033      776.830        0.220        0.213        3.069       27.653       81.173      344.966       22.160      864.364
05/31/2013  13:30:00       64.278       63.936       36.552       80.110       51.069       43.428     6417.649     2608.081     1885.986        1.023        0.546       90.662       28.873        0.101      345.214       22.584      864.376
05/31/2013  13:31:00       97.604      115.402       12.062      115.510      115.203       98.823    13342.483    13271.808     9765.890        2.968        1.819      151.143       73.127        0.234      345.220       22.593      864.354
05/31/2013  13:32:00       97.329      168.633        0.474      137.866      140.019       85.040    19007.051    19605.389     7231.813        4.187        2.292      194.705       79.997        0.169      345.392       22.887      864.311
05/31/2013  13:33:00      188.917      111.427       32.612      134.074       83.235       69.060    17975.890     6928.143     4769.269        3.942        1.484      219.329       47.962        0.048      345.420       22.935      864.311
05/31/2013  13:34:00      142.157       97.696       49.507       66.212       58.787       51.289     4384.012     3455.916     2630.534        2.134        0.524      172.490       29.451        0.029      345.225       22.601      864.328
05/31/2013  13:35:00       -2.036        7.148        4.995       64.276       79.396       40.347     4131.342     6303.716     1627.898        0.607        0.603        7.432       33.761       20.636      345.346       22.810      864.333
05/31/2013  13:36:00       45.407       -2.873       33.756       65.719       57.172       40.540     4319.035     3268.604     1643.477        0.622        0.462       45.498       26.494        0.339      345.515       23.100      864.322
05/31/2013  13:37:00      151.978       53.027       28.283       77.039       78.997       54.186     5935.035     6240.541     2936.100        2.091        0.756      160.963       29.187        0.033      345.107       22.400      864.305
05/31/2013  13:38:00       77.857      -91.928       10.413       83.877      104.119       71.649     7035.326    10840.728     5133.556        1.881        1.150      120.468       55.343        0.211      345.572       23.196      864.277
05/31/2013  13:39:00      107.364     -184.663       -5.783       92.960      170.495       81.789     8641.549    29068.428     6689.432        4.502        2.220      213.606      101.931        0.228      345.246       22.637      864.261
05/31/2013  13:40:00      184.806       18.196      110.504      124.886       98.001       96.233    15596.477     9604.256     9260.787        4.057        1.723      185.700       75.934        0.167      345.491       23.056      864.241
05/31/2013  13:41:00      172.991      -18.772       80.028      153.947      195.329      122.644    23699.792    38153.228    15041.605        5.678        3.845      174.006      144.893        0.693      345.462       23.007      864.224
05/31/2013  13:42:00      187.578     -106.440       22.581      141.492      235.234      132.600    20019.857    55335.153    17582.882        6.997        4.647      215.674      163.408        0.574      345.309       22.744      864.221
05/31/2013  13:43:00      115.762      -77.451       16.024      101.653      141.111       83.670    10333.402    19912.330     7000.738        2.845        1.862      139.282       97.798        0.493      345.401       22.904      864.243
05/31/2013  13:44:00       69.112     -169.573       -6.898       68.653       66.899       38.812     4713.213     4475.473     1506.389        2.214        0.535      183.117       27.574        0.023      345.179       22.524      864.251
05/31/2013  13:45:00      103.405     -189.573      -20.677       70.073       62.011       39.729     4910.167     3845.401     1578.411        2.869        0.517      215.941       29.887        0.019      345.320       22.765      864.230
05/31/2013  13:46:00      159.623     -194.345      -26.971       86.037       78.171       57.498     7402.369     6110.700     3306.032        4.040        0.841      251.495       53.543        0.045      345.381       22.867      864.221
05/31/2013  13:47:00      101.927     -172.815      -19.605       86.228      100.878       63.462     7435.338    10176.469     4027.404        3.114        1.082      200.635       67.255        0.112      345.235       22.617      864.226
05/31/2013  13:48:00       12.127      -16.947       34.620       35.626       59.363       53.057     1269.215     3523.980     2815.068        0.462        0.380       20.839       31.764        2.323      345.510       23.092      864.211
05/31/2013  13:49:00        2.143       15.782       -1.378       11.458       10.881       14.241      131.293      118.405      202.820        0.035        0.023       15.927        8.325        0.273      345.317       22.759      864.177
05/31/2013  13:50:00      -10.194       12.717       11.631       37.390       23.928       31.143     1398.039      572.550      969.904        0.167        0.147       16.298       21.642        1.763      346.064       24.044      864.181
05/31/2013  13:51:00       44.881       59.803       28.442       45.457       31.244       37.256     2066.342      976.162     1388.040        0.541        0.222       74.771       23.219        0.096      346.113       24.127      864.182
05/31/2013  13:52:00      160.182       86.499       29.824       78.241       54.760       44.026     6121.690     2998.681     1938.264        2.254        0.553      182.045       26.795        0.022      345.989       23.912      864.174
05/31/2013  13:53:00      291.183      206.848       32.447      155.355      100.120       72.178    24135.109    10023.983     5209.606        8.399        1.968      357.175       44.901        0.016      345.645       23.321      864.171
05/31/2013  13:54:00      128.084      130.737       23.808      131.757       99.182       84.789    17359.835     9837.156     7189.096        3.422        1.719      183.024       64.242        0.123      345.538       23.138      864.174
05/31/2013  13:55:00       98.725      129.439        3.060       93.222       99.308       63.765     8690.360     9862.047     4066.001        2.456        1.131      162.792       61.803        0.144      345.154       22.480      864.158
05/31/2013  13:56:00       75.897       64.684       13.044       89.415       86.901       52.900     7995.092     7551.780     2798.369        1.423        0.917       99.722       44.779        0.202      345.550       23.159      864.141
05/31/2013  13:57:00      122.621       69.378       38.527      100.208       75.979       75.421    10041.639     5772.821     5688.387        2.141        1.075      140.887       58.375        0.172      345.896       23.752      864.142
05/31/2013  13:58:00      202.816      155.105       53.953      114.966      105.747       94.667    13217.187    11182.337     8961.908        5.073        1.668      255.327       59.560        0.054      346.000       23.929      864.138
05/31/2013  13:59:00      275.205      174.462       28.854      135.255      140.496       74.801    18294.012    19739.022     5595.126        7.531        2.181      325.845       44.979        0.019      345.469       23.018      864.165
05/31/2013  14:00:00      131.360      101.129       90.892      120.424      100.444       78.703    14501.841    10089.053     6194.225        3.326        1.539      165.779       67.616        0.166      345.814       23.612      864.150
05/31/2013  14:01:00      262.124      171.171       96.944      154.354      115.141      101.981    23825.016    13257.392    10400.098        7.744        2.374      313.063       69.758        0.050      345.754       23.508      864.143
05/31/2013  14:02:00      125.864       31.234       24.580      110.119      112.539       65.784    12126.156    12665.138     4327.503        2.327        1.456      129.682       48.202        0.138      346.205       24.284      864.170
05/31/2013  14:03:00      213.252      114.555       38.657       90.018       67.744       63.466     8103.152     4589.285     4027.970        3.840        0.836      242.073       49.784        0.042      345.773       23.539      864.183
05/31/2013  14:04:00      155.495       75.733       24.759      104.585       89.403       47.511    10938.057     7992.870     2257.292        2.585        1.059      172.957       32.342        0.035      345.877       23.719      864.171
05/31/2013  14:05:00      120.202       56.727       31.626      101.999       75.725       69.530    10403.820     5734.346     4834.416        1.982        1.049      132.915       41.679        0.098      346.102       24.106      864.178
05/31/2013  14:06:00       60.517       39.493       65.165       95.513       75.534       57.115     9122.672     5705.417     3262.172        1.378        0.905       72.263       40.562        0.315      346.041       24.004      864.179
05/31/2013  14:07:00       45.337       51.134       27.702       80.836       77.610       54.871     6534.532     6023.352     3010.824        1.050        0.778       68.338       43.603        0.407      345.922       23.801      864.153
05/31/2013  14:08:00       12.566      115.599       26.761       82.642      126.070       69.526     6829.780    15893.681     4833.910        2.089        1.378      116.280       73.458        0.399      345.823       23.627      864.108
05/31/2013  14:09:00      159.519      120.673       38.337      162.890      119.183       77.837    26533.215    14204.585     6058.556        4.413        2.340      200.021       59.789        0.089      346.070       24.052      864.080
05/31/2013  14:10:00       21.106       37.935       93.681       79.049      100.291       74.612     6248.800    10058.236     5567.008        1.626        1.094       43.411       67.790        2.438      346.268       24.393      864.100
05/31/2013  14:11:00      113.002      -69.892       27.143      121.776      104.966       78.025    14829.362    11017.811     6087.827        2.516        1.597      132.870       73.324        0.305      345.926       23.804      864.097
05/31/2013  14:12:00      221.711     -225.518       -0.518      151.948      170.998       78.665    23088.258    29240.175     6188.253        7.926        2.926      316.251       99.914        0.100      345.685       23.390      864.075
05/31/2013  14:13:00      189.363       11.021      107.033      134.847      184.820      120.743    18183.789    34158.438    14578.768        5.717        3.346      189.683      132.372        0.487      345.848       23.669      864.053
05/31/2013  14:14:00      217.682     -113.208       53.117      108.407      158.414       89.858    11752.078    25095.050     8074.482        5.396        2.246      245.360       89.877        0.134      345.768       23.533      864.075
05/31/2013  14:15:00       82.174       56.115      118.629       92.791      106.967       86.498     8610.165    11441.843     7481.879        2.575        1.377       99.506       84.932        0.729      345.796       23.581      864.100
05/31/2013  14:16:00       23.265      -23.521       11.655       59.724       91.041       43.782     3566.971     8288.422     1916.849        0.750        0.689       33.083       28.986        0.768      345.795       23.580      864.082
05/31/2013  14:17:00       10.380       25.465        2.233       49.445       50.223       32.640     2444.856     2522.380     1065.367        0.340        0.302       27.499       31.924        1.348      345.844       23.665      864.051
05/31/2013  14:18:00       46.878       53.851       17.790       60.586       44.836       45.333     3670.612     2010.301     2055.049        0.657        0.387       71.396       27.287        0.146      345.551       23.164      864.023
05/31/2013  14:19:00       -0.530       45.462       22.815       30.251       47.136       34.773      915.103     2221.770     1209.195        0.347        0.217       45.465       14.849        0.107      345.689       23.398      864.023
05/31/2013  14:20:00       80.488       19.929      116.063      125.527      159.927      103.441    15757.137    25576.555    10699.949        3.618        2.602       82.919      113.444        1.872      346.065       24.042      864.048
05/31/2013  14:21:00      144.726     -134.784       50.261      123.233      176.467       87.706    15186.289    31140.765     7692.392        4.782        2.701      197.768       97.643        0.244      346.111       24.122      864.008
05/31/2013  14:22:00      154.123      -83.573       54.023      139.817      197.135       79.948    19548.714    38862.240     6391.631        4.922        3.240      175.324      101.880        0.338      345.998       23.926      864.034
05/31/2013  14:23:00      122.669       65.833       65.284      118.306       81.799       79.015    13996.264     6691.058     6243.448        2.528        1.347      139.218       63.341        0.207      345.983       23.901      864.079
05/31/2013  14:24:00        5.039      -85.321       -0.412       61.933       79.355       33.046     3835.692     6297.236     1092.028        0.926        0.561       85.470       31.239        0.134      346.013       23.955      864.071
05/31/2013  14:25:00      102.033       16.416       27.550       85.509       82.920       41.810     7311.776     6875.652     1748.068        1.368        0.797      103.345       33.475        0.105      346.004       23.938      864.065
05/31/2013  14:26:00       72.861       43.954       74.113       86.452       45.823       51.369     7473.969     2099.750     2638.766        1.247        0.611       85.092       43.283        0.259      345.919       23.794      864.069
05/31/2013  14:27:00      163.266      -27.896       52.971      152.721      135.391       83.147    23323.709    18330.601     6913.423        3.940        2.428      165.632       93.956        0.322      345.568       23.189      864.054
05/31/2013  14:28:00      111.067       82.132       77.186       73.149       71.546       63.634     5350.748     5118.840     4049.252        1.978        0.726      138.136       44.798        0.105      345.570       23.194      864.069
05/31/2013  14:29:00       34.086       21.349       41.774       50.449       85.455       54.229     2545.132     7302.572     2940.800        0.807        0.639       40.219       53.864        1.794      345.922       23.798      864.064
05/31/2013  14:30:00       99.596       38.926       61.077       82.868       84.095       79.850     6867.084     7072.014     6376.053        1.774        1.016      106.933       71.588        0.448      345.869       23.706      864.057
05/31/2013  14:31:00      132.904      101.123       74.198      105.626       75.524       75.132    11156.906     5703.853     5644.860        2.795        1.125      167.001       67.878        0.165      345.726       23.460      864.055
05/31/2013  14:32:00      121.097      136.772      117.813       77.930       75.717       64.792     6073.147     5733.072     4198.056        3.162        0.800      182.677       43.698        0.057      345.493       23.060      864.036
05/31/2013  14:33:00       28.486       -5.717       39.348       40.153       36.496       31.360     1612.250     1331.922      983.465        0.316        0.196       29.054       28.977        0.995      345.749       23.502      863.997
05/31/2013  14:34:00      102.329       66.233       21.570       69.104       45.103       40.341     4775.382     2034.250     1627.391        1.188        0.422      121.893       16.229        0.018      345.511       23.092      863.970
05/31/2013  14:35:00      111.711       44.699       -1.204       80.570       81.549       47.871     6491.560     6650.272     2291.589        1.495        0.772      120.322       17.754        0.022      345.724       23.459      863.971
05/31/2013  14:36:00       -1.577       65.019       12.667       72.125       70.972       43.592     5201.992     5037.036     1900.244        0.826        0.607       65.039       43.698        0.451      346.053       24.024      863.967
05/31/2013  14:37:00      -24.212       -3.941       -0.682       41.596       55.335       31.894     1730.191     3061.961     1017.220        0.320        0.290       24.531       18.968        0.598      346.157       24.202      863.959
05/31/2013  14:38:00       49.195       53.938       21.633       42.447       40.277       36.519     1801.721     1622.212     1333.667        0.528        0.238       73.004       24.001        0.108      346.228       24.325      863.957
05/31/2013  14:39:00       66.776       64.866        4.226       62.632       49.094       29.634     3922.748     2410.229      878.148        0.795        0.361       93.094       23.778        0.065      345.920       23.796      863.957
05/31/2013  14:40:00       66.757       47.419       44.360       77.643       51.701       36.590     6028.484     2672.949     1338.862        0.935        0.502       81.884       35.707        0.190      346.240       24.345      863.937
05/31/2013  14:41:00       24.398       17.767       63.449       70.179      100.529       64.466     4925.049    10105.993     4155.878        1.206        0.959       30.181       73.276        5.895      346.482       24.761      863.934
05/31/2013  14:42:00      112.282      -78.552       45.593      113.695      152.419       79.983    12926.666    23231.594     6397.293        3.170        2.128      137.032      103.178        0.567      346.189       24.254      863.937
05/31/2013  14:43:00      163.694     -114.128       24.298       98.877      150.641       90.272     9776.742    22692.735     8149.118        4.051        2.031      199.552       90.914        0.208      345.865       23.697      863.934
05/31/2013  14:44:00       79.285     -135.292       10.994      110.784      119.481       65.461    12273.017    14275.718     4285.204        2.777        1.542      156.812       64.720        0.170      346.143       24.176      863.890
05/31/2013  14:45:00        7.594      -35.151       44.889       49.294       79.160       51.567     2429.871     6266.284     2659.145        0.733        0.568       35.962       49.210        1.872      346.402       24.625      863.877
05/31/2013  14:46:00      153.162      116.595       88.385      127.815       95.413       65.650    16336.629     9103.655     4309.982        3.730        1.488      192.491       66.066        0.118      346.450       24.705      863.879
05/31/2013  14:47:00       94.368       74.600       35.712      113.408       57.085       68.744    12861.300     3258.754     4725.790        1.829        1.042      120.293       43.331        0.130      346.496       24.783      863.881
05/31/2013  14:48:00       93.513       53.787       85.120       94.478       73.706       48.975     8926.096     5432.541     2398.503        1.782        0.838      107.879       39.901        0.137      346.612       24.983      863.872
05/31/2013  14:49:00       93.497       94.429       81.333      106.419       74.254       64.172    11325.091     5513.609     4117.983        2.261        1.048      132.886       63.926        0.231      346.437       24.682      863.876
05/31/2013  14:50:00      289.798      179.983       46.816      174.806      104.583      104.905    30557.178    10937.528    11005.135        8.553        2.625      341.140       48.750        0.020      346.167       24.217      863.848
05/31/2013  14:51:00      355.781      150.746       42.537      153.029      124.846       98.169    23417.761    15586.632     9637.234        9.987        2.432      386.399       57.120        0.022      346.015       23.954      863.865
05/31/2013  14:52:00      161.309      122.190       32.340      137.723       97.883       63.447    18967.568     9580.991     4025.463        3.728        1.629      202.363       38.706        0.037      346.066       24.046      863.888
05/31/2013  14:53:00      216.373      125.036       33.581      111.078       78.897       51.327    12338.399     6224.813     2634.496        4.238        1.060      249.902       47.521        0.036      345.936       23.820      863.874
05/31/2013  14:54:00      300.130      159.187       53.318      107.338       95.429       80.118    11521.463     9106.756     6418.847        7.265        1.352      339.733       57.669        0.029      346.110       24.119      863.862
05/31/2013  14:55:00      227.952      134.276       61.487      118.741       95.095       81.891    14099.505     9043.110     6706.123        5.181        1.492      264.560       54.029        0.042      345.870       23.706      863.876
05/31/2013  14:56:00      201.601       96.360        6.523       95.260       76.398       57.031     9074.483     5836.655     3252.528        3.406        0.908      223.446       33.250        0.022      345.861       23.693      863.863
05/31/2013  14:57:00       82.228      182.591      -12.055       84.965       96.189       55.812     7219.033     9252.347     3114.976        2.991        0.979      200.252       58.057        0.084      345.796       23.580      863.841
05/31/2013  14:58:00      -42.417      191.791      -25.726       55.972       79.340       38.356     3132.859     6294.909     1471.168        2.507        0.545      196.425       41.749        0.045      345.871       23.709      863.803
05/31/2013  14:59:00      -59.329      282.901      -34.827       68.742       82.399       42.494     4725.468     6789.551     1805.725        4.904        0.666      289.055       43.496        0.023      345.740       23.481      863.794
05/31/2013  15:00:00      -43.610      214.518       -6.760       61.371      124.604       51.680     3766.458    15526.275     2670.785        3.496        1.098      218.906       68.212        0.097      346.023       23.971      863.787
05/31/2013  15:01:00       67.235       89.894       61.684       89.159       82.894       70.977     7949.327     6871.412     5037.800        1.813        0.993      112.256       43.937        0.153      346.481       24.759      863.792
05/31/2013  15:02:00       21.583       50.199       90.955      108.158      114.337       70.380    11698.056    13072.914     4953.318        2.049        1.486       54.642       76.454        1.958      346.774       25.263      863.798
05/31/2013  15:03:00       34.648       -0.703      108.227      100.003      158.760      105.886    10000.672    25204.829    11211.841        2.966        2.321       34.655      112.600       10.557      346.797       25.302      863.793
05/31/2013  15:04:00       58.133      -14.855       90.260       74.919      186.923      118.180     5612.928    34940.339    13966.445        3.312        2.726       60.001      135.547        5.104      346.428       24.667      863.796
05/31/2013  15:05:00       39.002       19.721       81.077       81.767      101.046       63.648     6685.784    10210.212     4051.035        1.471        1.047       43.705       61.137        1.957      346.740       25.204      863.806
05/31/2013  15:06:00      137.065       65.067       88.453      117.339      119.518       83.185    13768.480    14284.659     6919.750        3.290        1.749      151.725       70.000        0.213      346.513       24.813      863.798
05/31/2013  15:07:00      162.393      108.425       87.002      139.645       94.353       73.534    19500.609     8902.430     5407.203        3.975        1.691      195.262       81.409        0.174      346.320       24.480      863.795
05/31/2013  15:08:00      196.029      129.771       35.213       85.838       63.696       48.013     7368.178     4057.138     2305.295        3.512        0.687      235.091       39.998        0.029      346.031       23.985      863.789
05/31/2013  15:09:00      102.663       57.079       -1.665      112.075       65.486       50.657    12560.852     4288.436     2566.172        1.660        0.971      117.464       47.136        0.161      345.801       23.589      863.784
05/31/2013  15:10:00      -98.050      -14.934      -28.609       80.419       54.772       30.480     6467.144     2999.985      929.005        1.052        0.520       99.180       17.223        0.030      345.798       23.586      863.734
05/31/2013  15:11:00       -5.182        2.792       38.007       94.136       81.733       69.510     8861.529     6680.212     4831.594        1.092        1.019        5.886       68.301      134.647      346.218       24.307      863.740
05/31/2013  15:12:00      186.384        2.426       63.561      103.950      122.761       65.892    10805.612    15070.219     4341.786        3.450        1.511      186.400       60.594        0.106      346.247       24.355      863.757
05/31/2013  15:13:00      234.230      162.497       97.944      153.049      108.390       98.852    23423.973    11748.435     9771.717        6.790        2.247      285.077       82.976        0.085      346.050       24.015      863.734
05/31/2013  15:14:00      174.882      -45.976       24.920      112.149      182.015       74.871    12577.479    33129.375     5605.730        4.231        2.566      180.825       77.768        0.185      346.126       24.147      863.708
05/31/2013  15:15:00      249.645     -235.692      -18.442      113.283      126.084       73.416    12833.075    15897.190     5389.894        7.616        1.706      343.327       80.985        0.056      346.053       24.020      863.676
05/31/2013  15:16:00      109.995       34.935      103.078      105.058      133.996       84.998    11037.277    17955.056     7224.603        3.007        1.811      115.409      107.277        0.864      346.066       24.045      863.693
05/31/2013  15:17:00       71.890       25.424       55.024       59.131       49.726       42.864     3496.461     2472.721     1837.346        0.832        0.390       76.253       39.280        0.265      346.162       24.211      863.692
05/31/2013  15:18:00       23.213      -44.848       29.440       49.030       58.217       38.700     2403.968     3389.239     1497.712        0.535        0.365       50.500       20.266        0.161      346.725       25.179      863.677
05/31/2013  15:19:00       10.105        3.969       46.646       40.476       58.936       27.728     1638.318     3473.490      768.850        0.409        0.294       10.856       23.408        4.649      346.835       25.369      863.655
05/31/2013  15:20:00       46.655     -133.360       -5.785       61.739       62.419       45.809     3811.650     3896.162     2098.448        1.490        0.490      141.285       33.983        0.058      346.423       24.658      863.637
05/31/2013  15:21:00      146.983      -57.880       19.073       86.765      177.339       92.427     7528.232    31449.027     8542.840        3.641        2.376      157.968       93.774        0.352      346.108       24.114      863.629
05/31/2013  15:22:00      150.578      128.399       61.528       46.194       34.599       36.361     2133.900     1197.112     1322.096        2.380        0.233      197.889       25.949        0.017      345.800       23.587      863.639
05/31/2013  15:23:00       85.216       96.531       47.174       75.530       89.943       75.780     5704.826     8089.666     5742.576        1.917        0.977      128.763       41.950        0.106      345.994       23.921      863.589
05/31/2013  15:24:00      165.552       98.855      145.977      111.583      122.548       99.279    12450.760    15017.922     9856.296        4.790        1.866      192.821       87.245        0.205      346.035       23.989      863.577
05/31/2013  15:25:00      175.872      111.231      149.280      146.191      153.727      112.035    21371.750    23632.050    12551.860        6.156        2.878      208.095      102.453        0.242      346.007       23.942      863.554
05/31/2013  15:26:00      195.435      -38.266       71.532      149.428      138.055       82.879    22328.834    19059.177     6868.929        4.651        2.413      199.146       97.031        0.237      346.278       24.407      863.525
05/31/2013  15:27:00      119.886       35.986      165.441      159.710      202.067      152.592    25507.420    40830.944    23284.254        6.632        4.481      125.170      161.862        1.672      346.518       24.820      863.481
05/31/2013  15:28:00      181.749       10.929      106.082      179.190      156.869       92.823    32108.909    24607.938     8616.028        5.486        3.267      182.077      113.956        0.392      346.505       24.799      863.544
05/31/2013  15:29:00      137.308     -105.823       63.053       87.913      144.960       93.097     7728.636    21013.506     8667.006        3.571        1.870      173.355      105.634        0.371      346.386       24.594      863.590
05/31/2013  15:30:00      207.416     -138.928       49.581      144.281      187.484       92.097    20816.991    35150.074     8481.858        6.460        3.222      249.645      119.669        0.230      346.171       24.224      863.609
05/31/2013  15:31:00      265.383     -304.175      -59.129       81.970       91.563       46.534     6719.148     8383.764     2165.401        9.185        0.863      403.671       41.934        0.011      346.042       24.002      863.591
05/31/2013  15:32:00      137.259     -164.981        1.842       67.761      118.156       61.664     4591.567    13960.787     3802.451        3.420        1.118      214.613       63.699        0.088      346.451       24.706      863.602
05/31/2013  15:33:00       60.943      -53.946       36.370       64.505      135.700       77.559     4160.864    18414.432     6015.337        1.826        1.430       81.390       65.347        0.645      346.407       24.633      863.601
05/31/2013  15:34:00       69.688     -146.202       -5.041      131.885      121.320       66.358    17393.532    14718.433     4403.385        3.138        1.826      161.961       68.404        0.178      346.176       24.233      863.601
05/31/2013  15:35:00      -56.665      -40.179       -3.209      102.971       52.537       37.770    10603.009     2760.176     1426.594        0.981        0.739       69.464       30.609        0.194      346.573       24.917      863.575
05/31/2013  15:36:00       49.769      -40.860       53.256       76.696      110.378       63.680     5882.296    12183.339     4055.154        1.455        1.106       64.393       67.280        1.092      346.408       24.633      863.550
05/31/2013  15:37:00      110.531      107.481      112.414      112.162      112.339      107.409    12580.354    12620.003    11536.673        3.657        1.837      154.173       86.490        0.315      346.274       24.402      863.562
05/31/2013  15:38:00      -14.682       36.197        2.931       50.405       54.660       33.565     2540.618     2987.709     1126.597        0.409        0.333       39.061       28.218        0.522      346.277       24.409      863.555
05/31/2013  15:39:00       91.492       67.863       55.480       65.266       70.302       60.688     4259.716     4942.388     3683.061        1.447        0.644      113.913       40.352        0.125      346.590       24.946      863.579
05/31/2013  15:40:00       88.215       82.347       12.450       93.098       72.404       65.811     8667.251     5242.343     4331.153        1.648        0.912      120.677       43.600        0.131      346.388       24.599      863.573
05/31/2013  15:41:00       73.105        9.937       23.681       73.989       75.989       46.166     5474.384     5774.338     2131.291        0.969        0.669       73.777       19.638        0.071      346.456       24.717      863.563
05/31/2013  15:42:00      181.828      132.269       26.633       72.775       52.375       54.593     5296.206     2743.116     2980.378        3.114        0.551      224.848       11.054        0.002      346.477       24.748      863.555
05/31/2013  15:43:00      151.537      125.262       66.790       86.343       75.780       67.830     7455.166     5742.587     4600.907        3.045        0.890      196.606       44.210        0.051      346.466       24.731      863.555
05/31/2013  15:44:00      160.045      127.869       92.687      104.171       73.791       73.219    10851.572     5445.076     5361.058        3.610        1.083      204.853       45.619        0.050      346.496       24.783      863.555
05/31/2013  15:45:00       65.980       23.835       33.670       58.737       34.854       44.986     3450.021     1214.778     2023.704        0.637        0.334       70.153       25.882        0.136      346.230       24.328      863.565
05/31/2013  15:46:00      -51.715        3.069      -22.135       25.647       23.329       13.643      657.793      544.252      186.119        0.228        0.069       51.806       13.268        0.066      346.008       23.948      863.508
05/31/2013  15:47:00      -40.069      -14.422       11.045       41.635       31.811       26.364     1733.502     1011.966      695.082        0.269        0.172       42.585       29.225        0.471      346.551       24.881      863.494
05/31/2013  15:48:00        8.584       32.036       32.649       25.490       24.764       20.238      649.747      613.246      409.579        0.192        0.084       33.166       17.092        0.266      346.613       24.986      863.495
05/31/2013  15:49:00       82.592       67.894       43.021       47.646       33.446       33.881     2270.183     1118.655     1147.936        0.891        0.227      106.916       34.244        0.103      346.259       24.378      863.507
05/31/2013  15:50:00      219.209       96.330       46.437      106.542       94.354       75.302    11351.242     8902.744     5670.350        4.270        1.296      239.441       53.127        0.049      346.542       24.861      863.505
05/31/2013  15:51:00       45.999       75.336        1.249       78.607       84.245       44.828     6179.119     7097.261     2009.549        1.154        0.764       88.269       37.561        0.181      346.448       24.703      863.470
05/31/2013  15:52:00      -24.570       62.410        6.103       62.131       40.391       34.289     3860.207     1631.432     1175.730        0.560        0.333       67.072       31.853        0.226      346.598       24.960      863.435
05/31/2013  15:53:00       73.824       58.008       22.149       89.899       58.427       52.579     8081.762     3413.751     2764.586        1.178        0.713       93.887       30.551        0.106      346.547       24.872      863.444
05/31/2013  15:54:00       35.315       69.566       57.806       66.788       65.770       67.842     4460.681     4325.661     4602.503        1.141        0.669       78.016       32.053        0.169      346.849       25.393      863.448
05/31/2013  15:55:00      163.076      115.564       45.820      126.175       82.758       77.158    15920.013     6848.884     5953.343        3.538        1.436      199.872       54.196        0.074      346.717       25.163      863.427
05/31/2013  15:56:00      138.975      121.405       84.593      123.901       94.334       94.648    15351.384     8898.890     8958.298        3.720        1.660      184.535       68.310        0.137      346.471       24.740      863.422
05/31/2013  15:57:00      136.040       71.683       13.877       82.732       67.860       43.761     6844.544     4605.025     1915.048        1.860        0.668      153.770       33.037        0.046      346.553       24.883      863.423
05/31/2013  15:58:00      185.265      101.928       16.274       67.684       57.396       55.213     4581.130     3294.254     3048.462        2.795        0.546      211.453       24.979        0.014      346.386       24.592      863.419
05/31/2013  15:59:00       94.552       61.088       38.112       98.421       63.013       42.936     9686.786     3970.686     1843.481        1.481        0.775      112.570       36.645        0.106      346.812       25.327      863.401
05/31/2013  16:00:00       90.713      101.310        2.115       97.270       84.475       43.179     9461.379     7136.006     1864.446        1.848        0.923      135.987       43.506        0.102      346.872       25.429      863.416
05/31/2013  16:01:00      217.024      144.598       20.989       88.142       65.225       62.643     7769.011     4254.288     3924.149        4.220        0.797      260.784       21.116        0.007      346.469       24.735      863.409
05/31/2013  16:02:00      225.475      113.952       61.698      106.643      129.540       67.283    11372.805    16780.555     4526.952        5.015        1.634      252.634       20.850        0.007      346.573       24.914      863.399
05/31/2013  16:03:00      195.387      155.137       78.941      109.953      116.193      100.817    12089.597    13500.787    10164.060        5.211        1.788      249.487       85.364        0.117      346.391       24.601      863.397
05/31/2013  16:04:00      161.885      112.023       55.600       96.961       92.653       65.014     9401.412     8584.573     4226.762        3.203        1.111      196.866       53.000        0.072      346.350       24.532      863.413
05/31/2013  16:05:00       50.753      -53.962       47.518       56.558      136.409       71.800     3198.795    18607.300     5155.286        1.735        1.348       74.079       88.637        1.432      346.496       24.784      863.406
05/31/2013  16:06:00       26.846      -56.442       15.919       58.569       67.056       28.536     3430.282     4496.573      814.280        0.645        0.437       62.501       21.923        0.123      346.651       25.052      863.390
05/31/2013  16:07:00       99.105     -144.971      -16.323       96.408      100.461       64.387     9294.523    10092.511     4145.622        2.731        1.177      175.609       65.166        0.138      346.449       24.703      863.384
05/31/2013  16:08:00       85.981       25.701       36.547       62.931       68.251       55.874     3960.290     4658.179     3121.959        1.056        0.587       89.740       13.293        0.022      346.555       24.888      863.399
05/31/2013  16:09:00      150.930       43.456       47.305      143.697      124.235       81.796    20648.848    15434.328     6690.558        3.483        2.139      157.061       62.950        0.161      346.737       25.196      863.388
05/31/2013  16:10:00      141.236      163.803      176.294      138.757      119.948       88.825    19253.368    14387.451     7889.909        5.969        2.077      216.284       79.402        0.135      346.468       24.733      863.382
05/31/2013  16:11:00       72.321       44.134       70.583       89.293       81.078       70.661     7973.205     6573.688     4993.047        1.585        0.977       84.724       55.221        0.425      346.552       24.881      863.404
05/31/2013  16:12:00       71.981      -11.482       11.852       51.519       81.776       41.501     2654.172     6687.288     1722.347        0.826        0.553       72.891       36.606        0.252      346.415       24.647      863.404
05/31/2013  16:13:00       57.892     -147.587      -17.971       55.011       44.763       27.451     3026.204     2003.746      753.535        1.562        0.289      158.535       18.801        0.014      346.596       24.956      863.360
05/31/2013  16:14:00       11.405      -31.591       -4.368       50.337       87.246       50.355     2533.785     7611.870     2535.666        0.691        0.634       33.587       41.829        1.551      346.793       25.296      863.335
05/31/2013  16:15:00      -16.701      -11.259        1.734       42.667       54.408       24.468     1820.436     2960.263      598.685        0.289        0.269       20.142       22.825        1.284      346.729       25.186      863.339
05/31/2013  16:16:00       57.979       62.673       26.981       86.467       77.644       40.707     7476.491     6028.540     1657.099        1.159        0.758       85.378       32.981        0.149      346.634       25.022      863.334
05/31/2013  16:17:00      151.033       64.599       57.772      129.526       85.349       78.640    16777.030     7284.464     6184.224        3.028        1.512      164.268       48.650        0.088      346.645       25.038      863.322
05/31/2013  16:18:00      203.410      142.025       26.512      131.179       98.974       77.542    17208.045     9795.941     6012.793        4.763        1.651      248.086       57.933        0.055      346.486       24.765      863.321
05/31/2013  16:19:00      280.012      169.052       43.754      107.464       79.710       71.496    11548.571     6353.638     5111.697        6.595        1.151      327.086       21.783        0.004      346.336       24.506      863.324
05/31/2013  16:20:00      136.881       97.273       14.804       66.198       58.583       46.632     4382.230     3431.970     2174.538        1.920        0.499      167.924       34.847        0.043      346.303       24.452      863.326
05/31/2013  16:21:00       56.015       67.595        7.788       66.169       75.097       37.904     4378.392     5639.506     1436.701        0.961        0.573       87.788       39.599        0.203      346.453       24.712      863.328
05/31/2013  16:22:00      -24.501      139.124       -9.389       55.405      106.373       41.720     3069.688    11315.127     1740.536        1.808        0.806      141.265       45.778        0.105      346.564       24.900      863.303
05/31/2013  16:23:00       45.687      161.615       -8.674       77.264      108.119       63.758     5969.697    11689.701     4065.117        2.500        1.086      167.948       59.418        0.125      346.584       24.935      863.291
05/31/2013  16:24:00      115.883      148.021        8.214       81.990       81.021       58.423     6722.363     6564.413     3413.280        2.605        0.835      187.986       51.195        0.074      346.256       24.370      863.308
05/31/2013  16:25:00      184.587      103.382        3.596       54.137       74.648       47.839     2930.784     5572.334     2288.612        2.778        0.540      211.566       34.467        0.027      346.154       24.196      863.312
05/31/2013  16:26:00       57.972       33.084        7.499       42.302       34.397       37.504     1789.496     1183.154     1406.585        0.444        0.219       66.748       26.024        0.152      346.294       24.437      863.303
05/31/2013  16:27:00       13.319       79.069      -10.535       50.936       53.061       26.138     2594.494     2815.455      683.206        0.632        0.305       80.183       30.604        0.146      346.419       24.654      863.307
05/31/2013  16:28:00       97.095      165.332       -1.775      140.937       78.406       55.945    19863.129     6147.434     3129.841        3.295        1.457      191.734       61.782        0.104      346.412       24.638      863.293
05/31/2013  16:29:00      108.912       57.219       47.356       99.744       78.067       64.738     9948.878     6094.385     4191.024        1.880        1.012      123.028       49.437        0.161      346.546       24.869      863.289
05/31/2013  16:30:00      144.789      106.666       28.707       92.134       69.706       65.119     8488.659     4858.906     4240.542        2.537        0.879      179.838       52.285        0.085      346.651       25.050      863.305
05/31/2013  16:31:00      213.647      113.413       25.327       94.697       71.590       55.968     8967.599     5125.076     3132.442        3.818        0.861      241.884       33.690        0.019      346.695       25.124      863.321
05/31/2013  16:32:00      161.580       77.148        8.243       93.434       80.467       53.894     8729.837     6474.901     2904.585        2.512        0.905      179.053       31.474        0.031      346.651       25.050      863.340
05/31/2013  16:33:00      132.178       88.847       13.602       82.396       56.795       48.095     6789.112     3225.696     2313.165        1.894        0.616      159.263       37.773        0.056      346.357       24.544      863.336
05/31/2013  16:34:00      226.458      167.627       21.904       77.502       47.827       56.129     6006.574     2287.404     3150.448        4.565        0.572      281.748       33.831        0.014      346.308       24.456      863.321
05/31/2013  16:35:00      126.006       71.688       14.191       39.446       32.580       33.252     1555.997     1061.425     1105.669        1.247        0.186      144.971       19.162        0.017      346.238       24.341      863.318
05/31/2013  16:36:00       80.266       54.246       21.713       54.149       48.057       34.552     2932.152     2309.458     1193.835        0.814        0.322       96.877       18.760        0.037      346.471       24.742      863.316
05/31/2013  16:37:00       43.058       52.110       27.164       64.899       63.284       43.020     4211.848     4004.905     1850.733        0.769        0.503       67.597       29.545        0.191      346.536       24.854      863.307
05/31/2013  16:38:00       42.734       57.158      -10.152       30.092       40.251       19.196      905.529     1620.131      368.476        0.404        0.145       71.367       17.241        0.058      346.381       24.589      863.307
05/31/2013  16:39:00       11.808      -60.392       -2.556       34.826       62.616       25.914     1212.867     3920.709      671.519        0.480        0.290       61.535       32.955        0.287      346.666       25.078      863.293
05/31/2013  16:40:00        7.915      -36.357       -4.137       41.505       65.309       31.931     1722.701     4265.239     1019.594        0.420        0.350       37.209       32.220        0.750      347.045       25.730      863.284
05/31/2013  16:41:00       12.574      135.684      -15.406       43.829      101.716       32.086     1920.951    10346.225     1029.517        1.605        0.665      136.265       26.843        0.039      346.634       25.021      863.294
05/31/2013  16:42:00       65.110       65.376       13.836       92.837       97.603       48.377     8618.783     9526.441     2340.314        1.459        1.024       92.268       44.070        0.228      346.886       25.456      863.292
05/31/2013  16:43:00      -74.934      204.165      -33.319       46.438       81.287       31.767     2156.513     6607.611     1009.116        2.909        0.489      217.482       36.327        0.028      346.385       24.588      863.292
05/31/2013  16:44:00      -92.065       94.577      -14.890       64.326       55.455       45.885     4137.862     3075.292     2105.461        1.348        0.466      131.987       34.674        0.069      346.602       24.968      863.280
05/31/2013  16:45:00       20.099      222.053      -29.027       57.209       63.684       34.301     3272.826     4055.685     1176.576        2.953        0.425      222.961       24.236        0.012      346.283       24.415      863.288
05/31/2013  16:46:00      -25.580      127.926      -16.367       55.125       55.851       29.346     3038.747     3119.323      861.188        1.215        0.351      130.459       24.201        0.034      346.461       24.725      863.292
05/31/2013  16:47:00     -106.971       48.153      -14.267       25.366       29.968       20.202      643.451      898.063      408.122        0.796        0.097      117.310       13.641        0.014      346.465       24.731      863.279
05/31/2013  16:48:00      -79.765       51.569       -6.131       50.249      117.764       43.091     2524.934    13868.375     1856.822        1.365        0.913       94.983       42.612        0.201      346.612       24.985      863.263
05/31/2013  16:49:00       12.183      191.865      -18.169       85.297      121.125       50.579     7275.552    14671.183     2558.186        3.089        1.225      192.252       66.371        0.119      346.561       24.894      863.283
05/31/2013  16:50:00      120.681      151.324       12.605       91.903       83.309       68.674     8446.237     6940.401     4716.148        2.886        1.005      193.554       54.020        0.078      346.500       24.789      863.288
05/31/2013  16:51:00      132.661      106.309       -1.036       70.327       74.212       42.885     4945.826     5507.459     1839.161        2.059        0.615      170.001       30.575        0.032      346.466       24.732      863.294
05/31/2013  16:52:00       16.231       56.370       19.044       36.964       32.500       25.787     1366.368     1056.272      664.955        0.345        0.154       58.660       16.935        0.083      346.572       24.917      863.279
05/31/2013  16:53:00        9.806       66.698        0.740       25.043       49.880       23.379      627.160     2488.050      546.564        0.410        0.183       67.415       24.046        0.127      346.664       25.075      863.291
05/31/2013  16:54:00      -27.013       41.417        5.422       41.296       58.505       28.543     1705.380     3422.864      814.707        0.421        0.297       49.448       23.760        0.231      346.639       25.032      863.304
05/31/2013  16:55:00      -53.270       20.084      -12.540       20.668       26.019       14.809      427.151      676.963      219.313        0.236        0.066       56.930        5.812        0.010      346.562       24.899      863.308
05/31/2013  16:56:00      -39.650       24.634       13.924       30.613       20.351       24.459      937.178      414.168      598.228        0.216        0.097       46.680       15.423        0.109      346.867       25.425      863.298
05/31/2013  16:57:00       13.028       92.868        0.564       41.892       31.848       23.819     1754.917     1014.322      567.326        0.606        0.167       93.777       18.124        0.037      346.616       24.992      863.299
05/31/2013  16:58:00      -82.762      109.895      -15.106       35.273       42.041       32.949     1244.218     1767.444     1085.611        1.163        0.205      137.574       14.093        0.010      346.602       24.968      863.310
05/31/2013  16:59:00      -56.920      101.024      -19.456       19.945       37.183       20.576      397.802     1382.544      423.361        0.801        0.110      115.956       16.120        0.019      346.377       24.580      863.312
05/31/2013  17:00:00      -28.935       59.413      -10.496       34.035       40.094       22.658     1158.361     1607.544      513.387        0.388        0.164       66.085       19.436        0.086      346.577       24.925      863.311
05/31/2013  17:01:00      -30.660       30.051      -21.054       30.629       51.710       27.490      938.131     2673.958      755.688        0.333        0.218       42.931       22.435        0.273      346.463       24.728      863.307
05/31/2013  17:02:00       15.376      -56.009      -35.712       36.538       34.245       20.535     1335.011     1172.731      421.670        0.379        0.146       58.081       18.865        0.105      346.400       24.621      863.305
05/31/2013  17:03:00        9.572      -52.087      -13.479       39.376       38.067       18.325     1550.476     1449.091      335.822        0.316        0.167       52.959       14.850        0.079      346.568       24.909      863.296
05/31/2013  17:04:00        1.535      -35.874        2.256       49.614       47.337       25.083     2461.511     2240.829      629.180        0.331        0.267       35.907        9.563        0.071      346.931       25.534      863.274
05/31/2013  17:05:00       32.085     -132.097      -14.755       55.997      108.405       32.441     3135.667    11751.628     1052.439        1.732        0.797      135.938       32.001        0.055      346.658       25.063      863.246
05/31/2013  17:06:00       11.046      -54.646       17.774       47.921       51.282       37.199     2296.444     2629.800     1383.781        0.487        0.316       55.751       25.836        0.215      346.826       25.354      863.234
05/31/2013  17:07:00       41.738       -3.043       34.448       31.589       47.690       30.803      997.881     2274.321      948.814        0.358        0.211       41.848       28.542        0.465      346.863       25.418      863.250
05/31/2013  17:08:00       29.948        4.613       44.349       33.192       56.467       26.913     1101.690     3188.566      724.318        0.395        0.251       30.302       15.196        0.251      346.889       25.461      863.258
05/31/2013  17:09:00      148.052       95.287       41.634       55.809       41.764       41.081     3114.597     1744.217     1687.659        1.964        0.327      176.065       17.015        0.009      346.680       25.100      863.257
05/31/2013  17:10:00       69.441      -43.936       44.294       54.152       80.004       45.305     2932.402     6400.631     2052.499        1.005        0.569       82.173       50.207        0.373      346.837       25.372      863.246
05/31/2013  17:11:00       68.604     -118.406      -12.431       85.768       56.712       34.284     7356.233     3216.298     1175.407        1.531        0.587      136.845       36.826        0.072      346.653       25.054      863.238
05/31/2013  17:12:00      138.604     -227.805      -36.621       74.991       84.795       38.751     5623.647     7190.110     1501.607        4.338        0.716      266.657       30.343        0.013      346.572       24.912      863.201
05/31/2013  17:13:00      123.973     -145.153      -23.148       98.538      113.396       57.719     9709.695    12858.653     3331.474        3.143        1.295      190.889       83.963        0.193      346.549       24.873      863.192
05/31/2013  17:14:00       -2.286      -88.947       -1.998       81.833       57.196       41.785     6696.656     3271.347     1745.972        0.982        0.586       88.976       28.647        0.104      346.788       25.287      863.183
05/31/2013  17:15:00      -96.362     -127.279      -12.348       88.178       75.608       38.498     7775.419     5716.583     1482.113        2.030        0.749      159.642       36.536        0.052      346.877       25.439      863.171
05/31/2013  17:16:00      -81.069      -82.369       12.248       94.525       66.618       50.623     8935.068     4437.986     2562.692        1.472        0.797      115.572       62.944        0.297      346.938       25.544      863.156
05/31/2013  17:17:00       47.428      -53.626       10.719       53.489       41.779       40.716     2861.063     1745.497     1657.786        0.575        0.313       71.591       22.990        0.103      346.939       25.547      863.131
05/31/2013  17:18:00       52.845      -91.203       -7.958       46.681       28.438       31.240     2179.118      808.743      975.953        0.757        0.198      105.406       23.561        0.050      346.604       24.972      863.143
05/31/2013  17:19:00       70.008       45.244       32.939       84.527       57.915       45.952     7144.738     3354.142     2111.610        1.032        0.631       83.355       34.330        0.170      346.901       25.481      863.156
05/31/2013  17:20:00        2.478      141.336      -10.729       77.086       95.130       47.019     5942.244     9049.630     2210.815        1.865        0.860      141.358       53.930        0.146      346.860       25.412      863.164
05/31/2013  17:21:00       84.288       40.163       53.168       94.775       73.986       52.529     8982.325     5473.925     2759.279        1.438        0.861       93.368       51.771        0.307      347.019       25.684      863.152
05/31/2013  17:22:00      244.723      139.010       21.746       94.613       80.360       52.767     8951.526     6457.778     2784.312        4.894        0.910      281.448       46.152        0.027      346.570       24.910      863.145
05/31/2013  17:23:00      151.849       77.229       31.359       66.142       63.359       44.228     4374.725     4014.422     1956.132        2.017        0.517      170.360       25.388        0.022      346.659       25.064      863.137
05/31/2013  17:24:00      117.756       71.542       52.017       74.256       71.933       61.228     5513.964     5174.318     3748.892        1.806        0.722      137.785       36.872        0.072      346.835       25.367      863.117
05/31/2013  17:25:00      108.851       42.348       38.253       76.857       98.979       52.337     5907.059     9796.790     2739.162        1.677        0.922      116.798       45.390        0.151      346.691       25.120      863.135
05/31/2013  17:26:00       35.781      109.849       -9.832       37.839       90.347       39.313     1431.818     8162.581     1545.495        1.229        0.557      115.529       44.932        0.151      346.646       25.043      863.145
05/31/2013  17:27:00      120.916      218.744       -7.014      122.882       66.096       66.616    15099.936     4368.732     4437.642        4.321        1.195      249.940       64.266        0.066      346.508       24.803      863.120
05/31/2013  17:28:00      233.784      112.412       62.663      120.186       71.029       69.424    14444.666     5045.176     4819.668        4.776        1.215      259.406       57.854        0.050      346.802       25.309      863.106
05/31/2013  17:29:00      104.096      105.231       16.600       85.422       59.427       50.704     7296.874     3531.589     2570.884        1.779        0.670      148.019       31.560        0.045      346.744       25.209      863.127
05/31/2013  17:30:00       43.315      -22.129       27.788       41.841       31.322       25.288     1750.650      981.083      639.492        0.325        0.169       48.640       20.564        0.179      346.862       25.415      863.125
05/31/2013  17:31:00       47.066       48.340        4.354       49.493       67.890       40.979     2449.571     4609.022     1679.299        0.665        0.437       67.468       42.867        0.404      346.767       25.250      863.126
05/31/2013  17:32:00       35.835       74.099       -7.992       33.437       35.929       25.493     1118.057     1290.872      649.903        0.495        0.153       82.309        9.530        0.013      346.586       24.942      863.121
05/31/2013  17:33:00       40.583       47.704       -0.543       42.489       53.373       36.172     1805.278     2848.728     1308.396        0.494        0.298       62.631       22.932        0.134      346.647       25.045      863.108
05/31/2013  17:34:00       44.399      126.105      -17.888       43.085       40.574       26.472     1856.313     1646.212      700.780        1.120        0.210      133.692       23.486        0.031      346.584       24.936      863.092
05/31/2013  17:35:00       41.252      150.695       -1.422       70.385       84.358       58.569     4954.067     7116.246     3430.336        1.995        0.775      156.239       45.647        0.085      346.749       25.218      863.081
05/31/2013  17:36:00      206.646      113.072       22.214      122.114       74.336       61.465    14911.821     5525.904     3778.005        4.009        1.211      235.558       42.246        0.032      346.645       25.039      863.068
05/31/2013  17:37:00      177.640       99.529       38.355      111.304       71.960       56.087    12388.660     5178.232     3145.739        3.182        1.036      203.622       39.674        0.038      346.718       25.165      863.053
05/31/2013  17:38:00      170.172      100.363       25.384       73.293       60.034       56.479     5371.878     3604.112     3189.863        2.592        0.608      197.563       29.984        0.023      346.767       25.250      863.036
05/31/2013  17:39:00      122.858       55.071       41.273      108.112       57.988       53.796    11688.129     3362.596     2893.987        1.888        0.897      134.636       57.215        0.181      346.841       25.377      863.013
05/31/2013  17:40:00      172.180       89.858       57.133      103.045       71.651       62.006    10618.278     5133.918     3844.713        3.029        0.980      194.217       54.351        0.078      346.681       25.100      863.009
05/31/2013  17:41:00       35.533       24.299       44.453       54.824       62.338       44.603     3005.655     3886.068     1989.386        0.635        0.444       43.047       31.250        0.527      346.880       25.447      862.989
05/31/2013  17:42:00      180.827      113.643       46.227       96.416       56.352       55.748     9296.030     3175.522     3107.894        3.166        0.779      213.572       46.295        0.047      346.734       25.192      862.982
05/31/2013  17:43:00      108.722       85.177       48.076       67.403       49.606       39.910     4543.170     2460.776     1592.837        1.499        0.430      138.115       31.655        0.053      346.815       25.333      862.984
05/31/2013  17:44:00      134.176       60.488       25.798       90.597       59.822       45.794     8207.806     3578.657     2097.074        1.810        0.694      147.180       47.014        0.102      346.879       25.442      862.992
05/31/2013  17:45:00       26.853       97.398      -10.202       48.094       61.675       31.322     2313.060     3803.859      981.082        0.870        0.355      101.032       35.584        0.124      346.919       25.514      863.004
05/31/2013  17:46:00       21.751      204.128      -37.444       47.622       83.152       35.370     2267.816     6914.314     1251.028        2.699        0.522      205.284       45.423        0.049      346.727       25.180      863.011
05/31/2013  17:47:00      -69.054      153.872      -14.988       51.451       76.019       36.775     2647.190     5778.921     1352.421        1.922        0.489      168.657       42.818        0.064      346.846       25.386      863.016
05/31/2013  17:48:00     -106.436      110.516      -24.001       54.615       48.996       31.612     2982.782     2400.576      999.325        1.525        0.319      153.435       27.776        0.033      346.825       25.350      863.021
05/31/2013  17:49:00      -27.744      125.392      -16.220       34.149       41.588       17.539     1166.185     1729.534      307.615        0.998        0.160      128.425       13.998        0.012      346.600       24.966      863.020
05/31/2013  17:50:00      -37.159       96.408      -10.734       30.010       33.279       20.198      900.613     1107.519      407.943        0.660        0.121      103.322       19.688        0.036      346.591       24.947      863.022
05/31/2013  17:51:00       21.079      106.035        2.365       26.619       39.303       33.048      708.557     1544.688     1092.174        0.752        0.167      108.110       28.604        0.070      346.556       24.891      863.029
05/31/2013  17:52:00       -2.270       39.747       -7.928       23.800       21.098       13.943      566.441      445.115      194.395        0.143        0.060       39.812       14.321        0.129      346.647       25.045      863.046
05/31/2013  17:53:00        7.805        2.181       -0.040        8.119        8.553        7.385       65.916       73.158       54.543        0.013        0.010        8.104        4.554        0.316      346.751       25.224      863.048
05/31/2013  17:54:00       -6.046       19.925       -6.235       29.072       21.332       14.368      845.159      455.036      206.437        0.099        0.075       20.822       15.608        0.562      346.942       25.552      863.050
05/31/2013  17:55:00      -21.820       11.627        3.334       85.362       57.858       35.470     7286.595     3347.574     1258.087        0.626        0.595       24.725       37.904        2.350      346.964       25.589      863.051
05/31/2013  17:56:00      -37.497       15.013        5.069       43.394       33.720       27.163     1883.043     1137.012      737.836        0.271        0.188       40.391       16.776        0.173      347.146       25.904      863.060
05/31/2013  17:57:00      -24.748       15.635       13.611       38.803       36.891       25.659     1505.640     1360.939      658.364        0.228        0.176       29.273       24.455        0.698      347.195       25.989      863.067
05/31/2013  17:58:00      -52.200       -5.084       12.366       49.627       25.350       31.288     2462.816      642.627      978.937        0.349        0.204       52.447       33.782        0.415      347.163       25.933      863.059
05/31/2013  17:59:00      -21.213        4.374       12.145       54.545       24.468       26.928     2975.208      598.694      725.110        0.246        0.215       21.659       27.807        1.648      347.064       25.765      863.060
05/31/2013  18:00:00      -10.550        2.315       25.204       41.776       41.303       26.121     1745.234     1705.953      682.283        0.244        0.207       10.801       24.873        5.303      347.009       25.668      863.045
05/31/2013  18:01:00       36.731      -39.340       -1.938       34.985       49.252       21.597     1223.964     2425.753      466.418        0.351        0.206       53.822       17.310        0.103      347.059       25.754      863.042
05/31/2013  18:02:00       -0.823       25.304       14.584       34.435       15.139       20.494     1185.782      229.197      419.986        0.134        0.092       25.317       10.237        0.163      346.783       25.279      863.032
05/31/2013  18:03:00        3.190       44.879       -0.157       15.762       31.393       16.340      248.446      985.549      267.011        0.176        0.075       44.993       17.670        0.154      346.852       25.397      863.035
05/31/2013  18:04:00      -15.292       96.557       -6.697       26.025       61.210       22.955      677.282     3746.707      526.943        0.728        0.248       97.761       20.739        0.045      346.712       25.156      863.042
05/31/2013  18:05:00       -9.149      128.162      -18.844       24.220       47.181       21.581      586.585     2226.015      465.724        1.007        0.164      128.488       27.262        0.045      346.638       25.030      863.050
05/31/2013  18:06:00       99.361       89.796        6.810       93.173       59.413       45.811     8681.224     3529.858     2098.604        1.614        0.715      133.925       41.418        0.096      346.687       25.112      863.077
05/31/2013  18:07:00       28.665      216.197      -42.362       55.070       69.862       34.734     3032.726     4880.662     1206.428        2.924        0.456      218.089       39.371        0.033      346.693       25.121      863.066
05/31/2013  18:08:00      179.881      136.642       10.025       67.405       54.914       42.328     4543.414     3015.584     1791.686        3.024        0.468      225.894       31.829        0.020      346.615       24.986      863.068
05/31/2013  18:09:00      121.745       97.765       12.428       86.983       54.614       53.785     7566.056     2982.728     2892.837        1.899        0.672      156.140       43.253        0.077      346.590       24.945      863.060
05/31/2013  18:10:00       45.421       86.640        9.753       56.412       71.108       44.580     3182.272     5056.315     1987.349        0.994        0.511       97.824       38.612        0.156      346.675       25.092      863.047
05/31/2013  18:11:00      110.711       56.769       47.298       82.447       59.069       55.704     6797.507     3489.169     3102.976        1.555        0.669      124.417       43.633        0.123      346.683       25.107      863.028
05/31/2013  18:12:00      104.659        9.224        7.810       59.271       66.554       37.570     3513.023     4429.499     1411.477        1.023        0.468      105.064       34.343        0.107      346.694       25.126      863.029
05/31/2013  18:13:00       42.390       31.820       44.653       55.164       49.982       47.985     3043.032     2498.190     2302.546        0.632        0.392       53.004       42.873        0.654      346.800       25.307      863.020
05/31/2013  18:14:00       66.024       66.596       46.972       45.124       35.766       41.940     2036.207     1279.232     1758.964        0.804        0.254       93.778       33.658        0.129      346.671       25.086      863.022
05/31/2013  18:15:00      134.223       50.351       15.286       92.390       71.757       50.904     8535.984     5149.083     2591.184        1.853        0.814      143.356       40.915        0.081      346.712       25.155      863.003
05/31/2013  18:16:00       55.577      -11.513       65.536       59.492       63.114       43.976     3539.304     3983.375     1933.871        0.848        0.473       56.757       44.724        0.621      346.977       25.613      862.994
05/31/2013  18:17:00      113.127       77.221       38.249       87.498       69.206       53.989     7655.905     4789.530     2914.804        1.779        0.768      136.970       31.650        0.053      346.904       25.485      863.000
05/31/2013  18:18:00      175.131       94.154       18.944       40.607       48.431       30.436     1648.888     2345.595      926.358        2.241        0.246      198.836       22.170        0.012      346.625       25.004      863.031
05/31/2013  18:19:00       70.903       44.523       -0.058       71.213       56.921       41.508     5071.277     3239.960     1722.946        0.852        0.502       83.723       22.946        0.075      346.803       25.313      863.032
05/31/2013  18:20:00       10.668       31.477        3.151       36.147       49.945       22.208     1306.611     2494.548      493.178        0.270        0.215       33.236       22.196        0.446      346.942       25.552      863.046
05/31/2013  18:21:00       -1.614      167.042      -26.536       34.652       58.574       25.437     1200.731     3430.965      647.037        1.694        0.264      167.050       18.849        0.013      346.846       25.386      863.046
05/31/2013  18:22:00       19.147      134.003      -15.789       69.782       76.870       37.035     4869.535     5909.062     1371.567        1.536        0.608      135.364       34.286        0.064      346.834       25.365      863.046
05/31/2013  18:23:00       72.788       29.997       10.473       41.859       24.710       24.605     1752.196      610.603      605.411        0.464        0.148       78.727       10.119        0.017      346.797       25.303      863.063
05/31/2013  18:24:00        5.346       41.084       -2.115       24.337       40.504       21.598      592.309     1640.544      466.473        0.221        0.135       41.431       15.076        0.132      346.922       25.518      863.065
05/31/2013  18:25:00       14.659      132.343      -16.405       42.004       46.847       25.199     1764.295     2194.663      635.003        1.130        0.230      133.152       22.102        0.028      346.759       25.239      863.078
05/31/2013  18:26:00        7.910      140.887      -27.800       38.952       37.533       14.192     1517.286     1408.723      201.401        1.191        0.156      141.109       13.322        0.009      346.705       25.143      863.085
05/31/2013  18:27:00       44.098       78.224      -17.155       36.424       25.233       19.615     1326.711      636.704      384.756        0.535        0.117       89.798       12.709        0.020      346.779       25.273      863.094
05/31/2013  18:28:00       11.074       46.389       -7.323       51.234       36.899       22.341     2624.969     1361.549      499.134        0.341        0.224       47.692       14.849        0.097      346.880       25.446      863.103
05/31/2013  18:29:00       69.662       77.771        5.904       51.238       36.746       30.309     2625.292     1350.244      918.664        0.791        0.245      104.409       17.718        0.029      346.767       25.252      863.103
05/31/2013  18:30:00      141.910       96.989       18.838       52.443       36.432       43.097     2750.281     1327.274     1857.349        1.792        0.297      171.887       22.842        0.018      346.725       25.179      863.106
05/31/2013  18:31:00      109.841       72.894       14.821       50.786       36.002       28.293     2579.212     1296.130      800.473        1.114        0.234      131.828       18.390        0.019      346.665       25.074      863.106
05/31/2013  18:32:00       11.044       10.802       10.746       28.522       35.088       20.846      813.532     1231.173      434.558        0.142        0.124       15.448       21.974        2.023      346.903       25.485      863.100
05/31/2013  18:33:00      108.183      137.278       11.701       75.749       73.009       60.432     5737.871     5330.360     3652.066        2.270        0.736      174.782       48.105        0.076      346.777       25.268      863.105
05/31/2013  18:34:00      134.812      112.525       11.708       88.211       64.732       55.777     7781.194     4190.270     3111.125        2.303        0.754      175.603       35.354        0.041      346.752       25.224      863.109
05/31/2013  18:35:00       71.240      100.476       -4.778       76.181       74.032       47.735     5803.599     5480.698     2278.634        1.438        0.678      123.169       48.379        0.154      346.715       25.160      863.115
05/31/2013  18:36:00       72.214       26.054       10.463       55.219       44.008       30.589     3049.192     1936.685      935.703        0.596        0.296       76.770       15.578        0.041      346.795       25.299      863.123
05/31/2013  18:37:00      109.859       31.775       13.587       85.130       50.025       35.737     7247.202     2502.510     1277.118        1.214        0.551      114.362       23.480        0.042      346.650       25.049      863.123
05/31/2013  18:38:00       75.145       32.575       17.764       87.628       49.192       47.793     7678.710     2419.902     2284.160        0.970        0.619       81.902       31.941        0.152      346.830       25.360      863.125
05/31/2013  18:39:00       53.951       34.351       41.130       47.280       43.194       43.025     2235.391     1865.743     1851.131        0.587        0.298       63.958       27.952        0.191      346.651       25.051      863.133
05/31/2013  18:40:00      105.799       48.443       41.816       66.022       43.335       44.255     4358.948     1877.886     1958.481        1.174        0.410      116.362       33.411        0.082      346.819       25.342      863.133
05/31/2013  18:41:00       14.644      -17.914       17.187       61.330       34.075       37.820     3761.385     1161.095     1430.379        0.359        0.318       23.138       29.798        1.659      346.760       25.238      863.143
05/31/2013  18:42:00        0.909       17.280       31.801       14.950       17.075       11.362      223.498      291.556      129.090        0.098        0.032       17.304       11.517        0.443      346.874       25.435      863.140
05/31/2013  18:43:00       82.146       11.874       31.128       57.312       57.330       31.566     3284.707     3286.685      996.383        0.771        0.378       83.000       24.189        0.085      346.778       25.269      863.150
05/31/2013  18:44:00       57.014       37.177       33.457       44.043       39.273       38.236     1939.761     1542.336     1461.991        0.535        0.247       68.065       16.917        0.062      346.605       24.972      863.150
05/31/2013  18:45:00       79.859      -78.169        1.495       57.078       59.235       28.356     3257.861     3508.731      804.037        1.003        0.379      111.749       30.127        0.073      346.870       25.428      863.150
05/31/2013  18:46:00       39.006      -34.221       22.263       39.844       72.658       31.868     1587.576     5279.175     1015.563        0.553        0.394       51.890       29.152        0.316      346.839       25.376      863.146
05/31/2013  18:47:00       95.904       41.437       47.280       51.993       48.950       41.047     2703.316     2396.087     1684.846        0.997        0.339      104.473       31.029        0.088      346.593       24.952      863.154
05/31/2013  18:48:00       80.077        9.750       51.608       69.844       65.865       45.024     4878.146     4338.217     2027.197        1.021        0.562       80.668       56.019        0.482      346.625       25.008      863.155
05/31/2013  18:49:00       69.832       58.666       51.434       62.256       48.149       39.859     3875.823     2318.334     1588.715        0.937        0.389       91.204       32.809        0.129      346.729       25.186      863.159
05/31/2013  18:50:00      106.396       13.153       27.819       60.823       52.090       41.712     3699.434     2713.414     1739.898        1.021        0.408      107.206       32.320        0.091      346.682       25.105      863.168
05/31/2013  18:51:00       28.603       -1.066       28.746       32.285       39.376       25.818     1042.307     1550.504      666.562        0.245        0.163       28.623       16.976        0.352      346.734       25.195      863.165
05/31/2013  18:52:00       46.745     -135.883       -2.602       34.975       41.404       20.656     1223.286     1714.286      426.663        1.201        0.168      143.698       15.463        0.012      346.721       25.172      863.166
05/31/2013  18:53:00       -7.227      -39.871       -4.412       22.005       52.539       26.043      484.232     2760.315      678.221        0.279        0.196       40.520       19.949        0.242      346.962       25.588      863.169
05/31/2013  18:54:00       16.802       -0.615       20.639       19.263       23.421       15.433      371.068      548.525      238.171        0.093        0.058       16.813        9.422        0.314      346.853       25.399      863.176
05/31/2013  18:55:00       20.465       17.786        6.803       21.879       20.962       14.350      478.712      439.417      205.914        0.095        0.056       27.113       11.424        0.178      346.746       25.217      863.184
05/31/2013  18:56:00       17.189      -70.102      -19.849       26.843       42.322       23.469      720.544     1791.153      550.797        0.433        0.153       72.178        7.420        0.011      346.905       25.490      863.178
05/31/2013  18:57:00       16.823       26.103       16.349       34.209       24.167       21.714     1170.289      584.022      471.512        0.173        0.111       31.055       16.997        0.300      346.856       25.404      863.197
05/31/2013  18:58:00       49.806        6.498       16.161       49.356       30.355       28.789     2435.984      921.422      828.815        0.348        0.209       50.228       17.643        0.123      346.722       25.175      863.203
05/31/2013  18:59:00       80.100       13.200       39.985       65.038       43.548       32.311     4229.980     1896.468     1043.987        0.768        0.359       81.181       28.719        0.125      346.729       25.185      863.215
05/31/2013  19:00:00       31.886       27.991        9.818       37.235       23.668       21.843     1386.448      560.181      477.119        0.216        0.121       42.429       17.062        0.162      346.755       25.229      863.219
05/31/2013  19:01:00       82.897       76.341        5.245       49.782       34.496       32.979     2478.217     1189.995     1087.628        0.874        0.238      112.693       24.087        0.046      346.675       25.092      863.227
05/31/2013  19:02:00       69.939       38.629        6.428       35.933       30.196       20.424     1291.165      911.776      417.154        0.452        0.131       79.898        4.958        0.004      346.603       24.970      863.217
05/31/2013  19:03:00       29.585       22.687        0.203       30.641       23.049       18.740      938.889      531.272      351.180        0.161        0.091       37.282       13.011        0.122      346.706       25.146      863.209
05/31/2013  19:04:00       66.731       31.319        6.581       67.687       28.548       28.283     4581.477      814.989      799.920        0.584        0.310       73.715       17.932        0.059      346.630       25.016      863.209
05/31/2013  19:05:00       85.400       52.780        9.287       50.105       37.783       35.793     2510.479     1427.588     1281.120        0.769        0.261      100.394       15.978        0.025      346.643       25.039      863.211
05/31/2013  19:06:00      113.431       88.555        0.342       56.550       48.773       40.146     3197.915     2378.826     1611.675        1.395        0.359      143.905       30.993        0.046      346.719       25.167      863.213
05/31/2013  19:07:00       93.117       79.376        3.410       87.891       43.588       29.021     7724.879     1899.949      842.230        1.272        0.523      122.358       32.136        0.069      346.682       25.102      863.224
05/31/2013  19:08:00       64.249       33.016       14.390       44.443       39.370       26.957     1975.223     1550.033      726.685        0.484        0.213       72.236       18.289        0.064      346.653       25.055      863.227
05/31/2013  19:09:00       34.896       16.718       13.511       44.846       38.606       19.813     2011.182     1490.436      392.570        0.279        0.195       38.694       20.218        0.273      346.641       25.034      863.228
05/31/2013  19:10:00       45.664        9.855       21.635       61.777       24.415       23.667     3816.357      596.097      560.148        0.381        0.249       46.715       21.179        0.206      346.696       25.129      863.243
05/31/2013  19:11:00       99.845       72.917       16.283       50.526       46.621       38.107     2552.840     2173.549     1452.149        1.086        0.309      123.636       18.293        0.022      346.706       25.147      863.243
05/31/2013  19:12:00       30.745       15.791        7.382       37.926       36.841       26.452     1438.382     1357.248      699.703        0.237        0.175       34.563       16.724        0.234      346.659       25.065      863.248
05/31/2013  19:13:00       77.990        7.298       24.031       59.880       55.058       32.135     3585.563     3031.341     1032.659        0.718        0.382       78.331       17.130        0.048      346.590       24.946      863.242
05/31/2013  19:14:00       92.168       32.555        1.628       55.712       46.926       34.125     3103.868     2202.090     1164.548        0.801        0.324       97.749       35.637        0.133      346.740       25.204      863.232
05/31/2013  19:15:00      102.699       41.986       31.327       63.256       53.824       46.689     4001.353     2896.985     2179.847        1.118        0.454      110.950       31.823        0.082      346.573       24.919      863.231
05/31/2013  19:16:00       80.202       28.054       40.891       53.879       47.388       37.996     2902.963     2245.605     1443.667        0.774        0.330       84.967       27.854        0.107      346.549       24.876      863.224
05/31/2013  19:17:00       98.298       33.590       28.712       47.370       33.450       33.411     2243.875     1118.923     1116.300        0.805        0.224      103.878       31.351        0.091      346.511       24.809      863.211
05/31/2013  19:18:00       76.431       13.886       26.987       43.764       31.444       27.707     1915.307      988.732      767.690        0.522        0.184       77.683       26.088        0.113      346.638       25.030      863.199
05/31/2013  19:19:00       61.351        1.998        7.202       36.502       32.597       21.054     1332.428     1062.592      443.271        0.333        0.142       61.383       15.702        0.065      346.610       24.982      863.211
05/31/2013  19:20:00       93.588       58.964       41.415       41.435       33.358       26.651     1716.857     1112.740      710.285        0.874        0.177      110.614       18.762        0.029      346.644       25.040      863.220
05/31/2013  19:21:00       54.218       17.345        9.217       48.524       31.295       30.850     2354.583      979.355      951.746        0.380        0.214       56.925       25.225        0.196      346.669       25.083      863.218
05/31/2013  19:22:00       52.046       17.213       18.680       42.591       29.721       21.298     1813.986      883.321      453.589        0.325        0.158       54.818       14.471        0.070      346.678       25.096      863.218
05/31/2013  19:23:00       87.723       60.557       16.923       50.049       30.247       20.332     2504.935      914.897      413.391        0.774        0.192      106.595       14.106        0.018      346.644       25.041      863.227
05/31/2013  19:24:00      148.442       85.211       15.769       37.041       26.320       28.698     1372.065      692.768      823.558        1.622        0.144      171.161       11.133        0.004      346.649       25.049      863.222
05/31/2013  19:25:00       93.165       43.032       17.007       48.132       30.480       25.142     2316.699      929.006      632.107        0.735        0.194      102.623       11.745        0.013      346.623       25.004      863.223
05/31/2013  19:26:00       75.135       39.732        1.231       30.621       25.652       22.753      937.663      658.020      517.703        0.467        0.106       84.994        5.974        0.005      346.600       24.964      863.234
05/31/2013  19:27:00      102.293       61.504       19.506       54.504       36.979       26.492     2970.683     1367.465      701.850        0.983        0.252      119.359       18.367        0.024      346.570       24.912      863.234
05/31/2013  19:28:00      131.635       41.171       27.018       80.082       45.089       35.941     6413.123     2033.058     1291.743        1.474        0.487      137.923       14.140        0.011      346.556       24.887      863.234
05/31/2013  19:29:00      109.839       78.483       41.090       90.788       59.983       25.720     8242.379     3597.926      661.525        1.621        0.625      134.997       22.753        0.028      346.558       24.891      863.239
05/31/2013  19:30:00      131.395      100.813       23.186       66.389       47.627       44.276     4407.535     2268.336     1960.332        1.830        0.432      165.613       30.195        0.033      346.527       24.838      863.241
05/31/2013  19:31:00      143.723      101.522       11.059       69.736       42.341       49.666     4863.147     1792.794     2466.755        2.010        0.456      175.963       29.669        0.028      346.504       24.796      863.253
05/31/2013  19:32:00      155.170      110.039       29.534       64.395       44.320       42.422     4146.759     1964.235     1799.591        2.248        0.396      190.226       26.862        0.020      346.511       24.807      863.262
05/31/2013  19:33:00      153.679      118.961       17.703       65.828       52.682       39.713     4333.267     2775.387     1577.104        2.338        0.434      194.342       18.557        0.009      346.496       24.783      863.269
05/31/2013  19:34:00       81.515       60.204       10.255       58.915       33.347       33.329     3471.000     1112.040     1110.817        0.803        0.285      101.337       20.366        0.040      346.473       24.744      863.284
05/31/2013  19:35:00       47.646       62.391       -2.258       56.862       45.425       31.542     3233.259     2063.387      994.893        0.623        0.315       78.503       22.889        0.085      346.480       24.758      863.284
05/31/2013  19:36:00       35.622       69.713       -2.288       37.114       56.161       32.755     1377.421     3154.061     1072.871        0.587        0.280       78.287       33.739        0.186      346.436       24.683      863.298
05/31/2013  19:37:00       18.421      150.649      -24.961       30.564       37.562       18.822      934.169     1410.938      354.249        1.318        0.135      151.771       12.233        0.006      346.463       24.730      863.297
05/31/2013  19:38:00       40.024       91.736      -10.290       39.107       47.662       28.700     1529.340     2271.662      823.678        0.737        0.231      100.087       29.123        0.085      346.408       24.634      863.302
05/31/2013  19:39:00       35.051       52.360        0.893       36.558       42.149       32.266     1336.482     1776.504     1041.087        0.406        0.208       63.009       27.200        0.186      346.454       24.712      863.304
05/31/2013  19:40:00       42.093       70.007        6.717       45.280       44.607       37.273     2050.283     1989.799     1389.309        0.607        0.271       81.687       27.683        0.115      346.471       24.743      863.289
05/31/2013  19:41:00       43.417      140.673      -20.898       46.206       58.670       35.893     2135.002     3442.158     1288.277        1.449        0.343      147.220       33.542        0.052      346.445       24.698      863.284
05/31/2013  19:42:00       43.194      131.695      -12.714       66.996       73.010       39.186     4488.450     5330.521     1535.562        1.536        0.568      138.598       40.297        0.085      346.377       24.581      863.279
05/31/2013  19:43:00       50.003      121.059      -13.009       54.814       63.683       40.493     3004.600     4055.524     1639.699        1.301        0.435      130.979       36.351        0.077      346.350       24.534      863.285
05/31/2013  19:44:00       48.077      121.867      -10.809       53.850       72.835       48.036     2899.771     5304.945     2307.494        1.389        0.526      131.008       47.375        0.131      346.377       24.579      863.287
05/31/2013  19:45:00       36.665      140.470      -23.487       40.375       55.448       27.589     1630.178     3074.475      761.168        1.355        0.273      145.177       32.878        0.051      346.359       24.550      863.279
05/31/2013  19:46:00       42.576      144.148      -11.339       47.051       85.238       43.906     2213.791     7265.444     1927.720        1.706        0.570      150.304       47.932        0.102      346.341       24.518      863.280
05/31/2013  19:47:00       49.990      111.698       -1.229       62.920       79.946       52.674     3958.869     6391.316     2774.505        1.405        0.656      122.374       57.492        0.221      346.331       24.501      863.277
05/31/2013  19:48:00       42.802      150.654       -7.743       48.421       60.210       42.042     2344.596     3625.290     1767.515        1.616        0.387      156.616       34.138        0.048      346.274       24.404      863.286
05/31/2013  19:49:00       54.154      120.023       -8.012       49.298       64.579       49.829     2430.297     4170.489     2482.905        1.324        0.454      131.675       39.182        0.089      346.242       24.349      863.292
05/31/2013  19:50:00       40.651      168.817      -20.709       50.676       69.210       36.456     2568.059     4789.959     1329.026        1.963        0.434      173.642       32.941        0.036      346.220       24.309      863.300
05/31/2013  19:51:00       24.674      101.541       -9.852       45.920       49.678       34.258     2108.605     2467.884     1173.584        0.838        0.288      104.496       35.744        0.117      346.144       24.181      863.308
05/31/2013  19:52:00       45.637      128.987      -15.770       37.700       53.847       32.040     1421.295     2899.480     1026.545        1.216        0.267      136.822       32.131        0.055      346.173       24.229      863.308
05/31/2013  19:53:00       17.615       85.318       -9.777       32.833       53.339       31.303     1077.996     2845.046      979.907        0.629        0.245       87.118       33.411        0.147      346.097       24.099      863.315
05/31/2013  19:54:00       35.015      178.260      -24.692       39.894       45.110       33.987     1591.534     2034.946     1155.088        1.920        0.239      181.667       23.905        0.017      346.149       24.187      863.314
05/31/2013  19:55:00       46.719      122.925       -7.484       57.323       97.975       44.687     3285.875     9599.093     1996.935        1.611        0.744      131.504       52.752        0.161      346.123       24.143      863.312
05/31/2013  19:56:00       30.862      129.007      -12.020       42.271       57.023       31.971     1786.875     3251.653     1022.154        1.190        0.303      132.647       34.656        0.068      346.051       24.021      863.312
05/31/2013  19:57:00       40.971      127.407      -13.019       42.884       64.645       32.729     1839.006     4179.001     1071.177        1.258        0.354      133.832       35.418        0.070      346.041       24.002      863.302
05/31/2013  19:58:00       58.388       92.673       -2.446       52.533       76.691       47.134     2759.693     5881.545     2221.636        1.143        0.543      109.533       42.501        0.151      345.968       23.877      863.298
05/31/2013  19:59:00       28.655      110.024       -6.144       61.197       87.857       43.399     3745.126     7718.876     1883.488        1.315        0.667      113.694       49.368        0.189      345.939       23.827      863.302
05/31/2013  20:00:00       86.341      134.697       11.535       76.528      115.349       56.313     5856.610    13305.417     3171.198        2.403        1.117      159.994       61.736        0.149      345.904       23.766      863.301
05/31/2013  20:01:00       64.793      142.630        7.407       75.921      107.024       70.248     5763.927    11454.055     4934.778        2.337        1.108      156.657       71.919        0.211      345.856       23.683      863.295
05/31/2013  20:02:00       30.676      164.795       -5.181       58.853       95.960       60.509     3463.620     9208.265     3661.377        2.223        0.817      167.626       63.223        0.142      345.823       23.628      863.308
05/31/2013  20:03:00       29.874      177.424      -14.551       56.854       81.001       49.511     3232.426     6561.082     2451.377        2.241        0.612      179.922       48.928        0.074      345.814       23.610      863.312
05/31/2013  20:04:00       34.065      249.416      -35.177       64.247       73.545       39.600     4127.723     5408.806     1568.138        3.785        0.555      251.731       38.309        0.023      345.870       23.705      863.316
05/31/2013  20:05:00        2.777      231.030      -30.194       51.159       65.589       36.029     2617.264     4301.861     1298.103        3.125        0.411      231.047       36.280        0.025      345.865       23.697      863.317
05/31/2013  20:06:00       14.072      201.319      -13.669       68.916       80.701       50.641     4749.377     6512.609     2564.522        2.737        0.691      201.810       48.750        0.058      345.826       23.631      863.313
05/31/2013  20:07:00       19.443      203.213      -21.379       41.732       61.239       42.309     1741.520     3750.245     1790.031        2.470        0.364      204.141       40.886        0.040      345.775       23.544      863.317
05/31/2013  20:08:00       31.085      121.366       -6.288       40.079       63.512       38.423     1606.315     4033.796     1476.356        1.142        0.356      125.284       42.749        0.116      345.719       23.450      863.310
05/31/2013  20:09:00       39.110      151.935      -21.807       36.322       89.202       38.581     1319.293     7957.074     1488.460        1.793        0.538      156.888       49.778        0.101      345.754       23.508      863.321
05/31/2013  20:10:00       36.681      131.763       -8.104       47.013       87.959       41.515     2210.193     7736.773     1723.503        1.522        0.584      136.773       48.958        0.128      345.688       23.396      863.316
05/31/2013  20:11:00       21.054      178.943      -14.044       52.414       82.061       45.896     2747.207     6734.025     2106.414        2.212        0.579      180.177       45.158        0.063      345.701       23.417      863.326
05/31/2013  20:12:00       26.158      200.175      -17.234       67.570       64.864       35.883     4565.756     4207.293     1287.612        2.555        0.503      201.877       23.373        0.013      345.730       23.466      863.329
05/31/2013  20:13:00       36.988      163.449      -17.017       46.080       68.455       37.135     2123.333     4686.127     1379.021        1.828        0.409      167.582       39.858        0.057      345.682       23.386      863.336
05/31/2013  20:14:00       24.896      188.870      -28.095       55.289       77.291       38.220     3056.826     5973.918     1460.768        2.378        0.525      190.504       36.491        0.037      345.720       23.450      863.344
05/31/2013  20:15:00       64.867      120.483        8.099       65.294       84.431       61.995     4263.332     7128.544     3843.340        1.701        0.762      136.835       58.602        0.183      345.664       23.355      863.341
05/31/2013  20:16:00       17.743      183.826      -19.180       48.268       87.690       42.536     2329.821     7689.455     1809.318        2.315        0.591      184.680       47.363        0.066      345.676       23.376      863.342
05/31/2013  20:17:00       66.623      128.420       13.336       71.715       89.867       57.313     5143.055     8076.034     3284.741        1.880        0.825      144.673       59.239        0.168      345.654       23.337      863.359
05/31/2013  20:18:00       26.175      101.691        3.081       49.251       77.482       48.545     2425.629     6003.413     2356.612        1.091        0.539      105.006       42.866        0.167      345.588       23.225      863.361
05/31/2013  20:19:00       14.328      134.158        4.848       71.622       67.346       50.823     5129.714     4535.512     2583.017        1.524        0.612      134.921       46.831        0.120      345.589       23.225      863.380
05/31/2013  20:20:00       29.665      183.486      -17.061       51.941       82.129       48.314     2697.884     6745.135     2334.280        2.331        0.589      185.869       49.094        0.070      345.637       23.306      863.382
05/31/2013  20:21:00       17.059      100.636        0.360       46.017       69.195       44.398     2117.601     4787.995     1971.169        0.965        0.444      102.071       36.066        0.125      345.501       23.077      863.405
05/31/2013  20:22:00       38.578      154.317       -6.306       53.353       77.563       46.505     2846.526     6016.095     2162.736        1.818        0.551      159.066       43.559        0.075      345.544       23.148      863.412
05/31/2013  20:23:00       35.557      130.191       15.928       62.568       72.562       51.078     3914.694     5265.274     2608.999        1.513        0.589      134.960       44.561        0.109      345.496       23.066      863.431
05/31/2013  20:24:00        2.307      159.767      -15.098       60.347       75.173       43.847     3641.775     5650.919     1922.523        1.849        0.561      159.783       41.514        0.068      345.489       23.054      863.431
05/31/2013  20:25:00       21.204      178.757      -15.018       41.358       78.559       40.208     1710.500     6171.484     1616.717        2.106        0.475      180.011       44.911        0.062      345.494       23.062      863.448
05/31/2013  20:26:00       37.291      103.480       14.752       46.833       87.162       56.596     2193.331     7597.177     3203.092        1.265        0.650      109.994       61.027        0.308      345.429       22.951      863.463
05/31/2013  20:27:00       19.999      182.295      -23.213       34.562       51.423       31.753     1194.502     2644.311     1008.264        1.951        0.242      183.389       24.435        0.018      345.425       22.944      863.474
05/31/2013  20:28:00       29.228      138.821      -12.337       49.750       59.021       37.409     2475.016     3483.436     1399.415        1.382        0.368      141.865       36.467        0.066      345.433       22.958      863.496
05/31/2013  20:29:00        5.819      133.596       -5.949       37.809       77.983       36.582     1429.542     6081.414     1338.209        1.338        0.442      133.723       42.994        0.103      345.409       22.916      863.504
05/31/2013  20:30:00       27.973      141.291      -12.560       50.891       71.550       44.171     2589.898     5119.358     1951.062        1.528        0.483      144.033       41.558        0.083      345.401       22.903      863.512
05/31/2013  20:31:00        9.370      161.687       -9.854       38.031       54.006       37.808     1446.383     2916.615     1429.457        1.606        0.290      161.958       28.367        0.031      345.340       22.800      863.533
05/31/2013  20:32:00       43.803      136.891       -2.884       54.549       73.415       40.796     2975.608     5389.832     1664.298        1.535        0.501      143.729       43.098        0.090      345.362       22.836      863.556
05/31/2013  20:33:00       25.556      149.794       -8.737       43.752       54.204       39.880     1914.247     2938.116     1590.380        1.480        0.322      151.958       32.372        0.045      345.298       22.728      863.572
05/31/2013  20:34:00       26.848      103.939       -3.020       40.913       57.964       36.825     1673.857     3359.819     1356.076        0.896        0.319      107.351       29.545        0.076      345.252       22.649      863.572
05/31/2013  20:35:00       28.467      191.752      -28.455       38.030       46.490       23.131     1446.275     2161.286      535.043        2.126        0.207      193.853       20.056        0.011      345.337       22.794      863.578
05/31/2013  20:36:00       16.907      200.298      -29.828       40.351       48.718       28.027     1628.204     2373.429      785.505        2.304        0.239      201.010       24.623        0.015      345.318       22.759      863.580
05/31/2013  20:37:00       15.469      198.081      -34.192       37.452       51.679       23.191     1402.651     2670.709      537.836        2.263        0.231      198.685       25.679        0.017      345.306       22.740      863.591
05/31/2013  20:38:00       18.844      153.347      -16.382       42.372       82.773       34.998     1795.409     6851.399     1224.875        1.700        0.494      154.501       47.337        0.094      345.254       22.651      863.600
05/31/2013  20:39:00      -10.577      151.186      -14.408       44.990       60.712       30.879     2024.073     3685.927      953.492        1.492        0.333      151.555       31.384        0.043      345.211       22.579      863.601
05/31/2013  20:40:00       -9.255      175.907      -20.087       38.461       61.180       24.200     1479.222     3742.963      585.633        1.862        0.290      176.150       27.474        0.024      345.191       22.543      863.610
05/31/2013  20:41:00      -30.717      156.397      -27.200       23.504       33.682       16.175      552.425     1134.452      261.627        1.405        0.097      159.385       14.271        0.008      345.274       22.685      863.610
05/31/2013  20:42:00      -53.961       86.844       -9.191       26.745       47.957       28.092      715.274     2299.862      789.136        0.717        0.190      102.243       27.289        0.071      345.150       22.475      863.620
05/31/2013  20:43:00      -36.006      124.272      -16.268       29.714       27.054       19.904      882.946      731.937      396.158        0.951        0.101      129.383       15.034        0.014      345.170       22.511      863.616
05/31/2013  20:44:00      -42.564      158.161      -21.287       35.781       56.031       23.832     1280.300     3139.478      567.944        1.613        0.249      163.788       24.124        0.022      345.208       22.574      863.629
05/31/2013  20:45:00      -59.245      177.601      -19.645       29.493       41.463       19.677      869.862     1719.163      387.203        1.921        0.149      187.222       16.458        0.008      345.230       22.610      863.637
05/31/2013  20:46:00      -62.611      118.890      -21.565       28.353       39.486       20.176      803.902     1559.157      407.082        1.064        0.139      134.369       20.442        0.023      345.180       22.526      863.647
05/31/2013  20:47:00      -62.838      149.712      -13.787       35.560       49.834       26.821     1264.488     2483.399      719.382        1.551        0.223      162.364       19.519        0.014      345.141       22.459      863.662
05/31/2013  20:48:00      -46.089      140.252      -16.404       36.708       42.320       22.526     1347.493     1790.998      507.423        1.285        0.182      147.631       17.219        0.014      345.110       22.408      863.674
05/31/2013  20:49:00      -59.965       51.781       -2.378       33.388       22.932       19.585     1114.788      525.856      383.560        0.415        0.101       79.228       15.372        0.038      344.946       22.128      863.681
05/31/2013  20:50:00      -94.146       65.665      -18.355       31.910       44.725       23.531     1018.244     2000.317      553.691        0.854        0.179      114.784       21.663        0.036      345.102       22.394      863.688
05/31/2013  20:51:00     -134.370       87.499      -17.893       47.833       52.779       29.331     2287.948     2785.662      860.289        1.598        0.297      160.348       24.516        0.023      345.076       22.349      863.690
05/31/2013  20:52:00     -142.984      146.345      -38.018       49.224       77.371       32.822     2423.008     5986.347     1077.292        2.640        0.474      204.600       34.016        0.028      344.951       22.133      863.702
05/31/2013  20:53:00     -152.912      168.090      -44.101       61.783       63.443       42.278     3817.111     4024.959     1787.399        3.160        0.481      227.236       44.621        0.039      344.907       22.054      863.702
05/31/2013  20:54:00     -124.084      109.887      -19.164       51.111       66.885       36.232     2612.287     4473.587     1312.732        1.812        0.420      165.746       24.393        0.022      344.862       21.982      863.714
05/31/2013  20:55:00     -154.843      176.392      -32.052       64.169       81.841       49.225     4117.656     6698.020     2423.148        3.468        0.662      234.714       46.743        0.040      344.902       22.047      863.718
05/31/2013  20:56:00     -164.474      185.335      -44.642       47.750       69.023       42.971     2280.082     4764.213     1846.486        3.614        0.445      247.791       32.647        0.017      344.873       21.997      863.720
05/31/2013  20:57:00     -168.185      189.605      -31.776       73.473       66.881       46.535     5398.285     4473.041     2165.490        3.864        0.602      253.449       37.442        0.022      344.869       21.989      863.742
05/31/2013  20:58:00     -159.982      229.074      -50.202       65.996       78.281       37.298     4355.538     6127.917     1391.120        4.623        0.594      279.409       34.100        0.015      344.886       22.020      863.749
05/31/2013  20:59:00     -128.248      150.660      -26.404       43.956       59.799       35.911     1932.148     3575.868     1289.616        2.332        0.340      197.854       23.665        0.014      344.815       21.900      863.767
05/31/2013  21:00:00     -154.292      219.309      -46.653       63.460       87.697       42.948     4027.119     7690.742     1844.568        4.382        0.678      268.147       43.359        0.026      344.857       21.968      863.770
05/31/2013  21:01:00     -156.503      160.077      -29.095       65.379       76.501       37.997     4274.369     5852.462     1443.786        3.127        0.579      223.870       36.984        0.027      344.857       21.971      863.777
05/31/2013  21:02:00     -151.563      154.235      -37.121       53.157       80.382       27.886     2825.627     6461.301      777.632        2.910        0.503      216.241       23.200        0.012      344.907       22.055      863.790
05/31/2013  21:03:00     -131.837      134.026      -27.677       56.372       66.981       34.958     3177.820     4486.410     1222.048        2.250        0.444      188.000       34.047        0.033      344.816       21.902      863.802
05/31/2013  21:04:00     -136.306      163.011      -25.665       66.214       63.762       36.672     4384.263     4065.585     1344.803        2.780        0.490      212.490       30.820        0.021      344.846       21.952      863.825
05/31/2013  21:05:00     -158.263      207.621      -29.560       59.025       94.600       44.971     3483.907     8949.250     2022.404        4.174        0.723      261.062       39.030        0.022      344.918       22.073      863.841
05/31/2013  21:06:00     -179.623      163.403      -36.462       57.788       82.478       42.093     3339.487     6802.625     1771.784        3.610        0.596      242.828       31.570        0.017      344.919       22.077      863.853
05/31/2013  21:07:00     -186.709      148.792      -26.135       57.283       75.495       40.901     3281.294     5699.538     1672.902        3.417        0.533      238.745       38.312        0.026      344.935       22.105      863.874
05/31/2013  21:08:00     -116.682      101.835      -12.833       64.982       58.119       36.612     4222.715     3377.818     1340.469        1.654        0.447      154.871       25.761        0.028      344.846       21.953      863.877
05/31/2013  21:09:00     -163.430      119.583      -21.267       57.519       69.833       44.718     3308.454     4876.579     1999.683        2.582        0.509      202.508       29.332        0.021      344.926       22.088      863.894
05/31/2013  21:10:00     -167.435      178.823      -42.519       58.942       83.527       43.535     3474.142     6976.792     1895.331        3.708        0.617      244.974       39.820        0.026      344.941       22.114      863.906
05/31/2013  21:11:00     -123.081      166.599      -27.895       56.461       76.449       38.246     3187.877     5844.414     1462.736        2.709        0.525      207.134       29.348        0.020      344.865       21.983      863.908
05/31/2013  21:12:00     -135.924      101.215      -18.367       76.011       69.404       39.686     5777.655     4816.875     1574.999        2.061        0.608      169.469       34.869        0.042      344.905       22.054      863.914
05/31/2013  21:13:00     -149.474      155.540      -29.344       62.443       69.021       42.986     3899.182     4763.849     1847.800        2.895        0.526      215.720       39.309        0.033      344.931       22.096      863.906
05/31/2013  21:14:00     -184.298      190.506      -49.150       88.113       84.357       45.155     7763.975     7116.128     2039.012        4.479        0.846      265.062       52.547        0.039      344.983       22.186      863.907
05/31/2013  21:15:00     -159.774      197.524      -40.534       54.588       63.363       33.729     2979.837     4014.813     1137.650        3.716        0.407      254.054       25.580        0.010      344.959       22.143      863.906
05/31/2013  21:16:00     -176.316      150.957      -28.275       76.686       77.831       47.239     5880.763     6057.598     2231.564        3.442        0.708      232.110       49.113        0.045      345.006       22.225      863.912
05/31/2013  21:17:00     -157.165      125.319      -23.164       59.689       63.383       39.725     3562.760     4017.449     1578.056        2.505        0.458      201.012       32.877        0.027      344.975       22.172      863.930
05/31/2013  21:18:00     -141.712      131.392      -25.102       59.757       55.322       48.583     3570.852     3060.491     2360.305        2.348        0.450      193.252       39.376        0.042      344.908       22.059      863.939
05/31/2013  21:19:00     -166.848      123.337      -39.434       69.538       58.857       34.190     4835.466     3464.191     1168.939        2.704        0.473      207.486       42.089        0.041      344.925       22.086      863.952
05/31/2013  21:20:00     -109.781      121.434      -24.791       40.734       59.129       33.792     1659.295     3496.291     1141.925        1.685        0.315      163.701       21.801        0.018      344.839       21.942      863.970
05/31/2013  21:21:00     -188.683      125.974      -30.899       78.981       94.014       45.950     6238.071     8838.661     2111.415        3.480        0.859      226.872       41.759        0.034      344.772       21.825      863.991
05/31/2013  21:22:00     -123.389      147.717      -33.417       45.051       90.749       32.135     2029.621     8235.399     1032.680        2.473        0.565      192.471       29.472        0.023      344.701       21.704      864.002
05/31/2013  21:23:00     -160.677      135.096      -38.968       75.279       62.453       34.056     5666.875     3900.343     1159.793        2.815        0.536      209.924       33.840        0.026      344.691       21.685      864.025
05/31/2013  21:24:00     -179.955      168.292      -33.534       63.612       68.055       41.104     4046.532     4631.514     1689.564        3.610        0.518      246.386       41.013        0.028      344.700       21.699      864.025
05/31/2013  21:25:00     -155.703      179.180      -25.181       50.847       88.648       38.079     2585.461     7858.461     1450.047        3.444        0.595      237.379       30.875        0.017      344.646       21.610      864.028
05/31/2013  21:26:00     -130.292      132.168      -27.769       62.180       77.850       38.176     3866.390     6060.644     1457.378        2.330        0.569      185.592       38.095        0.042      344.624       21.572      864.025
05/31/2013  21:27:00      -83.272      110.901      -16.671       37.765       51.396       33.821     1426.181     2641.587     1143.831        1.236        0.261      138.684       26.258        0.036      344.562       21.469      864.034
05/31/2013  21:28:00      -88.266      125.962      -22.088       46.568       57.336       30.376     2168.578     3287.416      922.714        1.526        0.319      153.809       27.056        0.031      344.571       21.483      864.035
05/31/2013  21:29:00     -146.827      185.227      -36.652       56.386       74.378       36.835     3179.352     5532.127     1356.834        3.364        0.503      236.362       35.641        0.023      344.636       21.592      864.035
05/31/2013  21:30:00     -131.121      192.027      -37.130       47.805       51.720       35.310     2285.318     2674.945     1246.807        3.083        0.310      232.524       28.639        0.015      344.640       21.599      864.034
05/31/2013  21:31:00     -140.724      116.593      -25.778       54.471       55.731       36.538     2967.116     3105.991     1335.001        2.073        0.370      182.749       32.122        0.031      344.608       21.547      864.031
05/31/2013  21:32:00     -160.305      175.893      -38.592       79.622       61.715       38.960     6339.713     3808.701     1517.860        3.489        0.583      237.983       38.517        0.026      344.659       21.632      864.034
05/31/2013  21:33:00     -134.604      128.038      -35.835       38.050       67.819       30.186     1447.831     4599.481      911.177        2.138        0.348      185.774       25.513        0.019      344.678       21.665      864.053
05/31/2013  21:34:00     -117.114      139.036      -18.695       43.093       80.757       38.442     1857.016     6521.677     1477.816        2.162        0.493      181.788       38.141        0.044      344.590       21.514      864.058
05/31/2013  21:35:00     -167.531      115.213      -17.216       85.399       75.092       46.073     7292.906     5638.862     2122.704        2.834        0.753      203.324       38.515        0.036      344.592       21.517      864.065
05/31/2013  21:36:00     -107.617      146.379      -27.455       37.879       45.391       32.994     1434.853     2060.358     1088.589        1.917        0.229      181.682       19.805        0.012      344.546       21.441      864.087
05/31/2013  21:37:00      -67.801      140.482      -14.694       37.494       57.094       23.262     1405.803     3259.716      541.137        1.488        0.260      155.988       17.446        0.013      344.482       21.332      864.106
05/31/2013  21:38:00     -142.432      127.376      -28.253       38.878       37.991       24.385     1511.477     1443.282      594.606        2.043        0.177      191.080       23.333        0.015      344.523       21.400      864.119
05/31/2013  21:39:00     -113.403       63.397      -18.492       48.850       84.265       28.683     2386.320     7100.596      822.695        1.376        0.515      129.921       33.816        0.068      344.541       21.434      864.135
05/31/2013  21:40:00     -113.460      118.600      -31.491       61.453       56.125       37.307     3776.466     3149.972     1391.813        1.812        0.416      164.132       36.887        0.051      344.474       21.318      864.151
05/31/2013  21:41:00     -137.838      138.064      -29.139       58.033       73.321       40.262     3367.884     5375.943     1621.033        2.464        0.518      195.092       41.578        0.045      344.479       21.325      864.151
05/31/2013  21:42:00     -122.057       95.316      -29.605       45.000       73.314       28.403     2025.011     5374.902      806.732        1.653        0.410      154.865       31.768        0.042      344.512       21.383      864.147
05/31/2013  21:43:00     -165.013      102.451      -25.872       67.523       72.583       42.573     4559.321     5268.331     1812.424        2.502        0.582      194.230       31.957        0.027      344.545       21.439      864.145
05/31/2013  21:44:00      -93.666      118.713      -20.125       43.527       47.887       25.690     1894.588     2293.177      659.999        1.406        0.242      151.216       23.912        0.025      344.361       21.126      864.159
05/31/2013  21:45:00     -131.838      133.174      -29.606       51.413       52.496       31.637     2643.287     2755.811     1000.873        2.120        0.320      187.394       30.806        0.027      344.487       21.339      864.168
05/31/2013  21:46:00      -77.533       82.834      -12.385       40.895       49.254       32.877     1672.381     2425.973     1080.880        0.910        0.259      113.459       23.171        0.042      344.411       21.211      864.176
05/31/2013  21:47:00      -51.710       56.901      -15.572       39.604       41.524       26.739     1568.442     1724.204      714.986        0.508        0.200       76.887       19.812        0.066      344.479       21.327      864.193
05/31/2013  21:48:00      -64.765       39.129       -3.473       40.996       54.724       23.368     1680.675     2994.746      546.084        0.548        0.261       75.667       25.012        0.109      344.370       21.139      864.194
05/31/2013  21:49:00      -42.708       56.658       -6.081       34.936       49.717       23.391     1220.498     2471.785      547.147        0.465        0.212       70.952       21.944        0.096      344.342       21.093      864.204
05/31/2013  21:50:00       26.273       32.079       29.048       28.141       30.385       30.834      791.928      923.265      950.714        0.261        0.133       41.465       24.482        0.349      344.265       20.962      864.212
05/31/2013  21:51:00        1.960       30.169        5.196       23.127       37.016       16.146      534.846     1370.156      260.695        0.155        0.108       30.233        7.603        0.063      344.244       20.924      864.221
05/31/2013  21:52:00      -31.260       50.910      -14.230       29.098       30.580       16.512      846.713      935.161      272.636        0.291        0.103       59.741       14.662        0.060      344.281       20.990      864.226
05/31/2013  21:53:00      -19.181       25.658       -0.045       37.988       37.592       22.860     1443.061     1413.186      522.586        0.220        0.169       32.035       15.241        0.226      344.307       21.033      864.217
05/31/2013  21:54:00     -152.806       86.533      -33.773       63.948       54.801       28.802     4089.353     3003.168      829.553        1.995        0.396      175.607       30.161        0.029      344.310       21.036      864.236
05/31/2013  21:55:00      -48.543       47.609       -8.204       49.354       54.285       23.892     2435.812     2946.821      570.809        0.532        0.298       67.993       27.278        0.161      344.211       20.869      864.241
05/31/2013  21:56:00       13.777       45.015        7.630       35.372       33.254       19.224     1251.190     1105.846      369.564        0.250        0.136       47.076       14.290        0.092      343.970       20.457      864.244
05/31/2013  21:57:00        3.097      -18.787        6.068       32.515       31.359       15.633     1057.217      983.386      244.391        0.134        0.114       19.041       18.757        0.970      344.050       20.593      864.250
05/31/2013  21:58:00       -3.432      -32.468       -7.859       32.323       25.428       17.854     1044.746      646.595      318.775        0.157        0.101       32.648       14.828        0.206      343.982       20.476      864.263
05/31/2013  21:59:00      -30.091      -57.390       -3.005       40.361       36.563       18.380     1629.048     1336.873      337.839        0.376        0.165       64.800       23.325        0.130      343.855       20.261      864.267
05/31/2013  22:00:00      -31.007     -111.739        2.982       26.899       36.189       19.111      723.537     1309.610      365.227        0.793        0.120      115.962       15.762        0.018      343.804       20.174      864.283
05/31/2013  22:01:00      -12.067     -108.278       -6.835       28.369       27.349       17.349      804.809      747.950      300.997        0.688        0.093      108.948       12.424        0.013      343.828       20.216      864.284
05/31/2013  22:02:00      -47.342     -111.886       -1.103       29.369       40.425       18.882      862.524     1634.203      356.524        0.881        0.143      121.490       13.660        0.013      343.785       20.141      864.291
05/31/2013  22:03:00      -18.530      -74.322       -0.036       37.764       54.071       21.664     1426.136     2923.623      469.335        0.534        0.241       76.597       25.359        0.110      343.771       20.117      864.305
05/31/2013  22:04:00      -21.427     -103.036       -0.806       31.893       55.210       19.694     1017.140     3048.191      387.858        0.776        0.223      105.240       21.534        0.042      343.836       20.229      864.314
05/31/2013  22:05:00      -62.127     -144.687        0.807       31.170       59.090       21.250      971.574     3491.629      451.549        1.485        0.246      157.461       24.199        0.024      343.928       20.384      864.325
05/31/2013  22:06:00      -79.940     -188.671      -11.176       36.512       51.992       20.908     1333.109     2703.123      437.141        2.329        0.224      204.907       16.321        0.006      343.981       20.473      864.330
05/31/2013  22:07:00      -64.891     -150.986        3.726       46.635       56.442       25.510     2174.860     3185.694      650.756        1.652        0.301      164.340       20.265        0.015      343.948       20.420      864.341
05/31/2013  22:08:00      -59.931     -164.458       -1.464       43.954       51.428       24.060     1931.985     2644.852      578.900        1.790        0.258      175.038       24.286        0.019      344.007       20.519      864.354
05/31/2013  22:09:00      -42.816     -156.249        0.506       33.134       44.413       25.642     1097.893     1972.513      657.512        1.499        0.186      162.010       15.331        0.009      344.071       20.630      864.356
05/31/2013  22:10:00      -43.316     -126.370        4.504       54.068       39.756       26.311     2923.389     1580.544      692.287        1.153        0.260      133.588       26.471        0.039      344.088       20.661      864.372
05/31/2013  22:11:00      -88.986      -75.389       -4.207       51.712       39.065       26.890     2674.182     1526.046      723.097        0.927        0.246      116.628       19.182        0.027      344.048       20.593      864.382
05/31/2013  22:12:00      -74.026      -59.486        8.781       64.278       66.122       32.212     4131.713     4372.102     1037.641        0.932        0.477       94.966       21.831        0.053      343.989       20.489      864.387
05/31/2013  22:13:00      -68.768      -43.577       23.080       85.370       52.001       33.546     7288.062     2704.136     1125.308        0.914        0.556       81.413       39.209        0.232      344.040       20.577      864.401
05/31/2013  22:14:00      -54.869      -42.795       18.756       54.974       42.589       24.386     3022.173     1813.792      594.679        0.531        0.272       69.585       21.911        0.099      344.095       20.670      864.413
05/31/2013  22:15:00      -93.752      -28.337        6.246       61.262       49.912       26.943     3753.076     2491.227      725.922        0.830        0.349       97.941       29.195        0.089      343.941       20.408      864.405
05/31/2013  22:16:00      -88.028       12.826      -13.296       29.230       42.086       21.405      854.369     1771.217      458.177        0.559        0.154       88.958       14.081        0.025      344.193       20.839      864.405
05/31/2013  22:17:00      -54.870      -14.220       -2.384       24.622       25.332       11.505      606.229      641.727      132.360        0.230        0.069       56.683        4.085        0.005      344.132       20.735      864.396
05/31/2013  22:18:00     -108.817      -40.432      -15.947       15.747       19.182       11.475      247.979      367.943      131.665        0.724        0.037      116.086        7.489        0.004      344.122       20.718      864.410
05/31/2013  22:19:00      -73.847      -31.909        1.256       21.598       15.585       12.149      466.495      242.903      147.597        0.366        0.043       80.447       10.091        0.016      344.083       20.652      864.407
05/31/2013  22:20:00       -1.429      -31.047        7.703       28.890       35.083       16.468      834.620     1230.828      271.208        0.168        0.117       31.080       13.640        0.193      343.862       20.274      864.404
05/31/2013  22:21:00      -18.532      -93.346        4.066       22.595       41.038       19.426      510.545     1684.134      377.355        0.582        0.129       95.168       20.881        0.048      344.126       20.724      864.407
05/31/2013  22:22:00      -15.579      -41.259       19.048       46.929       30.851       26.305     2202.315      951.766      691.948        0.308        0.192       44.102       27.815        0.398      344.026       20.553      864.404
05/31/2013  22:23:00      -45.298      -57.717        1.360       31.827       17.921       17.693     1012.987      321.158      313.037        0.352        0.082       73.370       17.480        0.057      343.981       20.478      864.414
05/31/2013  22:24:00       -9.177      -34.931        2.176       26.360       17.096       12.402      694.851      292.263      153.800        0.122        0.057       36.117       12.962        0.129      344.058       20.608      864.412
05/31/2013  22:25:00     -110.207      -44.562       -1.314       73.448       20.963       19.500     5394.570      439.432      380.231        1.017        0.311      118.875       29.769        0.063      344.016       20.536      864.406
05/31/2013  22:26:00     -144.967      -13.597      -18.183       28.288       28.282       23.821      800.183      799.884      567.427        1.185        0.108      145.603       15.953        0.012      344.160       20.781      864.412
05/31/2013  22:27:00      -98.377      -35.489      -12.239       28.768       39.094       18.177      827.623     1528.371      330.402        0.689        0.134      104.582       12.823        0.015      344.115       20.705      864.400
05/31/2013  22:28:00     -108.926       -8.310       -4.223       35.679       33.720       15.992     1273.014     1137.040      255.729        0.731        0.133      109.243        9.330        0.007      343.979       20.471      864.392
05/31/2013  22:29:00      -61.577       11.439      -11.336       21.003       15.886       10.592      441.112      252.378      112.193        0.243        0.040       62.630       10.149        0.026      343.986       20.485      864.394
05/31/2013  22:30:00      -78.835       19.456       -3.767       27.367       24.167       13.712      748.975      584.022      188.024        0.406        0.076       81.201       13.627        0.028      344.181       20.817      864.384
05/31/2013  22:31:00      -69.432       23.745       -8.226       22.032       19.581       12.162      485.403      383.412      147.905        0.323        0.051       73.380        9.491        0.017      344.097       20.675      864.374
05/31/2013  22:32:00      -80.568       39.542       -6.933       20.759       15.959       16.585      430.934      254.697      275.054        0.453        0.048       89.748       10.353        0.013      344.083       20.650      864.365
05/31/2013  22:33:00      -97.988       68.673      -21.417       25.250       28.901       21.025      637.568      835.284      442.059        0.835        0.096      119.656       16.256        0.018      344.219       20.885      864.356
05/31/2013  22:34:00      -80.045       69.144      -22.694       21.567       36.019       14.953      465.125     1297.399      223.585        0.684        0.099      105.773       16.092        0.023      344.174       20.806      864.348
05/31/2013  22:35:00      -89.585      107.763      -22.585       20.954       55.513       16.565      439.082     3081.717      274.395        1.197        0.190      140.137       17.676        0.016      344.198       20.847      864.345
05/31/2013  22:36:00      -70.478       -6.688       -7.371       36.775       25.405       18.633     1352.414      645.425      347.187        0.371        0.117       70.794       20.311        0.082      344.107       20.691      864.332
05/31/2013  22:37:00      -66.931       33.972       -3.146       27.015       24.236       11.136      729.805      587.378      124.006        0.354        0.072       75.059        8.941        0.014      344.055       20.601      864.325
05/31/2013  22:38:00      -65.818       38.086      -13.143       17.059       16.368        9.330      291.000      267.900       87.042        0.330        0.032       76.043        8.487        0.012      344.005       20.516      864.330
05/31/2013  22:39:00      -75.063       21.537       -7.626       19.136       10.891       10.443      366.196      118.622      109.062        0.338        0.030       78.091       10.740        0.019      343.935       20.398      864.320
05/31/2013  22:40:00     -101.716       15.905      -12.743       26.410       23.393       15.080      697.482      547.216      227.411        0.612        0.074      102.952       14.476        0.020      344.032       20.563      864.308
05/31/2013  22:41:00      -93.584       56.529      -16.967       39.097       38.295       21.009     1528.593     1466.525      441.376        0.784        0.172      109.332       24.997        0.052      343.867       20.280      864.304
05/31/2013  22:42:00      -84.564       46.657      -11.321       22.032       26.896       17.704      485.413      723.377      313.421        0.549        0.076       96.582       16.150        0.028      343.815       20.192      864.309
05/31/2013  22:43:00      -91.159       68.473      -18.706       20.296       28.817       20.347      411.913      830.439      413.994        0.750        0.083      114.011       14.131        0.015      343.879       20.299      864.300
05/31/2013  22:44:00      -98.648       39.397       -9.749       38.672       21.722       15.504     1495.496      471.856      240.375        0.679        0.110      106.224       13.100        0.015      343.817       20.196      864.298
05/31/2013  22:45:00     -100.134       11.044      -17.035       28.879       27.348       18.882      834.018      747.903      356.522        0.619        0.097      100.741       16.480        0.027      343.738       20.060      864.302
05/31/2013  22:46:00      -83.590       21.868       -9.265       21.784       28.171       13.839      474.539      793.596      191.519        0.451        0.073       86.403        9.447        0.012      343.551       19.741      864.306
05/31/2013  22:47:00      -78.560       -8.893       -2.070       33.779       30.249       15.397     1141.016      914.980      237.079        0.427        0.115       79.062       15.057        0.036      343.408       19.498      864.299
05/31/2013  22:48:00     -110.468       -6.698       -6.250       26.798       32.972       18.170      718.124     1087.147      330.134        0.721        0.107      110.671       13.879        0.016      343.332       19.367      864.298
05/31/2013  22:49:00     -127.062      -34.314      -11.261       32.919       29.514       17.873     1083.674      871.078      319.448        0.986        0.114      131.614       15.076        0.013      343.103       18.979      864.307
05/31/2013  22:50:00     -121.807      -13.227      -16.857       27.594       21.763       19.328      761.402      473.649      373.562        0.845        0.080      122.523       18.259        0.022      343.093       18.963      864.307
05/31/2013  22:51:00     -134.334      -23.335      -17.805       18.703       17.090       15.858      349.801      292.062      251.462        0.990        0.045      136.345        8.709        0.004      343.043       18.878      864.302
05/31/2013  22:52:00     -138.170      -19.544      -19.147       21.281       29.483       15.700      452.867      869.231      246.494        1.070        0.078      139.545       11.671        0.007      343.103       18.979      864.311
05/31/2013  22:53:00     -121.959      -33.539      -12.772       33.019       19.427       16.557     1090.254      377.415      274.150        0.895        0.087      126.487       17.046        0.018      343.035       18.862      864.306
05/31/2013  22:54:00      -85.333      -10.334       -2.368       36.827       29.854       18.291     1356.205      891.286      334.574        0.499        0.129       85.956       15.521        0.033      342.960       18.735      864.310
05/31/2013  22:55:00     -116.705      -17.996      -13.209       17.976       19.423       15.328      323.142      377.250      234.959        0.753        0.047      118.084       11.001        0.009      343.052       18.892      864.319
05/31/2013  22:56:00     -109.540      -37.504       -5.969       27.846       18.006       13.453      775.399      324.233      180.992        0.736        0.064      115.783       12.414        0.011      342.971       18.754      864.318
05/31/2013  22:57:00     -115.585      -20.046      -10.951       21.880       21.590       12.686      478.735      466.123      160.926        0.749        0.055      117.311        6.854        0.003      343.065       18.915      864.316
05/31/2013  22:58:00      -87.135        7.325       -8.975       29.976       18.012       11.691      898.551      324.440      136.672        0.454        0.068       87.442       12.218        0.020      343.066       18.917      864.326
05/31/2013  22:59:00      -90.009      -13.356       -6.789       27.784       36.082       12.066      771.943     1301.947      145.582        0.527        0.111       90.994       12.761        0.020      343.045       18.881      864.327
05/31/2013  23:00:00      -79.897      -11.779       -4.273       34.861       22.376       14.556     1215.307      500.671      211.865        0.423        0.096       80.761       12.849        0.025      343.055       18.897      864.324
05/31/2013  23:01:00     -107.503      -36.559      -13.898       17.066       18.819       11.097      291.247      354.140      123.137        0.693        0.038      113.549        6.670        0.003      343.129       19.024      864.335
05/31/2013  23:02:00      -93.927      -16.544       -7.324       31.776       19.163       12.028     1009.699      367.224      144.673        0.534        0.076       95.373       14.857        0.024      343.107       18.986      864.327
05/31/2013  23:03:00      -94.858      -15.263      -11.274       26.218       14.636       11.040      687.399      214.218      121.885        0.519        0.051       96.078       12.409        0.017      343.159       19.074      864.317
05/31/2013  23:04:00      -61.015      -21.411       -3.706       26.958       14.701       12.191      726.708      216.118      148.627        0.264        0.055       64.663        7.647        0.014      342.931       18.686      864.317
05/31/2013  23:05:00      -50.203      -37.258        2.632       28.625       24.168       13.883      819.417      584.092      192.747        0.276        0.080       62.518        9.131        0.021      342.780       18.428      864.315
05/31/2013  23:06:00      -43.913      -40.707       -1.950       22.527       24.650       18.439      507.451      607.603      339.987        0.252        0.073       59.878       13.891        0.054      342.705       18.301      864.317
05/31/2013  23:07:00      -55.788      -61.665        4.403       38.826       43.464       24.026     1507.453     1889.079      577.233        0.545        0.199       83.155       26.983        0.105      342.696       18.286      864.321
05/31/2013  23:08:00      -62.052      -58.712        8.180       49.788       35.478       21.490     2478.850     1258.657      461.837        0.578        0.210       85.426       21.367        0.063      342.736       18.356      864.322
05/31/2013  23:09:00      -30.203      -58.669        6.957       33.693       32.588       21.708     1135.217     1061.991      471.224        0.354        0.133       65.986       18.465        0.078      342.809       18.478      864.337
05/31/2013  23:10:00      -47.398      -75.361       -5.064       33.518       29.905       19.945     1123.443      894.329      397.812        0.518        0.121       89.027        9.919        0.012      342.848       18.545      864.337
05/31/2013  23:11:00       -9.243      -69.894       -0.499       23.086       34.064       17.482      532.976     1160.353      305.628        0.348        0.100       70.503        7.304        0.011      342.887       18.610      864.332
05/31/2013  23:12:00       -7.848      -53.993       12.222       35.172       31.758       25.633     1237.038     1008.568      657.028        0.301        0.145       54.561       22.327        0.167      342.831       18.516      864.336
05/31/2013  23:13:00      -51.600      -77.627       -1.637       40.986       35.037       22.748     1679.850     1227.600      517.475        0.606        0.171       93.212       20.667        0.049      342.890       18.616      864.333
05/31/2013  23:14:00      -59.644      -73.542       -2.876       34.847       38.501       16.879     1214.319     1482.319      284.909        0.598        0.149       94.688       15.112        0.025      342.885       18.608      864.331
05/31/2013  23:15:00      -72.001      -63.200       -2.879       49.646       43.300       27.975     2464.721     1874.886      782.579        0.715        0.256       95.804       19.600        0.042      342.904       18.640      864.329
05/31/2013  23:16:00     -153.778      -90.890       -7.280       50.127       48.050       28.427     2512.728     2308.787      808.110        1.879        0.281      178.630       31.261        0.031      342.816       18.490      864.313
05/31/2013  23:17:00     -144.669      -88.048       -2.500       47.595       34.888       30.071     2265.288     1217.166      904.247        1.654        0.219      169.357       25.451        0.023      342.632       18.176      864.315
05/31/2013  23:18:00     -125.902      -68.881        0.165       48.404       35.674       19.189     2342.940     1272.657      368.203        1.229        0.199      143.512       17.573        0.015      342.622       18.161      864.319
05/31/2013  23:19:00     -133.758      -47.220       -6.957       52.128       35.643       27.209     2717.350     1270.411      740.343        1.245        0.236      141.848       30.980        0.048      342.591       18.108      864.319
05/31/2013  23:20:00     -132.968      -36.655        3.896       43.018       30.907       21.922     1850.569      955.224      480.553        1.116        0.164      137.927       21.226        0.024      342.603       18.128      864.312
05/31/2013  23:21:00     -127.658      -56.655        1.408       28.819       28.082       15.323      830.556      788.608      234.796        1.068        0.093      139.665        9.662        0.005      342.598       18.119      864.311
05/31/2013  23:22:00     -118.947      -21.062       -9.594       26.240       22.569       19.083      688.522      509.367      364.175        0.812        0.078      120.798       18.202        0.023      342.517       17.982      864.317
05/31/2013  23:23:00     -107.616      -21.557       -5.841       33.349       22.964       17.273     1112.154      527.363      298.357        0.701        0.097      109.754       14.134        0.017      342.440       17.851      864.315
05/31/2013  23:24:00     -103.685      -20.390       -3.561       47.732       23.092       16.925     2278.367      533.243      286.449        0.714        0.155      105.671       18.013        0.029      342.375       17.739      864.330
05/31/2013  23:25:00     -129.233      -40.114       -4.316       29.292       23.380       16.026      858.001      546.646      256.833        0.999        0.083      135.316       13.946        0.011      342.365       17.722      864.333
05/31/2013  23:26:00     -115.014      -57.573      -18.052       19.733       14.830       10.687      389.378      219.941      114.222        0.880        0.036      128.619        6.690        0.003      342.416       17.809      864.337
05/31/2013  23:27:00     -132.221      -60.278       -7.636       18.303       21.618       16.407      334.989      467.349      269.175        1.112        0.054      145.313        9.176        0.004      342.355       17.705      864.343
05/31/2013  23:28:00     -113.811      -39.478       -7.677       24.923       27.204       14.434      621.150      740.036      208.352        0.807        0.078      120.463       11.084        0.008      342.332       17.668      864.337
05/31/2013  23:29:00      -93.267      -26.550       -4.705       29.750       23.191       17.540      885.091      537.802      307.641        0.558        0.087       96.972       17.682        0.033      342.257       17.540      864.346
05/31/2013  23:30:00     -122.373      -20.708       -6.643       28.801       26.104       18.707      829.501      681.444      349.969        0.865        0.093      124.113       14.625        0.014      342.223       17.483      864.352
05/31/2013  23:31:00      -99.367       -8.433       -3.414       32.208       24.669       19.558     1037.382      608.551      382.516        0.599        0.101       99.724       18.119        0.033      342.164       17.384      864.353
05/31/2013  23:32:00      -95.293        6.320       -0.890       45.307       31.716       20.679     2052.698     1005.889      427.628        0.630        0.174       95.503       18.417        0.037      342.106       17.284      864.360
05/31/2013  23:33:00      -89.145        6.798       -0.154       57.988       33.103       20.148     3362.644     1095.779      405.943        0.643        0.243       89.404       27.277        0.093      342.230       17.494      864.364
05/31/2013  23:34:00     -101.172      -12.977       -2.541       33.745       26.506       18.062     1138.732      702.547      326.231        0.629        0.108      102.001       15.508        0.023      342.221       17.478      864.375
05/31/2013  23:35:00      -71.306      -31.738       -0.844       33.628       46.682       16.819     1130.837     2179.224      282.891        0.484        0.180       78.050       13.602        0.030      342.230       17.493      864.362
05/31/2013  23:36:00      -60.933      -30.060        3.019       20.836       25.073       14.840      434.127      628.638      220.240        0.295        0.064       67.944       12.113        0.032      342.271       17.563      864.369
05/31/2013  23:37:00      -57.865      -30.176        6.128       16.315       21.588       13.150      266.169      466.047      172.930        0.260        0.045       65.260        9.058        0.019      342.226       17.486      864.372
05/31/2013  23:38:00      -67.058      -44.791       -0.810       23.757       21.333       13.108      564.415      455.081      171.808        0.385        0.060       80.641        6.903        0.007      342.289       17.594      864.369
05/31/2013  23:39:00      -90.373      -49.397       -1.153       30.782       21.670       19.249      947.541      469.576      370.538        0.620        0.089      102.992       17.971        0.030      342.207       17.454      864.363
05/31/2013  23:40:00      -77.212      -38.955       -3.300       20.102       22.101       13.719      404.081      488.444      188.212        0.429        0.054       86.483        8.342        0.009      342.129       17.323      864.356
05/31/2013  23:41:00      -43.735      -30.457        3.380       27.643       19.702       14.345      764.162      388.183      205.771        0.210        0.068       53.295       14.784        0.077      342.137       17.336      864.357
05/31/2013  23:42:00      -61.858      -32.411       -2.096       40.765       22.053       17.182     1661.800      486.322      295.228        0.366        0.122       69.835       17.026        0.059      342.128       17.322      864.346
05/31/2013  23:43:00      -58.789      -52.136        1.691       36.371       23.776       18.491     1322.869      565.291      341.934        0.420        0.112       78.577       16.245        0.043      342.131       17.326      864.334
05/31/2013  23:44:00      -77.041      -48.759       -6.390       48.723       26.974       17.447     2373.925      727.585      304.409        0.588        0.170       91.174       20.742        0.052      342.017       17.133      864.330
05/31/2013  23:45:00      -80.426       -6.390        3.992       40.248       27.237       17.299     1619.912      741.839      299.241        0.459        0.133       80.679       19.121        0.056      341.896       16.926      864.324
05/31/2013  23:46:00      -96.780       -4.714       -2.830       63.790       27.636       23.480     4069.192      763.758      551.322        0.739        0.269       96.895       30.884        0.102      341.909       16.949      864.319
05/31/2013  23:47:00     -109.155      -14.257       -8.933       36.900       24.765       20.571     1361.601      613.282      423.154        0.730        0.120      110.082       18.309        0.028      341.893       16.921      864.313
05/31/2013  23:48:00      -55.188      -16.776       -2.763       43.351       18.602       16.557     1879.279      346.030      274.131        0.292        0.125       57.681       21.606        0.140      341.783       16.734      864.314
05/31/2013  23:49:00      -78.036       -3.219       -2.758       24.066       21.837       19.321      579.175      476.847      373.293        0.377        0.071       78.102       14.975        0.037      341.820       16.799      864.316
05/31/2013  23:50:00      -96.110      -24.173       -2.615       23.536       14.191       13.577      553.939      201.398      184.337        0.538        0.047       99.103       14.553        0.022      341.950       17.018      864.306
05/31/2013  23:51:00      -85.216      -35.236       -2.447       29.707       23.689       17.218      882.514      561.178      296.466        0.512        0.087       92.214       17.995        0.038      341.868       16.880      864.320
05/31/2013  23:52:00      -36.872      -15.721        9.130       41.440       23.216       19.108     1717.250      539.003      365.111        0.216        0.131       40.084       13.511        0.114      341.679       16.558      864.310
05/31/2013  23:53:00      -59.002      -41.868        5.627       39.445       32.200       26.004     1555.885     1036.818      676.219        0.427        0.163       72.347       25.606        0.125      341.668       16.541      864.307
05/31/2013  23:54:00      -75.559      -56.202       -1.259       41.523       27.834       21.165     1724.197      774.710      447.946        0.591        0.147       94.170       22.678        0.058      341.689       16.574      864.314
05/31/2013  23:55:00      -56.442      -35.140        2.859       42.770       25.733       20.536     1829.242      662.191      421.748        0.367        0.146       66.487       19.410        0.085      341.667       16.539      864.305
05/31/2013  23:56:00      -76.755      -45.045       -4.657       40.155       20.192       18.544     1612.434      407.715      343.897        0.515        0.118       88.996       13.733        0.024      341.650       16.509      864.308
05/31/2013  23:57:00     -137.982      -42.499      -10.038       26.418       16.757       12.870      697.910      280.781      165.636        1.104        0.057      144.378        7.220        0.003      341.580       16.391      864.308
05/31/2013  23:58:00     -141.595      -34.261        1.041       30.893       27.490       21.605      954.382      755.702      466.768        1.170        0.109      145.681       17.258        0.014      341.437       16.150      864.307
05/31/2013  23:59:00     -156.725       -6.524      -11.650       28.232       30.986       17.762      797.035      960.102      315.476        1.341        0.104      156.861       15.170        0.009      341.503       16.261      864.313
